[[{"header":{"parameterUnit":"m.s-1","parameterCategory":1,"la1":30.6,"la2":29.2853,"lo1":-89.7004,"lo2":-87.6739,"dx":0.0162,"dy":0.0183,"nx":112,"ny":82,"refTime":"2022-12-31T06:00:00:Z","depth":0,"parameterNumber":2,"parameterNumberName":"U-component_of_WINDS"},"data":[0.0,0.0,0.0,0.0,0.0,0.0,0.0,0.0,0.0,0.0,0.0,0.0,0.0,0.0,0.0,0.0,0.0,0.0,0.0,0.0,0.0,0.0,0.0,0.0,0.0,0.0,0.0,0.0,0.0,0.0,0.0,0.0,0.0,0.0,0.0,0.0,0.0,0.0,0.0,0.0,0.0,0.0,0.0,0.0,0.0,0.0,0.0,0.0,0.0,0.0,0.0,0.0,0.0,0.0,0.0,0.0,0.0,0.0,0.0,0.0,0.0,0.0,0.0,0.0,0.0,0.0,0.0,0.0,0.0,0.0,0.0,0.0,0.0,0.0,0.0,0.0,0.0,0.0,0.0,0.0,0.0,0.0,0.0,0.0,0.0,0.0,0.0,0.0,0.0,0.0,-2.045,-2.1927,-2.4015,-2.5303,-2.5303,-2.5012,-2.3423,-2.0118,0.0,0.0,0.0,0.0,0.0,0.0,0.0,0.0,0.0,0.0,0.0,0.0,0.0,0.0,0.0,0.0,0.0,0.0,0.0,0.0,0.0,0.0,0.0,0.0,0.0,0.0,0.0,0.0,0.0,0.0,0.0,0.0,0.0,0.0,0.0,0.0,0.0,0.0,0.0,0.0,0.0,0.0,0.0,0.0,0.0,0.0,0.0,0.0,0.0,0.0,0.0,0.0,0.0,0.0,0.0,0.0,0.0,0.0,0.0,0.0,0.0,0.0,0.0,0.0,0.0,0.0,0.0,0.0,0.0,0.0,0.0,0.0,0.0,0.0,0.0,0.0,0.0,0.0,0.0,0.0,0.0,0.0,0.0,0.0,0.0,0.0,0.0,0.0,0.0,0.0,0.0,0.0,0.0,0.0,0.0,0.0,0.0,0.0,0.0,0.0,0.0,0.0,0.0,0.0,-1.9737,-2.4245,-2.5072,-2.5303,-2.5303,-2.5107,-2.3522,-2.011,0.0,0.0,0.0,0.0,0.0,0.0,0.0,0.0,0.0,0.0,0.0,0.0,0.0,0.0,0.0,0.0,0.0,0.0,0.0,0.0,0.0,0.0,0.0,0.0,0.0,0.0,0.0,0.0,0.0,0.0,0.0,0.0,0.0,0.0,0.0,0.0,0.0,0.0,0.0,0.0,0.0,0.0,0.0,0.0,0.0,0.0,0.0,0.0,0.0,0.0,0.0,0.0,0.0,0.0,0.0,0.0,0.0,0.0,0.0,0.0,0.0,0.0,0.0,0.0,0.0,0.0,0.0,0.0,0.0,0.0,0.0,0.0,0.0,0.0,0.0,0.0,0.0,0.0,0.0,0.0,0.0,0.0,0.0,0.0,0.0,0.0,0.0,0.0,0.0,0.0,0.0,0.0,0.0,0.0,0.0,0.0,0.0,0.0,0.0,0.0,0.0,0.0,0.0,-1.7939,-2.1118,-2.4899,-2.5303,-2.5303,-2.5303,-2.513,-2.3545,-2.0129,-1.8391,0.0,0.0,0.0,0.0,0.0,0.0,0.0,0.0,0.0,0.0,0.0,0.0,0.0,0.0,0.0,0.0,0.0,0.0,0.0,0.0,0.0,0.0,0.0,0.0,0.0,0.0,0.0,0.0,0.0,0.0,0.0,0.0,0.0,0.0,0.0,0.0,0.0,0.0,0.0,0.0,0.0,0.0,0.0,0.0,0.0,0.0,0.0,0.0,0.0,0.0,0.0,0.0,0.0,0.0,0.0,0.0,0.0,0.0,0.0,0.0,0.0,0.0,0.0,0.0,0.0,0.0,0.0,0.0,0.0,0.0,0.0,0.0,0.0,0.0,0.0,0.0,0.0,0.0,0.0,0.0,0.0,0.0,0.0,0.0,0.0,0.0,0.0,0.0,0.0,0.0,0.0,0.0,0.0,0.0,0.0,0.0,0.0,0.0,0.0,0.0,0.0,0.0,-2.1023,-2.2985,-2.5003,-2.5224,-2.5253,-2.5303,-2.513,-2.3545,-2.0129,-1.8076,0.0,0.0,0.0,0.0,0.0,0.0,0.0,0.0,0.0,0.0,0.0,0.0,0.0,0.0,0.0,0.0,0.0,0.0,0.0,0.0,0.0,0.0,0.0,0.0,0.0,0.0,0.0,0.0,0.0,0.0,0.0,0.0,0.0,0.0,0.0,0.0,0.0,0.0,0.0,0.0,0.0,0.0,0.0,0.0,0.0,0.0,0.0,0.0,0.0,0.0,0.0,0.0,0.0,0.0,0.0,0.0,0.0,0.0,0.0,0.0,0.0,0.0,0.0,0.0,0.0,0.0,0.0,0.0,0.0,0.0,0.0,0.0,0.0,0.0,0.0,0.0,0.0,0.0,0.0,0.0,0.0,0.0,0.0,0.0,0.0,0.0,0.0,0.0,0.0,0.0,0.0,0.0,0.0,0.0,0.0,0.0,0.0,0.0,0.0,0.0,0.0,0.0,-2.1518,-2.4693,-2.4991,-2.5022,-2.5099,-2.5274,-2.513,-2.3545,-2.0129,-1.8076,0.0,0.0,0.0,0.0,0.0,0.0,0.0,0.0,0.0,0.0,0.0,0.0,0.0,0.0,0.0,0.0,0.0,0.0,0.0,0.0,0.0,0.0,0.0,0.0,0.0,0.0,0.0,0.0,0.0,0.0,0.0,0.0,0.0,0.0,0.0,0.0,0.0,0.0,0.0,0.0,0.0,0.0,0.0,0.0,0.0,0.0,0.0,0.0,0.0,0.0,0.0,0.0,0.0,0.0,0.0,0.0,0.0,0.0,0.0,0.0,0.0,0.0,0.0,0.0,0.0,0.0,0.0,0.0,0.0,0.0,0.0,0.0,0.0,0.0,0.0,0.0,0.0,0.0,0.0,0.0,0.0,0.0,0.0,0.0,0.0,0.0,0.0,0.0,0.0,0.0,0.0,0.0,0.0,0.0,0.0,0.0,0.0,0.0,0.0,0.0,0.0,0.0,-1.9964,-2.278,-2.4666,-2.4883,-2.491,-2.4975,-2.4923,-2.3326,-1.9737,0.0,0.0,0.0,0.0,0.0,0.0,0.0,0.0,0.0,0.0,0.0,0.0,0.0,0.0,0.0,0.0,0.0,0.0,0.0,0.0,0.0,0.0,0.0,0.0,0.0,0.0,0.0,0.0,0.0,0.0,0.0,0.0,0.0,0.0,0.0,0.0,0.0,0.0,0.0,0.0,0.0,0.0,0.0,0.0,0.0,0.0,0.0,0.0,0.0,0.0,0.0,0.0,0.0,0.0,0.0,0.0,0.0,0.0,0.0,0.0,0.0,0.0,0.0,0.0,0.0,0.0,0.0,0.0,0.0,0.0,0.0,0.0,0.0,0.0,0.0,0.0,0.0,0.0,0.0,0.0,0.0,0.0,0.0,0.0,0.0,0.0,0.0,0.0,0.0,0.0,0.0,0.0,0.0,0.0,0.0,0.0,0.0,0.0,0.0,0.0,0.0,0.0,-1.6236,-1.925,-2.1972,-2.4297,-2.4551,-2.4598,-2.479,-2.4648,-2.2955,-1.9189,0.0,0.0,0.0,0.0,0.0,0.0,0.0,0.0,0.0,0.0,0.0,0.0,0.0,0.0,0.0,0.0,0.0,0.0,0.0,0.0,0.0,0.0,0.0,0.0,0.0,0.0,0.0,0.0,0.0,0.0,0.0,0.0,0.0,0.0,0.0,0.0,0.0,0.0,0.0,0.0,0.0,0.0,0.0,0.0,0.0,0.0,0.0,0.0,0.0,0.0,0.0,0.0,0.0,0.0,0.0,0.0,0.0,0.0,0.0,0.0,0.0,0.0,0.0,0.0,0.0,0.0,0.0,0.0,0.0,0.0,0.0,0.0,0.0,0.0,0.0,0.0,0.0,0.0,0.0,0.0,0.0,0.0,0.0,0.0,0.0,0.0,0.0,0.0,0.0,0.0,0.0,0.0,0.0,0.0,0.0,0.0,0.0,0.0,0.0,0.0,0.0,0.0,-1.5656,-1.9779,-2.2952,-2.3911,-2.4006,-2.4227,-2.476,-2.4298,-2.2332,0.0,0.0,0.0,0.0,0.0,0.0,0.0,0.0,0.0,0.0,0.0,0.0,0.0,0.0,0.0,0.0,0.0,0.0,0.0,0.0,0.0,0.0,0.0,0.0,0.0,0.0,0.0,0.0,0.0,0.0,0.0,0.0,0.0,0.0,0.0,0.0,0.0,0.0,0.0,0.0,0.0,0.0,0.0,0.0,0.0,0.0,0.0,0.0,0.0,0.0,0.0,0.0,0.0,0.0,0.0,0.0,0.0,0.0,0.0,0.0,0.0,0.0,0.0,0.0,0.0,0.0,0.0,0.0,0.0,0.0,0.0,0.0,0.0,0.0,0.0,0.0,0.0,0.0,0.0,0.0,0.0,0.0,0.0,0.0,0.0,0.0,0.0,0.0,0.0,0.0,0.0,0.0,0.0,0.0,0.0,0.0,0.0,0.0,0.0,0.0,0.0,0.0,0.0,-1.5084,-1.9847,-2.3227,-2.3714,-2.4029,-2.4293,-2.4414,-2.384,-2.1682,-1.7542,0.0,0.0,0.0,0.0,0.0,0.0,0.0,0.0,0.0,0.0,0.0,0.0,0.0,0.0,0.0,0.0,0.0,0.0,0.0,0.0,0.0,0.0,0.0,0.0,0.0,0.0,0.0,0.0,0.0,0.0,0.0,0.0,0.0,0.0,0.0,0.0,0.0,0.0,0.0,0.0,0.0,0.0,0.0,0.0,0.0,0.0,0.0,0.0,0.0,0.0,0.0,0.0,0.0,0.0,0.0,0.0,0.0,0.0,0.0,0.0,0.0,0.0,0.0,0.0,0.0,0.0,0.0,0.0,0.0,0.0,0.0,0.0,0.0,0.0,0.0,0.0,0.0,0.0,0.0,0.0,0.0,0.0,0.0,0.0,0.0,0.0,0.0,0.0,0.0,0.0,0.0,0.0,0.0,0.0,0.0,0.0,0.0,0.0,0.0,0.0,0.0,0.0,-1.4475,-1.8875,-2.209,-2.2959,-2.3283,-2.3536,-2.3848,-2.3334,-2.1476,-1.7881,0.0,0.0,0.0,0.0,0.0,0.0,0.0,0.0,0.0,0.0,0.0,0.0,0.0,0.0,0.0,0.0,0.0,0.0,0.0,0.0,0.0,0.0,0.0,0.0,0.0,0.0,0.0,0.0,0.0,0.0,0.0,0.0,0.0,0.0,0.0,0.0,0.0,0.0,0.0,0.0,0.0,0.0,0.0,0.0,0.0,0.0,0.0,0.0,0.0,0.0,0.0,0.0,0.0,0.0,0.0,0.0,0.0,0.0,0.0,0.0,0.0,0.0,0.0,0.0,0.0,0.0,0.0,0.0,0.0,0.0,0.0,0.0,0.0,0.0,0.0,0.0,0.0,0.0,0.0,0.0,0.0,0.0,0.0,0.0,0.0,0.0,0.0,0.0,0.0,0.0,0.0,0.0,0.0,0.0,0.0,0.0,0.0,0.0,0.0,0.0,0.0,0.0,-1.3764,-1.7377,-2.0373,-2.1903,-2.2207,-2.2569,-2.3245,-2.2877,-2.1516,-1.885,0.0,0.0,0.0,0.0,0.0,0.0,0.0,0.0,0.0,0.0,0.0,0.0,0.0,0.0,0.0,0.0,0.0,0.0,0.0,0.0,0.0,0.0,0.0,0.0,0.0,0.0,0.0,0.0,0.0,0.0,0.0,0.0,0.0,0.0,0.0,0.0,0.0,0.0,0.0,0.0,0.0,0.0,0.0,0.0,0.0,0.0,0.0,0.0,0.0,0.0,0.0,0.0,0.0,0.0,0.0,0.0,0.0,0.0,0.0,0.0,-1.6791,0.0,0.0,0.0,0.0,0.0,0.0,0.0,0.0,0.0,0.0,0.0,0.0,0.0,0.0,0.0,0.0,0.0,0.0,0.0,0.0,0.0,0.0,0.0,0.0,0.0,0.0,0.0,0.0,0.0,0.0,0.0,0.0,0.0,0.0,0.0,0.0,0.0,0.0,0.0,0.0,0.0,-1.2719,-1.7825,-2.1379,-2.1759,-2.2909,-2.3721,-2.3912,-2.2818,-2.091,-1.8053,-1.612,0.0,0.0,0.0,0.0,0.0,0.0,0.0,0.0,0.0,0.0,0.0,0.0,0.0,0.0,0.0,0.0,0.0,0.0,0.0,0.0,0.0,0.0,0.0,0.0,0.0,0.0,0.0,0.0,0.0,0.0,0.0,0.0,0.0,0.0,0.0,0.0,0.0,0.0,0.0,0.0,0.0,0.0,0.0,0.0,0.0,0.0,0.0,0.0,0.0,0.0,0.0,0.0,0.0,0.0,0.0,0.0,0.0,0.0,0.0,0.0,-1.8447,0.0,0.0,0.0,0.0,0.0,0.0,0.0,0.0,0.0,0.0,0.0,0.0,0.0,0.0,0.0,0.0,0.0,0.0,0.0,0.0,0.0,0.0,0.0,0.0,0.0,0.0,0.0,0.0,0.0,0.0,0.0,0.0,0.0,0.0,0.0,0.0,0.0,0.0,0.0,0.0,-1.3118,-1.7488,-2.068,-2.1451,-2.2317,-2.3008,-2.3517,-2.2607,-2.1255,-1.9519,-1.6958,0.0,0.0,0.0,0.0,0.0,0.0,0.0,0.0,0.0,0.0,0.0,0.0,0.0,0.0,0.0,0.0,0.0,0.0,0.0,0.0,0.0,0.0,0.0,0.0,0.0,0.0,0.0,0.0,0.0,0.0,0.0,0.0,0.0,0.0,0.0,0.0,0.0,0.0,0.0,0.0,0.0,0.0,0.0,0.0,0.0,0.0,0.0,0.0,0.0,0.0,0.0,0.0,0.0,-2.2175,-2.2302,-2.2427,-2.2442,-2.286,-2.3472,-2.2269,-2.2671,-2.3875,-1.9937,0.0,0.0,0.0,0.0,0.0,0.0,0.0,0.0,0.0,0.0,0.0,0.0,0.0,0.0,0.0,0.0,0.0,0.0,0.0,0.0,0.0,0.0,-1.5948,-1.5713,-1.6579,-1.6935,-1.5213,0.0,0.0,0.0,0.0,0.0,0.0,0.0,0.0,0.0,0.0,0.0,-1.3947,-1.7057,-1.9683,-2.099,-2.1339,-2.1819,-2.27,-2.2156,-2.154,-2.1003,-1.7728,-1.47,0.0,0.0,0.0,0.0,0.0,0.0,0.0,0.0,0.0,0.0,0.0,0.0,0.0,0.0,0.0,0.0,0.0,0.0,0.0,0.0,0.0,0.0,0.0,0.0,0.0,0.0,0.0,0.0,0.0,0.0,0.0,0.0,-1.6682,-1.7537,0.0,0.0,0.0,0.0,0.0,0.0,0.0,0.0,0.0,0.0,0.0,0.0,0.0,-2.0292,-2.1441,-2.3254,-2.4567,-2.5399,-2.6016,-2.6384,-2.6519,-2.6623,-2.6738,-2.6896,-2.7238,0.0,-2.2897,-2.2271,0.0,0.0,0.0,0.0,0.0,0.0,0.0,0.0,0.0,0.0,0.0,0.0,0.0,0.0,0.0,0.0,0.0,0.0,0.0,0.0,0.0,0.0,-1.9821,-1.9266,-1.9293,-1.9334,-1.9059,-1.5948,-1.2744,-1.124,-1.0868,-1.0087,0.0,0.0,0.0,0.0,0.0,0.0,-1.4308,-1.7645,-1.996,-2.0167,-2.1065,-2.1727,-2.1851,-2.1296,-2.048,-1.9274,-1.8168,-1.6188,-1.3057,-1.252,0.0,0.0,0.0,0.0,0.0,0.0,0.0,0.0,0.0,0.0,0.0,0.0,0.0,0.0,0.0,0.0,0.0,0.0,0.0,0.0,0.0,0.0,0.0,0.0,0.0,0.0,0.0,0.0,0.0,-1.5349,-1.6941,-1.7367,-1.6878,-1.5687,0.0,0.0,0.0,0.0,0.0,0.0,0.0,0.0,0.0,-2.1028,-2.2226,-2.3573,-2.5154,-2.6497,-2.7334,-2.7691,-2.7714,-2.7571,-2.7294,-2.7055,-2.6764,-2.6457,-2.7142,-2.6473,-2.4823,-2.4027,-2.2602,-2.0789,0.0,0.0,0.0,0.0,-1.7574,-1.7418,-1.8616,-1.8887,-1.8611,-1.8212,0.0,0.0,0.0,0.0,0.0,0.0,0.0,-1.4748,0.0,-1.7229,-1.9183,-1.969,-1.9561,-1.9338,-1.9338,-1.7597,-1.5516,-1.3803,-1.2987,-1.1572,-0.8503,-0.8875,0.0,0.0,0.0,-1.3864,-1.5342,-1.7751,-1.9547,-2.0377,-2.0917,-2.1342,-2.1649,-2.0783,-1.9956,-1.9397,-1.752,-1.57,-1.4063,-1.23,-1.0472,0.0,0.0,0.0,0.0,0.0,0.0,0.0,0.0,0.0,0.0,0.0,0.0,0.0,0.0,0.0,0.0,0.0,0.0,0.0,0.0,0.0,0.0,0.0,0.0,0.0,0.0,0.0,0.0,-1.6432,-1.7832,-1.7742,-1.7882,-1.6948,0.0,0.0,0.0,0.0,0.0,0.0,-1.9184,-2.0894,-2.252,-2.39,-2.5002,-2.6194,-2.752,-2.8174,-2.844,-2.8238,-2.7575,-2.6993,-2.6544,-2.6181,-2.5773,-2.539,-2.6048,-2.6437,-2.6531,-2.5635,-2.4979,-2.4317,-2.2087,-2.0931,-2.0579,-2.0987,-2.081,-2.0481,-2.1615,-2.1753,-2.1274,-2.0814,-2.0049,-1.9067,-1.7822,0.0,0.0,0.0,0.0,-1.644,-1.7668,-1.8489,-1.9212,-2.002,-1.9917,-1.9603,-1.9448,-1.8984,-1.7999,-1.6013,-1.4959,-1.3286,-0.9757,-1.0358,0.0,-1.0337,-1.2517,-1.4813,-1.64,-1.7847,-1.902,-1.9902,-2.0169,-2.0357,-2.0641,-1.9736,-1.9077,-1.8867,-1.6698,-1.5216,-1.4744,-1.2236,-1.0455,-0.9675,0.0,0.0,0.0,0.0,0.0,0.0,0.0,0.0,0.0,0.0,0.0,0.0,0.0,0.0,0.0,0.0,0.0,0.0,0.0,0.0,0.0,0.0,0.0,0.0,0.0,0.0,0.0,0.0,0.0,-2.0029,-2.1386,0.0,0.0,0.0,0.0,-1.7973,-2.098,-2.273,-2.2382,-2.4241,-2.5372,-2.549,-2.6894,-2.7368,-2.6759,-2.7061,-2.6842,-2.6165,-2.5084,-2.458,-2.4554,-2.4667,-2.4672,-2.4672,-2.5375,-2.6019,-2.6632,-2.7205,-2.6306,-2.4567,-2.4433,-2.3236,-2.1704,-2.2334,-2.2585,-2.257,-2.263,-2.2884,-2.2978,-2.1762,-2.005,-1.8551,-1.9038,-1.7769,0.0,0.0,-1.9473,-1.9974,-2.098,-2.1725,-2.202,-2.1513,-2.1373,-2.1234,-2.0706,-2.0152,-1.9017,-1.6608,-1.6103,-1.5208,-1.2457,0.0,-1.2513,-1.3588,-1.3918,-1.486,-1.7221,-1.8228,-1.8436,-1.7841,-1.8382,-1.8543,-1.7884,-1.7731,-1.7413,-1.6708,-1.6127,-1.5444,-1.4736,-1.2987,-1.1163,-0.9261,-0.778,0.0,0.0,0.0,0.0,0.0,0.0,0.0,0.0,0.0,0.0,0.0,0.0,0.0,0.0,0.0,0.0,0.0,0.0,0.0,0.0,0.0,0.0,0.0,0.0,0.0,0.0,0.0,0.0,-2.1261,-2.2554,0.0,-1.9561,-2.1296,-2.2413,-2.1937,-2.4515,-2.6085,-2.5941,-2.664,-2.6995,-2.6995,-2.6786,-2.6528,-2.6262,-2.5987,-2.5745,-2.5503,-2.4752,-2.4826,-2.5615,-2.4813,-2.4729,-2.5201,-2.5374,-2.5409,-2.542,-2.6497,-2.6782,-2.6464,-2.6006,-2.5383,-2.4771,-2.4553,-2.398,-2.3307,-2.331,-2.286,-2.2189,-2.1737,-2.1354,-2.1026,-2.0825,-2.0253,-1.983,-2.0577,-2.0856,-2.1049,-2.1385,-2.1648,-2.1746,-2.1536,-2.1493,-2.1343,-2.0844,-2.0555,-1.985,-1.8142,-1.7536,-1.6616,-1.4422,-1.4958,-1.5311,-1.4174,-1.4898,-1.5902,-1.6781,-1.7146,-1.7357,-1.7578,-1.7852,-1.7907,-1.7633,-1.7146,-1.6644,-1.6088,-1.4909,-1.4009,-1.3435,-1.1678,-1.0331,-0.9531,-0.8393,-0.6546,0.0,0.0,0.0,0.0,0.0,0.0,0.0,0.0,0.0,0.0,0.0,0.0,0.0,0.0,0.0,0.0,0.0,0.0,0.0,0.0,0.0,0.0,0.0,0.0,0.0,-2.1488,-2.3253,-2.2901,-2.449,-2.4629,-2.2093,-2.3994,-2.5309,-2.5129,-2.736,-2.8583,-2.8232,-2.8213,-2.8024,-2.7576,-2.6538,-2.6013,-2.6013,-2.5297,-2.5105,-2.5449,-2.4736,-2.4948,-2.591,-2.5037,-2.4842,-2.5113,-2.5087,-2.49,-2.4657,-2.557,-2.6437,-2.721,-2.6686,-2.6336,-2.6105,-2.5658,-2.4708,-2.3529,-2.3172,-2.2295,-2.139,-2.139,-2.1465,-2.1534,-2.1366,-2.1393,-2.1611,-2.1718,-2.1895,-2.2046,-2.2046,-2.2046,-2.2046,-2.2046,-2.2046,-2.1895,-2.1343,-2.1079,-2.0657,-1.9592,-1.8718,-1.7718,-1.6196,-1.6875,-1.7033,-1.5279,-1.5871,-1.643,-1.6329,-1.6444,-1.6595,-1.6856,-1.7079,-1.72,-1.7081,-1.6092,-1.5499,-1.5633,-1.358,-1.2398,-1.2348,-1.0073,-0.8748,-0.8668,-0.7538,-0.6191,-0.454,0.0,0.0,0.0,0.0,0.0,0.0,0.0,0.0,0.0,0.0,0.0,0.0,0.0,0.0,0.0,0.0,0.0,0.0,0.0,0.0,0.0,0.0,0.0,-2.1504,-2.3983,-2.5642,-2.5136,-2.7424,-2.8022,-2.5326,-2.7072,-2.8128,-2.7483,-2.9401,-3.0159,-2.9113,-2.9025,-2.8471,-2.7205,-2.6425,-2.603,-2.6013,-2.4934,-2.495,-2.5961,-2.4934,-2.4712,-2.5253,-2.5237,-2.495,-2.4502,-2.443,-2.4499,-2.4597,-2.4612,-2.5329,-2.6489,-2.6431,-2.5986,-2.5384,-2.5464,-2.4685,-2.3372,-2.2118,-2.1259,-2.0746,-2.0746,-2.0346,-1.9911,-2.0542,-2.1041,-2.1581,-2.2146,-2.2698,-2.3053,-2.3125,-2.3078,-2.3078,-2.3078,-2.3078,-2.2927,-2.2435,-2.1895,-2.1343,-2.0832,-1.9658,-1.8513,-1.7797,-1.7633,-1.7476,-1.7059,-1.6742,0.0,-1.5964,-1.62,-1.6197,-1.5449,-1.6016,-1.6314,-1.6056,-1.4467,-1.4014,-1.5085,-1.2182,-1.0792,-1.1488,-0.8438,-0.6724,-0.6652,-0.5262,-0.427,-0.3887,0.0,0.0,0.0,0.0,0.0,0.0,0.0,0.0,0.0,0.0,0.0,0.0,0.0,0.0,0.0,0.0,0.0,0.0,0.0,0.0,0.0,-2.1976,-2.3958,-2.4809,-2.7043,-2.8648,-2.873,-2.9923,-3.0222,-2.8863,-2.9826,-3.0451,-3.0215,-3.0753,-3.0942,-3.0603,-3.0091,-2.9411,-2.8505,-2.7387,-2.6541,-2.6013,-2.5335,-2.5144,-2.5411,-2.5144,-2.5532,-2.6547,-2.6008,-2.5982,-2.6324,-2.5368,-2.4782,-2.4438,-2.4536,-2.4486,-2.4409,-2.4831,-2.516,-2.5329,-2.4817,-2.3892,-2.2684,-2.1433,-2.0605,-2.0042,-2.0042,-1.9952,-1.9911,-2.0542,-2.0819,-2.1091,-2.2046,-2.2422,-2.2636,-2.3025,-2.3078,-2.3078,-2.3078,-2.3078,-2.2927,-2.2435,-2.2196,-2.1807,-2.0907,-2.042,-1.9957,-1.9328,-1.8768,-1.8174,-1.7508,-1.6903,-1.627,-1.5636,-1.5611,-1.5514,-1.499,-1.512,-1.506,-1.4648,-1.4154,-1.351,-1.264,-1.1785,-1.0861,-0.9994,-0.8226,-0.6863,-0.6019,-0.4853,-0.3889,0.0,0.0,0.0,0.0,0.0,0.0,0.0,0.0,0.0,0.0,0.0,0.0,0.0,0.0,0.0,0.0,0.0,0.0,0.0,0.0,0.0,0.0,-2.5404,-2.7507,-2.8773,-2.9966,-3.0812,-3.1176,-3.1623,-3.1715,-3.1256,-3.1495,-3.1646,-3.1612,-3.1553,-3.1498,-3.1452,-3.0289,-2.934,-2.8699,-2.735,-2.6442,-2.6013,-2.5449,-2.5556,-2.6278,-2.6091,-2.6651,-2.7864,-2.7097,-2.6889,-2.7031,-2.6015,-2.5221,-2.4728,-2.4602,-2.4446,0.0,0.0,0.0,0.0,0.0,-2.3263,-2.2707,-2.124,-2.0492,-2.0125,-1.9874,-1.9798,-1.9861,-2.02,-2.0476,-2.0857,-2.1443,-2.1958,-2.2385,-2.2711,-2.2902,-2.3078,-2.3078,-2.3078,-2.2977,-2.2723,-2.2472,-2.2058,-2.1179,-2.0586,0.0,-1.9457,-1.898,-1.8312,-1.7082,-1.6682,-1.6208,-1.5468,-1.5566,-1.5664,-1.5605,-1.5596,-1.5393,-1.4845,-1.4159,0.0,0.0,0.0,-0.9358,-0.7619,-0.6818,0.0,0.0,0.0,0.0,0.0,0.0,0.0,0.0,0.2171,0.2357,0.0,0.0,0.0,0.0,0.0,0.0,0.0,0.0,0.0,0.0,0.0,0.0,0.0,0.0,0.0,0.0,-2.9036,-3.1302,-3.2491,-3.2456,-3.2401,-3.269,-3.2742,-3.2742,-3.2742,-3.2411,-3.2166,-3.2155,-3.1978,-3.1861,-3.1808,0.0,0.0,0.0,0.0,-2.6366,-2.6201,-2.581,-2.636,-2.7789,-2.7461,-2.7898,-2.8958,-2.8264,-2.7643,-2.7143,-2.6409,-2.5807,-2.5259,-2.4672,-2.4766,-2.5323,-2.536,-2.4526,-2.321,-2.2604,-2.2795,-2.3027,-2.1453,0.0,0.0,-2.0087,-1.9936,-1.9974,-1.9849,-2.0213,-2.0731,-2.0794,-2.1468,-2.2246,-2.2372,-2.2761,-2.3078,-2.3078,-2.3078,-2.3078,-2.3078,-2.2749,-2.2221,-2.1606,-2.0514,-1.9428,-1.8714,-1.8501,-1.7909,-1.6245,-1.6221,-1.6171,-1.5537,-1.582,-1.6211,-1.6423,-1.6461,0.0,-1.5597,-1.4056,-1.2759,-1.1919,-0.9371,-0.7033,-0.527,-0.5014,-0.4694,-0.4195,-0.3413,-0.3365,-0.4177,0.2356,0.5787,0.626,0.5462,0.5272,0.0,0.0,0.0,0.0,0.0,0.0,0.0,0.0,0.0,0.0,0.0,0.0,0.0,0.0,0.0,-2.8402,-3.0026,-3.1419,-3.2868,-3.3304,-3.3515,-3.3568,-3.3568,-3.3568,-3.3568,-3.3515,-3.3332,-3.2979,-3.2592,-3.2196,-3.1825,-3.1138,-3.0458,-2.9774,-2.9471,-2.8693,-2.7464,-2.7981,-2.8101,-2.7806,0.0,0.0,-2.8975,-2.8822,-2.8364,-2.7631,-2.7101,-2.6484,-2.5779,-2.4776,-2.4529,-2.4732,-2.4646,-2.4082,-2.328,-2.3022,-2.2745,-2.2432,-2.2115,-2.1707,-2.1242,-2.0677,-2.0803,-2.0991,-2.0075,-2.0213,0.0,-2.1204,-2.1481,-2.1845,-2.2749,-2.299,-2.3078,-2.3078,-2.3078,-2.3078,-2.3078,-2.299,-2.2686,-2.1681,-2.0819,-1.9731,-1.8109,-1.7302,-1.6778,-1.6423,-1.5918,-1.5713,-1.5949,-1.6066,-1.584,-1.5175,-1.5122,-1.4562,-1.3282,-1.2054,-1.0949,-0.9921,-0.7707,-0.6133,-0.56,-0.5562,-0.5413,-0.5147,-0.4947,-0.2179,0.3295,0.5186,0.604,0.5839,0.4292,0.437,0.0,0.0,0.0,0.0,0.0,0.0,0.0,0.0,0.0,0.0,0.0,-2.3367,-2.5094,0.0,-2.8306,-3.0665,-3.1792,-3.2621,-3.3395,-3.368,-3.3807,-3.3807,-3.3807,-3.3807,-3.3807,-3.3807,-3.3707,-3.3522,-3.2872,-3.2417,-3.2161,-3.1202,-3.048,-3.0125,-2.9736,-2.9178,-2.8416,-2.8789,-2.8975,-2.8975,-2.9364,-2.9736,-3.0074,-2.9719,-2.933,-2.8887,-2.7894,-2.7234,-2.6778,-2.5388,-2.4673,-2.447,-2.4081,-2.392,-2.374,-2.2994,-2.2723,-2.2686,-2.241,-2.2133,-2.1807,-2.1255,-2.1267,-2.138,-2.0815,-2.084,-2.1142,-2.1405,-2.1681,-2.202,-2.2585,-2.2924,-2.3078,-2.3078,-2.2823,-2.2506,-2.2506,-2.2187,-2.1628,-2.0784,-2.0024,-1.9126,-1.7926,-1.7124,-1.6446,-1.5992,-1.5642,-1.5449,-1.5501,-1.5613,-1.5432,-1.4785,-1.4844,-1.442,-1.3237,-1.1192,-0.952,-0.844,-0.6807,-0.583,-0.5766,-0.5617,-0.4651,-0.2764,-0.0939,0.1959,0.5881,0.5949,0.599,0.606,0.5017,0.5122,0.0,0.0,0.0,0.0,0.0,0.0,0.0,-2.1262,-2.1943,-2.3428,-2.476,-2.6047,-2.7303,-2.9255,-3.1146,-3.2614,-3.3385,-3.3807,-3.3807,-3.3807,-3.3807,-3.3807,-3.3807,-3.3807,-3.3807,-3.3807,-3.378,-3.368,-3.2934,-3.2451,-3.2384,-3.1053,-3.0311,-3.0311,-2.9736,-2.9347,-2.9211,-2.9347,-2.9634,-3.0108,-3.026,-3.0632,-3.1173,-3.0581,-3.0243,-3.004,-2.8636,-2.7853,-2.7401,-2.6124,-2.5226,-2.4545,-2.3975,-2.4099,-2.4445,-2.3002,-2.2766,-2.3015,-2.2623,-2.2472,-2.2385,-2.1832,-2.1719,-2.1769,-2.1556,-2.1556,-2.1644,-2.1644,-2.197,-2.2276,-2.2259,-2.268,-2.3078,-2.2884,-2.2384,-2.1877,-2.1877,-2.1239,-2.0445,-1.989,-1.9165,-1.8459,-1.7874,-1.7066,-1.6162,-1.5463,-1.5358,-1.526,-1.4854,-1.4985,-1.491,-1.4539,-1.4657,-1.4175,-1.282,-1.0292,-0.8292,-0.7171,-0.6224,-0.5527,-0.5224,-0.5332,-0.3717,-0.0068,0.2854,0.4974,0.6191,0.5913,0.5967,0.6275,0.6143,0.6156,-2.2726,-2.2052,-2.1428,-2.1587,-2.2284,-2.3985,0.0,-2.7321,-2.6466,-2.8458,-2.8981,-2.942,-3.0636,-3.1678,-3.2632,-3.3532,-3.3733,-3.3807,-3.3807,-3.3807,-3.3807,-3.3807,-3.3807,-3.3807,-3.3807,-3.3807,-3.3652,-3.3302,-3.2777,-3.2316,-3.188,-3.1363,-3.1072,-3.1072,-3.0987,-3.0632,-2.9989,-3.0632,-3.0666,-3.0125,-3.0768,-3.1123,-3.119,-3.1106,-3.0717,-3.0057,-2.9228,-2.7902,-2.6422,-2.6887,-2.642,-2.5422,-2.479,-2.4897,-2.5194,-2.3755,-2.3148,-2.3065,-2.3002,-2.2977,-2.289,-2.2397,-2.2548,-2.2761,-2.1782,-2.1832,-2.2221,-2.2221,-2.2259,-2.2247,-2.1982,-2.2531,-2.2944,-2.2187,-2.1939,-2.1877,-2.1877,-2.1239,-2.0434,-1.9805,-1.9091,-1.8459,-1.7874,-1.6534,-1.5423,-1.5332,-1.5323,-1.5136,-1.458,-1.4388,-1.4144,-1.3833,-1.3415,-1.2107,-0.9395,-0.8174,-0.7037,-0.5853,-0.5759,-0.4915,-0.31,-0.459,-0.3685,-0.007,0.042,0.2335,0.5833,0.6117,0.6183,0.6037,0.6173,0.6314,-2.4911,-2.528,-2.5111,-2.4371,-2.5276,-2.6692,-2.8055,-2.8103,-2.8202,-2.9307,-2.9694,-2.9921,-3.0287,-3.141,-3.2438,-3.2766,-3.3369,-3.3807,-3.3807,-3.3807,-3.3807,-3.3807,-3.3807,-3.3807,-3.3807,-3.3578,-3.3361,-3.3214,-3.25,-3.2144,-3.2196,-3.1806,-3.1677,-3.1967,-3.1967,-3.1811,-3.1498,-3.1522,-3.1373,-3.1082,-3.1176,-3.119,-3.119,-3.119,-3.0548,-2.9431,-2.8779,-2.797,-2.7163,-2.6889,-2.6976,-2.7111,-2.6191,-2.6184,-2.6476,-2.5122,-2.4425,-2.4309,-2.4693,-2.431,-2.3602,-2.3376,-2.3226,-2.299,-2.2585,-2.2611,-2.2786,-2.2786,-2.2786,-2.2658,-2.2077,-2.2125,-2.2187,-2.1365,-2.0782,-2.0398,-2.0398,-1.9683,-1.8982,-1.8785,-1.8436,-1.8187,-1.7941,-1.6883,-1.5869,-1.5326,-1.4635,-1.3863,-1.3034,-1.2952,-1.2632,-1.1717,-1.0975,-0.9794,-0.7986,-0.7464,-0.6794,-0.5782,-0.558,-0.4663,-0.28,-0.2414,-0.1571,-0.0,-0.0,0.1378,0.4244,0.5501,0.6173,0.6166,0.623,0.6312,-2.5801,-2.6774,-2.7224,-2.6246,-2.7512,-2.8911,-2.8589,-2.8982,-2.9469,-2.9699,-2.9865,-2.9911,-2.9636,-3.0702,-3.1701,-3.205,-3.2802,-3.3424,-3.377,-3.3707,-3.368,-3.3807,-3.3707,-3.3634,-3.3634,-3.3361,-3.3214,-3.3214,-3.2466,-3.2127,-3.2484,-3.2161,-3.2127,-3.2484,-3.2484,-3.2484,-3.2484,-3.2161,-3.1986,-3.2004,-3.1582,-3.1389,-3.1334,-3.1048,-3.0192,-2.8991,-2.8561,-2.8141,-2.7656,-2.7165,-2.755,-2.8369,-2.7519,-2.7521,-2.7952,-2.7181,-2.6396,-2.5728,-2.5985,-2.5454,-2.4571,-2.4116,-2.3725,-2.3365,-2.3198,-2.3078,-2.3065,-2.2823,-2.2763,-2.2506,-2.1491,-2.1365,-2.1302,-2.0462,-1.9748,-1.9299,-1.9299,-1.8586,-1.8008,-1.8008,-1.7794,-1.7579,-1.7579,-1.6645,-1.5545,-1.482,-1.3739,-1.2706,-1.1955,-1.1717,-1.1089,-0.9672,-0.8821,-0.8033,-0.728,-0.6929,-0.6475,-0.5788,-0.5578,-0.4901,-0.3507,-0.1193,-0.0,-0.0,0.1118,0.2157,0.3123,0.5109,0.6186,0.6329,0.6329,0.6334,-2.5435,-2.5742,-2.6696,-2.6898,-2.8745,-3.0803,-3.1808,-3.1467,-3.0866,-3.0615,-3.0257,-2.9911,-2.9636,-3.0009,-3.0743,-3.1903,-3.2133,-3.2536,-3.3625,-3.3447,-3.3361,-3.3734,-3.3465,-3.3214,-3.3214,-3.3214,-3.3214,-3.3214,-3.2745,-3.2484,-3.2484,-3.2484,-3.2484,-3.2484,-3.2484,-3.2484,-3.2484,-3.2484,-3.2484,-3.2484,-3.2004,-3.1789,-3.1718,-3.0657,-2.9719,-2.9025,-2.9131,-2.8437,-2.7296,-2.8077,-2.8507,-2.8562,-2.8547,-2.8951,-2.9609,-3.0138,-2.9058,-2.7124,-2.635,-2.6215,-2.6065,-2.4523,-2.4137,-2.4118,-2.3365,-2.3078,-2.2944,-2.2137,-2.1939,-2.1553,-1.9814,-2.0009,-2.0398,-1.9562,-1.9299,-1.9299,-1.9299,-1.8586,-1.8008,-1.8008,-1.7285,-1.6636,-1.6636,-1.5084,-1.3705,-1.3389,-1.2558,-1.1908,-1.1901,-1.0874,-0.9622,-0.8223,-0.761,-0.721,-0.6958,-0.6272,-0.5795,-0.5738,-0.5757,-0.5676,-0.5352,-0.1915,-0.0,-0.0,0.3993,0.514,0.312,0.524,0.627,0.6334,0.6334,0.6335,-2.7975,-2.9045,-3.0073,-3.016,-3.1206,-3.1964,-3.1076,-3.0796,-3.0423,-2.936,-2.9256,-2.9237,-2.8863,-2.9358,-3.0129,-3.1014,-3.1678,-3.2415,-3.3281,-3.3273,-3.3332,-3.3734,-3.3166,-3.2965,-3.355,-3.3361,-3.3075,-3.2745,-3.2583,-3.2648,-3.2952,-3.2983,-3.3075,-3.3343,-3.3343,-3.3343,-3.3343,-3.3105,-3.2809,-3.2484,-3.175,-3.1411,-3.1338,-2.998,-2.9211,-2.8991,-2.8611,-2.8192,-2.783,-2.8311,-2.9057,-2.9819,-2.9415,-2.9924,-3.0911,-3.1106,-3.073,-2.9988,-2.9188,-2.7933,-2.6591,-2.5677,-2.4813,-2.3994,-2.3311,-2.3078,-2.2944,-2.2137,-2.1877,-2.1491,-1.9759,-1.9497,-1.9497,-1.8654,-1.8462,-1.8462,-1.8462,-1.8202,-1.7794,-1.7217,-1.6853,-1.6419,-1.579,-1.4593,-1.3425,-1.2544,-1.1333,-1.0575,-1.0575,-0.9162,-0.7939,-0.7458,-0.6722,-0.6275,-0.6149,-0.6009,-0.5949,-0.588,-0.4555,-0.4442,-0.5904,-0.214,-0.0,-0.0,0.1399,0.3263,0.551,0.6015,0.6371,0.6486,0.4894,0.3352,-2.9358,-3.0359,-3.1075,-3.1672,-3.1898,-3.1686,-3.0478,-3.0116,-2.9732,-2.8612,-2.8522,-2.8476,-2.8094,-2.8523,-2.9334,-3.0508,-3.1449,-3.2375,-3.343,-3.3458,-3.3412,-3.3559,-3.2934,-3.2631,-3.3039,-3.2996,-3.2934,-3.2965,-3.284,-3.2934,-3.339,-3.3419,-3.3522,-3.3788,-3.3807,-3.3807,-3.3807,-3.339,-3.2872,-3.223,-3.1677,-3.1351,-3.114,-2.9651,-2.9011,-2.8958,-2.8063,-2.7818,-2.8084,-2.8122,-2.8912,-3.0068,-2.9492,-2.9894,-3.078,-3.0508,-3.0378,-3.0293,-2.9731,-2.8638,-2.7176,-2.5827,-2.4787,-2.3981,-2.3299,-2.3078,-2.2884,-2.1741,-2.1428,-2.1037,-1.9299,-1.8854,-1.8721,-1.8144,-1.8008,-1.8008,-1.8008,-1.7725,-1.7285,-1.6706,-1.607,-1.5367,-1.4736,-1.3882,-1.2809,-1.1676,-1.0479,-0.9658,-0.948,-0.8061,-0.7007,-0.6655,-0.6208,-0.5884,-0.5888,-0.603,-0.6133,-0.6112,-0.4811,-0.4028,-0.4045,-0.1465,-0.0,-0.0,-0.0,0.1427,0.4283,0.573,0.6441,0.6398,0.3306,0.0171,-2.9603,-2.9878,-3.0015,-3.1507,-3.1094,-3.032,-3.0265,-2.9677,-2.8997,-2.8489,-2.8165,-2.78,-2.7261,-2.7503,-2.8388,-3.0249,-3.1236,-3.2337,-3.3988,-3.385,-3.3499,-3.3226,-3.2745,-3.2316,-3.1897,-3.2213,-3.284,-3.3707,0.0,-3.3379,-3.378,-3.3807,-3.3807,-3.3807,-3.3807,-3.3807,-3.3807,-3.3361,-3.2677,-3.1756,-3.1719,-3.1479,-3.1038,-2.9634,-2.9011,-2.8941,-2.7632,-2.7465,-2.8132,-2.7674,-2.8278,-2.9435,-2.877,-2.8943,-2.9456,-2.865,-2.8339,-2.8312,-2.8116,-2.8172,-2.7826,-2.4984,-2.4137,-2.4105,-2.328,-2.3015,-2.2676,-2.1055,-2.0621,-2.0171,-1.8519,-1.8008,-1.8008,-1.8008,-1.8008,-1.8008,-1.8008,-1.7285,-1.6567,-1.6585,-1.4982,-1.3652,-1.3652,-1.2914,-1.1942,-1.0956,-0.9976,-0.9145,-0.8644,-0.7673,-0.6757,-0.5906,-0.5959,-0.6051,-0.5992,-0.6126,-0.6179,-0.6312,-0.6344,-0.4473,-0.0179,-0.0,-0.0,-0.0,-0.0,-0.0,-0.0,0.4298,0.6248,0.5852,0.1386,-0.3071,-3.0765,-3.2279,-3.3275,-3.3051,-3.2478,-3.1843,-3.1219,-3.0944,-3.0264,-2.8461,-2.8454,-2.8071,-2.5665,-2.6622,-2.7978,-2.8475,-3.0212,-3.185,-3.2844,-3.3144,-3.3278,-3.3202,-3.2466,-3.2057,-3.2316,-3.2092,-3.2366,-3.3273,-3.3273,-3.3379,-3.378,-3.3807,-3.3807,-3.3807,-3.3807,-3.3807,-3.3807,-3.3057,-3.2117,-3.0959,-3.0685,-3.017,-2.9533,-2.9144,-2.9011,-2.9008,-2.9198,-2.9165,-2.8911,-2.889,-2.9108,-2.9385,-2.8254,-2.8167,-2.8579,-2.7867,-2.7563,-2.7404,-2.6348,-2.6277,-2.6499,-2.5308,-2.4219,-2.3289,-2.2707,-2.2234,-2.1753,-2.1104,-2.0476,-1.9805,-1.9149,-1.8462,-1.8008,-1.8008,-1.8008,-1.8008,-1.8008,-1.7285,-1.6438,-1.5935,-1.4456,-1.3361,-1.3361,-1.2939,-1.2322,-1.1242,-1.009,-0.8954,-0.8098,-0.7116,-0.6489,-0.6366,-0.6251,-0.6261,-0.6458,-0.4885,-0.461,-0.6188,-0.6648,-0.4779,-0.0175,-0.0,-0.0,-0.0,-0.0,-0.0,-0.0,0.1146,0.1679,0.1503,-0.3195,-0.6605,-3.1859,-3.3429,-3.4581,-3.4091,-3.3268,-3.2302,-3.1146,-3.0595,-2.9625,-2.7107,-2.7095,-2.675,-2.4185,-2.5959,-2.7789,-2.7789,-3.0039,-3.2074,-3.2892,-3.3064,-3.3072,-3.2925,-3.223,-3.1825,-3.1914,-3.1677,-3.1842,-3.2533,-3.2983,-3.3379,-3.378,-3.3807,-3.3807,-3.3807,-3.3807,-3.3606,-3.3225,-3.242,-3.1494,-3.0413,-3.0224,-2.9888,-2.9482,-2.9482,-2.9482,-2.9482,0.0,-2.938,-2.9592,-2.9157,-2.9186,-2.9385,-2.8027,-2.7544,-2.7422,-2.6378,-2.5972,-2.5815,-2.4668,-2.4499,-2.4719,-2.4382,-2.3548,-2.2711,-2.2397,-2.1933,-2.1306,-2.0405,-2.0136,-1.9852,-1.8982,-1.8616,-1.8525,-1.833,-1.8281,-1.8232,-1.8047,-1.7,-1.5855,-1.4758,-1.3853,-1.3213,-1.3213,-1.2654,-1.1907,-1.0796,-0.9582,-0.8492,-0.7474,-0.6785,-0.641,-0.6556,-0.6458,-0.6086,-0.5106,-0.4748,-0.4996,-0.6222,-0.6773,-0.5004,-0.0174,-0.0,-0.0,-0.0,-0.2066,-0.2064,-0.0,-0.0,-0.1074,-0.3218,-0.5838,-0.7993,-3.2718,-3.3805,-3.4734,-3.4694,-3.3738,-3.239,-3.0723,-2.9751,-2.8338,-2.5407,-2.5015,-2.4627,-2.273,-2.5132,-2.7402,-2.7468,-3.0099,-3.2402,-3.3248,-3.3106,-3.2806,-3.2454,-3.2057,-3.1623,-3.123,-3.119,-3.1389,-3.1789,-3.2598,-3.3302,-3.3707,-3.3762,-3.3807,-3.3807,-3.3807,-3.3317,-3.2358,-3.1717,-3.0921,-2.9956,-2.9956,-2.9956,-2.9973,-3.0074,-3.0108,-3.0036,-2.8876,-2.9058,-3.014,-2.8904,-2.8804,-2.9231,-2.7774,-2.6877,-2.6176,-2.4681,-2.4118,-2.406,-2.3365,-2.3078,-2.3078,-2.3078,-2.2711,-2.2196,-2.2196,-2.17,-2.0865,-1.9529,-1.9655,-1.9857,-1.8509,-1.8713,-1.918,-1.874,-1.8492,-1.8305,-1.788,-1.6572,-1.5059,-1.3509,-1.33,-1.3327,-1.3327,-1.2302,-1.1209,-1.0146,-0.8991,-0.7851,-0.6892,-0.6597,-0.6563,-0.6715,-0.6695,-0.5716,-0.3509,-0.4906,-0.5949,-0.5909,-0.6636,-0.5206,-0.1125,-0.0619,-0.0448,-0.0449,-0.4495,-0.4766,-0.0898,-0.0627,-0.2774,-0.7128,-0.7286,-0.8239,-3.2852,-3.3934,-3.4981,-3.4773,-3.4308,-3.3443,-3.1605,-3.0577,-2.9015,-2.5602,-2.4247,-2.3071,-2.1153,-2.3136,-2.5253,-2.5896,-2.8785,-3.1252,-3.2001,-3.2371,-3.2422,-3.1968,-3.1861,-3.1623,-3.123,-3.119,-3.1389,-3.1789,-3.2298,-3.2809,-3.3273,-3.3606,-3.3807,-3.3807,-3.3807,-3.3092,-3.1625,-3.1466,-3.0658,-2.9178,-2.9178,-2.9178,-2.9194,-2.982,-3.0108,-3.0087,-2.9995,0.0,-3.0166,-2.8996,-2.8541,-2.8488,-2.6504,-2.5716,-2.5398,-2.3872,-2.3305,-2.3305,-2.3138,-2.3078,-2.3078,-2.3078,-2.2447,-2.1631,-2.1631,-2.0508,-1.9246,-1.9479,-1.9153,-1.888,-1.9007,-1.9183,-1.918,-1.874,-1.7986,-1.7358,-1.6945,-1.5748,-1.4506,-1.3662,-1.3768,-1.3935,-1.3935,-1.2787,-1.1464,-1.0466,-0.9078,-0.7895,-0.6956,-0.6756,-0.6719,-0.6871,-0.6766,-0.6136,-0.4607,-0.4195,-0.4072,-0.4089,-0.5729,-0.6516,-0.5918,-0.398,-0.2946,-0.2948,-0.3753,-0.4746,-0.5836,-0.3933,-0.438,-0.7094,-0.85,-0.9533,-3.2795,-3.3657,-3.4482,-3.4641,-3.4464,-3.3496,-3.0759,-2.9531,-2.7852,-2.4069,-2.2635,-2.1649,-2.0263,-2.2167,-2.4154,-2.4898,-2.7709,-3.0159,-3.1079,-3.1546,-3.1823,-3.1789,-3.164,-3.1507,-3.1507,-3.1507,-3.1603,-3.1789,-3.1895,-3.2317,-3.3148,-3.3578,-3.3807,-3.3807,-3.3385,-3.2601,-3.1412,-3.0973,-3.0171,-2.9011,-2.9381,-2.9567,-2.96,-3.0345,-3.0494,-3.0216,-2.9933,-2.9839,-2.9812,-2.8907,-2.854,-2.8425,-2.7025,-2.6297,-2.5783,-2.4266,-2.3708,-2.3649,-2.3258,-2.3078,-2.3078,-2.3078,-2.2585,-2.192,-2.192,-2.0802,-1.9471,-1.939,-1.9291,-1.9116,-1.9005,-1.9481,-1.9684,-1.8722,-1.7474,-1.6377,-1.5684,-1.5165,-1.4692,-1.398,-1.3988,-1.3906,-1.3288,-1.2064,-1.0874,-0.9771,-0.85,-0.7465,-0.7027,-0.6987,-0.697,-0.7034,-0.7008,-0.6691,-0.6058,-0.5614,-0.5379,-0.5282,-0.6266,-0.6877,-0.6963,-0.5934,-0.5455,-0.546,-0.5458,-0.6002,-0.7101,-0.6,-0.5997,-0.7173,-0.8761,-0.9878,-3.2679,-3.3379,-3.4034,-3.4624,-3.4532,-3.3384,-2.988,-2.829,-2.6447,-2.2592,-2.1076,-2.0324,-2.0078,-2.1616,-2.3338,-2.4632,-2.7046,-2.917,-3.0402,-3.0933,-3.1329,-3.1623,-3.147,-3.1449,-3.1789,-3.188,-3.1899,-3.1725,-3.1447,-3.1768,-3.2895,-3.3103,-3.3286,-3.355,-3.2682,-3.1882,-3.1164,-3.0437,-2.9793,-2.9228,-2.982,-3.0192,-3.0362,-3.0802,-3.074,-3.0251,-2.9364,-2.9029,-2.902,-2.8248,-2.8038,-2.8106,-2.738,-2.6827,-2.6336,-2.4851,-2.4292,-2.4176,-2.3365,-2.3153,-2.3314,-2.3314,-2.2862,-2.2309,-2.2309,-2.1192,-1.982,-1.929,-1.9287,-1.9381,-1.8773,-1.959,-2.013,-1.8374,-1.6808,-1.5496,-1.458,-1.4569,-1.4607,-1.4189,-1.4088,-1.3737,-1.2498,-1.1381,-1.0178,-0.9065,-0.7841,-0.7143,-0.7058,-0.7074,-0.6986,-0.6605,-0.6877,-0.7083,-0.708,-0.7073,-0.7172,-0.7231,-0.7182,-0.7163,-0.7242,-0.719,-0.7081,-0.7091,-0.7081,-0.7081,-0.7091,-0.7081,-0.7078,-0.7166,-0.8924,-1.0043,-3.2679,-3.3513,-3.4304,-3.4912,-3.487,-3.3727,-3.0165,-2.8003,-2.5786,-2.2482,-2.021,-1.9282,-2.0872,-2.1289,-2.2388,-2.5446,-2.7044,-2.8433,-2.9926,-3.0772,-3.123,-3.1252,-3.1528,-3.1752,-3.1789,-3.2213,-3.2117,-3.1411,-3.1041,-3.125,-3.2141,-3.1554,-3.1638,-3.268,-3.1628,-3.0833,-3.0322,-2.9887,-2.9765,-3.0006,-3.0074,-3.0446,-3.1089,-3.0584,-3.0335,-3.0218,-2.8437,-2.7673,0.0,-2.6393,-2.6228,-2.6718,-2.5959,-2.6035,-2.6336,-2.4851,-2.4292,-2.4176,-2.3365,-2.3477,-2.3916,-2.3916,-2.3188,-2.2309,-2.2309,-2.083,-1.9171,-1.9112,-1.891,-1.8703,-1.8633,-1.959,-1.9965,-1.757,-1.588,-1.4572,-1.3858,-1.3702,-1.381,-1.4028,-1.4088,-1.3737,-1.2498,-1.1381,-1.0178,-0.9065,-0.7841,-0.7058,-0.7081,-0.7084,-0.6539,-0.5176,-0.6251,-0.7058,-0.7126,-0.7112,-0.7541,-0.8669,-0.7727,-0.7559,-0.8694,-0.7661,-0.7143,-0.7058,-0.7143,-0.7143,-0.7058,-0.7143,-0.7143,-0.7143,-0.9401,-1.0529,-3.2679,-3.3545,-3.4304,-3.4754,-3.4377,-3.3087,-2.9903,-2.7472,-2.5089,-2.2372,-2.0227,-1.9345,-2.1002,-2.0631,-2.124,-2.4844,-2.5658,-2.6336,-2.7841,-2.911,-2.9949,-3.0226,-3.0766,-3.1533,-3.2545,-3.2809,-3.2402,-3.1148,-3.0237,-3.0188,-3.1317,-3.1738,-3.2202,-3.2871,-3.2014,-3.1433,-3.1235,-3.0543,-3.0176,-3.0125,-3.0548,-3.092,-3.119,-3.0576,-3.0123,-2.9669,-2.8149,-2.7503,0.0,-2.6129,-2.6004,-2.6538,-2.5785,-2.5675,-2.574,-2.4703,-2.4292,-2.4229,-2.3771,-2.3405,-2.3171,-2.3486,-2.2905,-2.2151,-2.2751,-2.1946,-2.074,-2.016,-1.9694,-1.9404,-1.9404,-1.8963,-1.8285,-1.7178,-1.5576,-1.4192,-1.3736,-1.3781,-1.3948,-1.4062,-1.4088,-1.3476,-1.1558,-1.0864,-1.0005,-0.8101,-0.7401,-0.7061,-0.7081,-0.6266,-0.545,-0.4907,-0.6174,-0.7078,-0.7143,-0.7753,-0.8364,-0.889,-0.9056,-0.9139,-0.889,-0.8452,-0.7841,-0.7139,-0.7139,-0.7139,-0.7139,-0.7841,-0.8189,-0.8277,-1.0519,-1.1638,-3.2929,-3.3718,-3.4304,-3.4698,-3.4093,-3.2635,-2.9786,-2.7193,-2.4723,-2.2299,-2.0245,-1.9399,-2.1133,-2.0382,-2.0746,-2.4527,-2.4979,-2.5406,-2.7131,-2.8387,-2.9315,-2.9833,-3.0381,-3.1282,-3.2721,-3.2741,-3.22,-3.1138,-2.9998,-2.9699,-3.0477,-3.1738,-3.2647,-3.3087,-3.212,-3.178,-3.2187,-3.1263,-3.0765,-3.0751,-3.1055,-3.1112,-3.0918,-3.0104,-2.9507,-2.9025,-2.7379,-2.6761,0.0,-2.5555,-2.5312,-2.5686,-2.5168,-2.497,-2.4892,-2.4227,-2.4015,-2.3992,-2.3783,-2.349,-2.3207,-2.3292,-2.3084,-2.2844,-2.2902,-2.2271,-2.1424,-2.0815,-2.0222,-1.9866,-1.9678,-1.8504,-1.7187,-1.6677,-1.5293,-1.4028,-1.3821,-1.3941,-1.4088,-1.4088,-1.4088,-1.3385,-1.0956,-1.0611,-0.9831,-0.7489,-0.7139,-0.7061,-0.7081,-0.5722,-0.5171,-0.6062,-0.7149,-0.7782,-0.7669,-0.8452,-0.9148,-0.9836,-1.0351,-1.0351,-0.9923,-0.9579,-0.8969,-0.8185,-0.7837,-0.7837,-0.8093,-0.8623,-0.9065,-0.9405,-1.1386,-1.2705,-3.3506,-3.418,-3.4332,-3.4945,-3.4243,-3.2694,-3.0018,-2.732,-2.4723,-2.2299,-2.0102,-1.9271,-2.1404,-2.0802,-2.1208,-2.4884,-2.5557,-2.6387,-2.8636,-2.9299,-2.9765,-3.0508,-3.0707,-3.1106,-3.1928,-3.1654,-3.1403,-3.1403,-3.065,0.0,-2.9638,-3.1117,-3.2342,-3.3087,-3.1491,-3.1355,-3.2873,-3.1764,-3.1546,-3.2297,-3.1546,-3.0878,-3.0276,-2.9,-2.8453,-2.8355,-2.5758,-2.5016,0.0,-2.4178,-2.3688,-2.3706,-2.3706,-2.3743,-2.3682,-2.35,-2.3395,-2.3362,-2.3175,-2.3816,-2.4601,-2.3622,-2.4056,-2.4624,-2.2606,-2.1387,-2.0603,-2.0603,-2.0222,-1.9782,-1.9164,-1.8149,-1.7009,-1.5944,-1.4894,-1.4088,-1.4082,-1.4082,-1.4088,-1.4088,-1.4088,-1.3385,-1.0956,-1.0611,-0.9831,-0.7489,-0.7139,-0.7061,-0.7081,-0.5722,-0.5974,-0.9108,-0.9468,-0.9279,-0.8894,-0.889,-0.9836,-1.2151,-1.1209,-1.1123,-1.2237,-1.1209,-1.0611,-1.0524,-0.9492,-0.9405,-1.0524,-0.9405,-0.9492,-1.0611,-1.1724,-1.3651,-3.0293,-3.1188,-3.1884,-3.1336,-3.0528,-2.9438,-2.7837,-2.5554,-2.3382,-2.2078,-2.0346,-1.964,-2.1456,-2.0704,-2.122,-2.5543,-2.5471,-2.5625,-2.7875,-2.8991,-2.9776,-3.0346,-3.1845,-3.2967,-3.3223,-3.2609,-3.2228,-3.2228,-3.1476,-3.1086,-3.1235,-3.141,-3.1721,-3.2196,-3.1707,-3.178,-3.2497,-3.1625,-3.1309,-3.1546,-3.1799,-3.1314,-3.0174,-2.9924,-2.9313,-2.8284,-2.6671,-2.6093,-2.6168,-2.4393,-2.42,-2.4835,-2.3372,-2.3371,-2.4079,-2.3436,-2.2961,-2.2821,-2.389,-2.3377,-2.2315,-2.3142,-2.2758,-2.1897,-2.1231,-2.1247,-2.1459,-2.0818,-2.0473,-2.0149,-1.9246,-1.8149,-1.7009,-1.5944,-1.4894,-1.4088,-1.4088,-1.4088,-1.4088,-1.4088,-1.4088,-1.3561,-1.2072,-1.1128,-1.0091,-0.8536,-0.8364,-0.8025,-0.717,-0.8097,-0.896,-0.9459,-0.996,-1.0197,-1.0096,-1.0783,-1.1552,-1.2237,-1.2772,-1.2772,-1.2328,-1.198,-1.1386,-1.0611,-1.0265,-1.0269,-1.0611,-1.1042,-1.1821,-1.3039,-1.3385,-1.4045,-2.8364,-2.955,-3.0371,-2.9588,-2.8801,-2.7829,-2.6456,-2.452,-2.2685,-2.1547,-2.0179,-1.96,-2.0967,-2.0292,-2.0758,-2.4524,-2.4666,-2.521,-2.7708,-2.894,-2.9875,-3.0625,-3.2265,-3.3476,-3.377,-3.3348,-3.3183,-3.3468,-3.2876,-3.2516,-3.2599,-3.2201,-3.1969,-3.1974,-3.1994,-3.2217,-3.2696,-3.1968,-3.1613,-3.1613,-3.1782,-3.1297,-3.0145,-2.9876,-2.9236,-2.8273,-2.657,-2.5943,0.0,-2.4115,-2.3621,-2.3963,-2.26,-2.2472,-2.299,-2.2872,-2.2611,-2.2426,-2.3368,-2.2822,-2.1754,-2.2253,-2.1616,-2.0566,-2.0566,-2.1011,-2.1375,-2.0789,-2.0566,-2.0323,-1.9283,-1.8149,-1.7009,-1.5944,-1.4894,-1.4088,-1.4088,-1.4088,-1.4088,-1.4088,-1.4088,-1.3737,-1.2498,-1.1724,-1.0869,-0.9753,-0.9579,-0.9235,-0.8552,-0.9666,-1.0621,-1.0564,-1.0971,-1.1472,-1.1912,-1.2157,-1.2504,-1.2942,-1.3646,-1.373,-1.3027,-1.2504,-1.1986,-1.13,-1.0783,-1.0783,-1.1209,-1.2419,-1.3379,-1.4088,-1.4088,-1.4242,0.0,-2.8701,-2.9334,-2.9026,-2.839,-2.7363,-2.5628,-2.3969,0.0,-2.0814,-1.9697,-1.929,-2.0246,-1.9876,-2.024,-2.2721,-2.3727,-2.5264,-2.8265,-2.9372,-3.0331,-3.1598,-3.2357,-3.3128,-3.3972,-3.4009,-3.4257,-3.4981,-3.4619,-3.4175,-3.367,-3.3277,-3.2844,-3.2313,-3.2364,-3.2645,-3.3237,-3.2544,-3.2205,-3.2188,-3.1523,-3.0855,-3.0194,-2.8979,-2.8379,0.0,-2.5658,-2.4855,-2.5206,-2.3376,-2.2268,-2.1719,-2.1629,-2.1301,-2.1012,-2.197,-2.2347,-2.228,-2.2116,-2.2285,-2.2297,-2.0957,-2.0515,-2.0527,-2.0557,-2.0566,-2.0566,-2.0566,-2.0566,-2.0323,-1.9283,-1.823,-1.709,-1.5944,-1.4977,-1.4166,-1.4088,-1.4088,-1.4088,-1.4088,-1.4088,-1.373,-1.2589,-1.2328,-1.1895,-1.0783,-1.0611,-1.0524,-1.0351,-1.0524,-1.1042,-1.2072,-1.2237,-1.2766,-1.3997,-1.3033,-1.2942,-1.4004,-1.3997,-1.3997,-1.3997,-1.2851,-1.2157,-1.2157,-1.1209,-1.1295,-1.2413,-1.3555,-1.4088,-1.3997,-1.3997,-1.4064,-2.2154,0.0,-2.5356,-2.4672,-2.4358,-2.41,0.0,-2.2155,-2.0789,-2.0543,-1.9697,-1.9759,-2.2273,-2.1483,-2.1984,-2.6694,-2.6657,-2.7152,-3.0194,-3.1625,-3.3052,-3.4935,-3.4743,-3.5018,-3.6486,-3.6064,-3.5637,-3.5385,-3.5291,-3.4847,-3.4022,-3.3887,-3.3355,-3.233,-3.2848,-3.2679,-3.1732,-3.1546,-3.1444,-3.1461,-3.1375,-3.0709,-2.9428,-2.8841,-2.7659,-2.6103,-2.5535,-2.481,-2.3989,-2.2999,-2.28,-2.3022,-2.191,-2.2018,-2.2802,-2.285,-2.2673,-2.2401,-2.3194,-2.2357,-2.0818,-2.0247,-2.0043,-2.0127,-2.0469,-2.0566,-2.0566,-2.0566,-2.0566,-2.0323,-1.9283,-1.8798,-1.8141,-1.6191,-1.5538,-1.5137,-1.425,-1.4088,-1.4088,-1.4088,-1.4088,-1.3997,-1.373,-1.2936,-1.1895,-1.0783,-1.0611,-0.9918,-0.8185,-0.9483,-1.0697,-1.095,-1.1809,-1.2766,-1.3997,-1.3822,-1.3822,-1.4088,-1.3203,-1.2681,-1.2681,-1.1643,-1.1037,-1.1037,-1.1552,-1.251,-1.3646,-1.3997,-1.3646,-1.2681,-1.2681,-1.2475,-1.995,-2.2024,-2.4098,-2.3657,-2.3547,-2.3456,-2.3088,-2.1624,-2.0259,-1.9991,-1.9525,-1.9666,-2.1432,-2.1507,-2.2482,-2.6104,-2.7021,-2.8623,-3.2457,-3.4238,-3.5604,-3.6743,-3.6431,-3.6505,0.0,-3.6876,-3.6513,-3.6594,-3.6185,-3.5694,-3.5186,-3.4593,-3.3987,-3.3347,-3.3372,-3.2848,-3.1698,-3.1698,-3.1561,-3.1282,-3.1023,-3.033,-2.928,-2.8777,-2.7762,-2.6284,-2.571,-2.4702,-2.3447,-2.2481,-2.2322,-2.255,-2.1814,-2.2089,-2.291,-2.3043,-2.2949,-2.2714,-2.2948,-2.1801,-2.0154,-2.0237,-2.0118,-2.0,-2.0439,-2.0566,-2.0566,-2.0566,-2.0566,-2.0489,-1.9844,-1.9362,-1.8718,-1.7488,-1.6429,-1.5703,-1.5553,-1.4817,-1.425,-1.4734,-1.4412,-1.4088,-1.4088,-1.3555,-1.2766,-1.1552,-1.1381,-1.0692,-0.8965,-1.026,-1.1381,-1.1381,-1.2425,-1.3379,-1.3997,-1.4088,-1.4088,-1.4088,-1.2942,-1.2328,-1.2328,-1.0697,-0.9836,-0.9836,-1.0438,-1.13,-1.2516,-1.2516,-1.2169,-1.1552,-1.1552,-1.1337,-1.9748,-2.2079,-2.4281,-2.3933,-2.4025,-2.3988,-2.318,-2.1769,-2.0451,-1.9803,-1.9609,-1.9792,-2.059,-2.1572,-2.2951,-2.5049,-2.7341,-3.025,-3.4154,-3.5999,-3.7103,-3.747,-3.7397,0.0,-3.7729,-3.7207,-3.7122,-3.7631,-3.6865,-3.6374,-3.6266,-3.5241,-3.4607,-3.4489,-3.3998,-3.3322,-3.2459,-3.2341,-3.1993,-3.1391,-3.0553,-2.9848,-2.9225,-2.8529,-2.778,-2.6893,0.0,0.0,-2.3132,-2.2076,-2.1606,-2.1606,-2.1606,-2.1895,-2.2372,-2.2924,-2.3078,-2.3005,-2.2199,-2.1126,-2.0105,-2.0445,-2.0298,-2.0068,-2.0434,-2.0631,-2.07,-2.0624,-2.0566,-2.0566,-2.0566,-1.9923,-1.9204,-1.9036,-1.7568,-1.6437,-1.7172,-1.5876,-1.4817,-1.5786,-1.5061,-1.4328,-1.4328,-1.4166,-1.3646,-1.2242,-1.2072,-1.1552,-1.0265,-1.1037,-1.1809,-1.198,-1.3118,-1.3906,-1.4088,-1.3913,-1.3822,-1.3822,-1.2681,-1.1895,-1.1547,-0.9662,-0.8715,-0.889,-0.889,-0.9497,-1.0611,-1.0611,-1.0524,-1.0351,-1.0361,-1.0392,-2.1859,-2.3786,-2.4742,-2.2684,-2.318,-2.3988,-2.318,-2.21,-2.128,-2.1384,-2.1005,-2.1643,-2.4848,-2.4662,-2.5614,-3.0419,-3.2162,-3.3022,-3.3422,-3.398,-3.5147,-3.7268,-3.689,-3.7119,-3.8715,-3.8144,-3.7399,-3.6666,-3.6498,-3.6224,-3.5739,-3.5548,-3.5165,-3.4506,-3.5013,-3.4624,-3.3237,-3.2594,-3.1993,-3.1374,-3.0129,-2.9225,-2.8575,-2.7415,-2.6182,-2.4941,0.0,-2.3739,-2.247,-2.2279,-2.2184,-2.2184,-2.2184,-2.2234,-2.2372,-2.2924,-2.3078,-2.3005,-2.2199,-2.1431,-2.0765,-2.0506,-2.0391,-2.0355,-2.0398,-2.072,-2.1025,-2.0681,-2.0566,-2.0566,-2.0566,-2.0479,-2.0167,-1.9204,-1.8718,-1.8301,-1.7504,-1.7017,-1.6854,-1.7009,-1.6191,-1.5455,-1.5455,-1.4734,-1.3385,-1.1214,-1.0864,-1.0091,-0.7921,-0.8711,-0.9753,-1.0783,-1.1901,-1.3027,-1.3997,-1.3118,-1.2589,-1.2589,-1.1472,-1.0,-0.8006,-0.7573,-0.7841,-0.889,-0.889,-0.9497,-1.0611,-1.0611,-1.0096,-0.9148,-0.9529,-0.8937,-2.0684,-2.252,-2.3933,-2.3272,-2.4961,-2.6704,-2.6316,-2.5191,-2.4158,-2.4037,-2.3786,-2.4219,-2.6231,-2.6735,-2.8156,-3.2232,-3.3753,-3.4559,-3.4827,-3.5428,-3.6376,-3.7955,0.0,-3.7511,-3.8379,-3.7629,-3.6904,-3.6416,-3.6139,-3.5854,-3.5622,-3.5622,-3.5453,-3.5115,-3.5436,-3.5098,-3.3998,-3.3254,-3.2396,-3.1391,-3.0057,-2.9088,-2.8463,-2.7542,-2.6579,-2.5562,0.0,-2.4559,-2.2902,-2.2902,-2.2687,-2.2309,-2.2309,-2.2498,-2.2749,-2.2711,-2.2686,-2.2627,-2.2258,-2.185,-2.1469,-2.1522,-2.1232,-2.0908,-2.1138,-2.1193,-2.1177,-2.0958,-2.0755,-2.0566,-2.0566,-2.0566,-2.0479,-2.0001,-1.9441,-1.9036,-1.9107,-1.8141,-1.7496,-1.8069,-1.7334,-1.6355,-1.5779,-1.5296,-1.4203,-1.1895,-1.1552,-1.095,-0.9222,-1.0005,-1.0956,-1.1466,-1.2595,-1.3203,-1.3118,-1.2589,-1.1809,-1.0524,-1.0009,-0.8882,-0.7139,-0.7139,-0.7404,-0.7929,-0.7929,-0.8185,-0.8703,-0.8703,-0.8452,-0.7952,-0.8143,-0.7171,-2.028,-2.1822,-2.3529,-2.452,-2.6465,-2.8301,-2.8865,-2.7769,-2.66,-2.6615,-2.6549,-2.6756,-2.7522,-2.9065,-3.0886,-3.3002,-3.4272,-3.5183,-3.5642,-3.6172,-3.6893,-3.8028,-3.7588,-3.7341,-3.7684,-3.6943,-3.6333,-3.6224,-3.581,-3.5622,-3.5622,-3.5622,-3.5622,-3.5622,-3.5453,-3.4996,-3.4252,-3.3508,-3.2563,-3.1391,-3.0057,-2.9088,-2.8463,-2.786,-2.7203,-2.651,-2.651,-2.5502,-2.3859,-2.3705,-2.328,-2.2731,-2.2556,-2.2686,-2.2874,-2.2322,-2.2196,-2.2309,-2.2309,-2.2159,-2.2005,-2.2339,-2.2004,-2.1518,-2.1755,-2.1691,-2.1471,-2.1156,-2.0869,-2.0609,-2.0585,-2.0488,-2.0439,-2.0537,-2.0001,-1.9599,-2.0401,-1.9274,-1.8301,-1.9195,-1.847,-1.7334,-1.6273,-1.5861,-1.4935,-1.2662,-1.2328,-1.1895,-1.0783,-1.1638,-1.2328,-1.2328,-1.3379,-1.347,-1.2072,-1.1638,-1.0605,-0.8627,-0.8452,-0.8105,-0.7139,-0.7139,-0.7139,-0.7139,-0.7139,-0.7139,-0.7139,-0.7058,-0.7068,-0.7088,-0.7115,-0.6121,-2.3217,-2.3969,-2.4483,-2.6043,-2.6043,-2.6245,-2.8503,-2.7769,-2.6995,-2.8476,-2.8543,-2.8753,-3.0214,-3.2421,-3.3942,-3.3771,-3.4458,-3.4752,-3.4082,0.0,-3.4261,-3.6237,-3.5594,-3.5616,-3.7106,-3.6724,-3.6182,-3.5694,-3.5622,-3.5622,-3.5622,-3.5622,-3.5622,-3.5622,-3.4945,-3.4218,-3.3491,-3.273,-3.2043,-3.1391,-3.0057,-2.9088,-2.8463,-2.786,-2.7203,-2.651,-2.651,-2.604,-2.5218,-2.45,-2.4226,-2.4053,-2.3301,-2.2786,-2.2297,-2.1757,-2.187,-2.2309,-2.2309,-2.2276,-2.2255,-2.2293,-2.2247,-2.2157,-2.1818,-2.201,-2.2174,-2.1011,-2.0605,-2.0617,-2.0582,-2.0264,-2.0059,-2.0469,-2.0566,-2.0489,-2.0566,-2.0479,-2.0401,-2.0489,-1.9599,-1.8559,-1.7415,-1.6355,-1.4935,-1.2662,-1.2328,-1.1895,-1.0783,-1.1638,-1.2328,-1.2328,-1.3379,-1.3209,-1.0869,-0.9753,-0.8623,-0.7316,-0.7228,-0.7228,-0.7139,-0.7139,-0.7139,-0.7139,-0.7139,-0.7139,-0.7139,-0.7071,-0.7084,-0.7084,-0.7108,-0.7015,-2.1033,-2.263,-2.4465,-2.5566,-2.6741,-2.8007,-2.942,-3.0063,-3.0723,-3.2083,-3.1854,-3.1606,-3.2191,-3.3245,-3.3972,-3.3817,-3.4064,-3.4055,-3.3502,-3.3302,-3.355,-3.4569,-3.4759,-3.5226,-3.636,-3.6738,-3.6684,-3.6139,-3.6097,-3.5941,-3.5622,-3.5182,-3.4912,-3.4912,-3.4201,-3.3457,-3.2713,-3.2425,-3.1955,-3.1281,-3.0382,-2.9629,-2.9042,-2.8415,-2.7795,-2.7188,-2.7188,-2.6774,-2.6068,-2.5783,-2.5163,-2.4285,-2.3592,-2.2977,-2.2538,-2.2751,-2.2628,-2.2424,-2.2829,-2.2917,-2.2824,-2.2824,-2.2824,-2.2742,-2.2628,-2.2384,-2.2015,-2.152,-2.0603,-1.9843,-2.0075,-2.0039,-2.0029,-2.0459,-2.0566,-2.0566,-2.0566,-2.0566,-2.0566,-2.0566,-2.0245,-1.9678,-1.855,-1.7415,-1.6183,-1.4678,-1.3873,-1.3294,-1.2863,-1.3776,-1.4189,-1.3464,-1.3118,-1.2595,-1.1724,-0.9923,-0.8715,-0.8277,-0.7489,-0.7058,-0.7071,-0.7058,-0.7058,-0.7071,-0.7058,-0.7139,-0.7139,-0.7061,-0.6615,-0.563,-0.5708,-0.6973,-2.1011,-2.2737,-2.4875,-2.5607,-2.7218,-2.886,-2.9807,-3.1162,-3.259,-3.3927,-3.3789,-3.339,-3.339,-3.3606,-3.3807,-3.3807,-3.3807,-3.3707,-3.3437,-3.3273,-3.3363,-3.3847,-3.4232,-3.4836,-3.5899,-3.6465,-3.6756,-3.6666,-3.6273,-3.5904,-3.5539,-3.4643,-3.415,-3.415,-3.344,-3.2797,-3.2313,-3.2053,-3.1681,-3.119,-3.0781,-3.0251,-2.9673,-2.8873,-2.8271,-2.786,-2.766,-2.7306,-2.6811,-2.6385,-2.5321,-2.3994,-2.3403,-2.3193,-2.3193,-2.3234,-2.3138,-2.3076,-2.3245,-2.3198,-2.3078,-2.3078,-2.3078,-2.3115,-2.3351,-2.2807,-2.2015,-2.1823,-2.0663,-1.9491,-1.9507,-1.9609,-1.9863,-2.043,-2.0566,-2.0489,-2.0167,-2.0323,-2.0489,-2.0157,-2.0401,-2.0245,-1.9195,-1.806,-1.6927,-1.5861,-1.4817,-1.425,-1.4573,-1.522,-1.5462,-1.465,-1.3522,-1.2656,-1.2328,-1.0524,-0.9405,-0.9405,-0.8619,-0.7841,-0.7163,-0.7061,-0.7058,-0.7074,-0.7061,-0.7139,-0.7139,-0.7058,-0.6523,-0.5542,-0.6065,-0.7667,-2.4229,-2.4967,-2.5927,-2.6456,-2.7236,-2.8155,-2.9349,-3.0563,-3.188,-3.3476,-3.3807,-3.3807,-3.3807,-3.3807,-3.3807,-3.3807,-3.3807,-3.3807,-3.3788,-3.3447,-3.3473,-3.4285,-3.3937,-3.4217,-3.5828,-3.5951,-3.6251,-3.714,-3.6029,-3.5295,-3.5295,-3.4096,-3.3389,-3.3389,-3.2662,-3.2313,-3.2313,-3.1546,-3.119,-3.119,-3.119,-3.0878,-3.0251,-2.9042,-2.8511,-2.8463,-2.786,-2.7625,-2.7515,-2.6097,-2.4671,-2.3375,-2.282,-2.3381,-2.4323,-2.2937,-2.325,-2.431,-2.3412,-2.3138,-2.3078,-2.3078,-2.3078,-2.3251,-2.3828,-2.3262,-2.2327,-2.1606,-2.066,-1.9717,-1.8853,-1.8965,-1.9502,-2.0361,-2.0566,-2.0323,-1.9204,-1.9835,-2.0245,-1.9204,-1.9844,-2.0245,-1.9204,-1.8069,-1.6927,-1.5861,-1.4817,-1.4489,-1.5621,-1.5696,-1.5696,-1.5703,-1.4664,-1.3568,-1.2407,-1.1295,-1.0611,-1.0611,-1.0611,-0.957,-0.7228,-0.7139,-0.7139,-0.7139,-0.7139,-0.7139,-0.7139,-0.7163,-0.7173,-0.7173,-0.8761,-0.9556,-2.1775,-2.3745,-2.6414,-2.5986,-2.8782,-3.1556,-3.1343,-3.222,-3.3385,-3.4449,-3.4651,-3.4486,-3.3899,-3.3807,-3.3807,-3.3807,-3.3807,-3.3707,-3.3437,-3.3273,-3.3165,-3.3066,-3.3713,-3.4347,-3.4813,-3.5648,-3.6146,-3.6016,-3.5665,-3.5154,-3.4476,-3.3611,-3.298,-3.2652,-3.1901,-3.1512,-3.1512,-3.1309,-3.119,-3.119,-3.119,-3.0878,-3.0293,-2.9951,-2.9316,-2.8511,-2.8319,-2.7993,-2.7485,-2.6139,-2.5055,-2.4206,-2.3535,-2.4122,-2.515,-2.4226,-2.4387,-2.4993,-2.4221,-2.3603,-2.3078,-2.3078,-2.3414,-2.3642,-2.3138,-2.2819,-2.2627,-2.2349,-2.0917,-1.9645,-2.038,-1.9905,-1.9424,-1.998,-1.9782,-1.9362,-1.9045,-1.9283,-1.9362,-1.9036,-1.9844,-2.0489,-2.0167,-1.9195,-1.839,-1.806,-1.709,-1.6772,-1.79,-1.7334,-1.7172,-1.79,-1.6332,-1.5101,-1.4685,-1.2911,-1.1809,-1.1809,-1.1037,-0.9557,-0.719,-0.869,-0.9327,-0.8836,-0.9327,-0.957,-0.957,-0.9579,-0.9584,-0.9584,-1.0024,-1.0717,-2.4415,-2.6478,-2.8874,-2.8662,-3.0438,-3.2313,-3.2611,-3.3146,-3.3696,-3.4189,-3.4412,-3.4394,-3.3899,-3.3807,-3.3807,-3.3807,-3.3807,-3.3707,-3.3465,-3.3437,-3.3273,-3.2809,-3.3599,-3.4213,-3.4388,-3.5228,-3.5784,-3.5817,-3.5372,-3.4802,-3.4252,-3.3317,-3.2682,-3.2386,-3.1785,-3.1449,-3.1449,-3.1291,-3.119,-3.119,-3.119,-3.1015,-3.0658,-3.0435,-2.9761,-2.8826,-2.8367,-2.7792,-2.7096,-2.6033,-2.5211,-2.4507,-2.3864,-2.4418,-2.5488,-2.4705,-2.4808,-2.5272,-2.4439,-2.3735,-2.3078,-2.3078,-2.3376,-2.3542,-2.2958,-2.2638,-2.2469,-2.273,-2.1102,-1.9515,-2.0585,-2.0124,-1.9311,-1.9269,-1.9145,-1.8798,-1.79,-1.839,-1.8877,-1.839,-1.9599,-2.0566,-2.0566,-1.9678,-1.9036,-1.9036,-1.8399,-1.823,-1.8877,-1.8789,-1.8709,-1.8957,-1.7407,-1.6191,-1.5779,-1.4028,-1.3027,-1.3027,-1.2339,-1.1112,-0.9269,-1.0072,-1.0366,-0.996,-1.0366,-1.0611,-1.0611,-1.0611,-1.0611,-1.0611,-1.1037,-1.1638,-2.9551,-3.0978,-3.2158,-3.2757,-3.1881,-3.1363,-3.31,-3.3309,-3.3172,-3.3274,-3.3577,-3.3807,-3.3807,-3.3807,-3.3807,-3.3807,-3.3807,-3.3807,-3.3807,-3.3807,-3.368,-3.3302,-3.3578,-3.3927,-3.4304,-3.4692,-3.5238,-3.6009,-3.4993,-3.4328,-3.4297,-3.3202,-3.255,-3.2484,-3.2109,-3.1844,-3.1789,-3.1449,-3.123,-3.119,-3.119,-3.119,-3.119,-3.0617,-3.0021,-2.9361,-2.8255,-2.7334,-2.6542,-2.5931,-2.5257,-2.4507,-2.3864,-2.4373,-2.5408,-2.4427,-2.46,-2.5188,-2.4201,-2.354,-2.3078,-2.3078,-2.314,-2.3158,-2.3126,-2.2594,-2.2062,-2.2685,-2.1174,-1.9479,-2.009,-1.9818,-1.9091,-1.8339,-1.8503,-1.8301,-1.6191,-1.7334,-1.8559,-1.7504,-1.9107,-2.0566,-2.0566,-1.9756,-1.9125,-1.9125,-1.9125,-1.9125,-1.9125,-1.9923,-2.0079,-1.9116,-1.7908,-1.6764,-1.5779,-1.4734,-1.4088,-1.4088,-1.4088,-1.3646,-1.2498,-1.1472,-1.0869,-1.0783,-1.0869,-1.0956,-1.0956,-1.0956,-1.0956,-1.0956,-1.1986,-1.251,-2.5598,-2.792,-3.0735,-3.0567,-3.1069,-3.1708,-3.2126,-3.2456,-3.2923,-3.3934,-3.396,-3.3807,-3.3807,-3.3807,-3.3807,-3.3807,-3.3807,-3.3807,-3.3807,-3.3807,-3.3762,-3.368,-3.3734,-3.3835,-3.3918,-3.4009,-3.4137,-3.4321,-3.4073,-3.3777,-3.3467,-3.3214,-3.2872,-3.2517,-3.2417,-3.2161,-3.1808,-3.1716,-3.1507,-3.119,-3.119,-3.119,-3.119,-3.1055,-3.0435,-2.9406,-2.9134,-2.8108,-2.6576,-2.6382,-2.5636,-2.4507,-2.3864,-2.4133,-2.4747,-2.3412,-2.3647,-2.4429,-2.3114,-2.2874,-2.3078,-2.3078,-2.3194,-2.3114,-2.24,-2.2089,-2.2124,-2.2579,-2.1102,-1.9683,-2.1166,-2.0459,-1.8934,-1.739,-1.738,-1.7334,-1.5944,-1.6764,-1.7577,-1.7342,-1.9107,-2.0566,-2.0566,-2.0401,-2.0245,-2.0245,-2.0245,-2.0245,-2.0245,-1.9678,-1.9283,-1.9036,-1.7245,-1.5944,-1.5696,-1.4734,-1.4088,-1.4088,-1.4088,-1.3997,-1.373,-1.3476,-1.2863,-1.198,-1.2863,-1.3385,-1.3385,-1.3385,-1.3385,-1.3385,-1.3561,-1.3848,-2.6758,-2.8708,-3.059,-3.0992,-3.1284,-3.1565,-3.1752,-3.2161,-3.2755,-3.3646,-3.3814,-3.3807,-3.3807,-3.3807,-3.3807,-3.3807,-3.3807,-3.3807,-3.3807,-3.3807,-3.3807,-3.3807,-3.3807,-3.3807,-3.3807,-3.3807,-3.3807,-3.3807,-3.3807,-3.3707,-3.3494,-3.3494,-3.339,-3.3118,-3.2952,-3.2616,-3.2127,-3.1915,-3.1603,-3.119,-3.119,-3.119,-3.119,-3.0878,-3.0435,-2.9805,-2.954,-2.8837,-2.7907,-2.7255,-2.6594,-2.5864,-2.4942,-2.4587,-2.4488,-2.3468,-2.3229,-2.3349,-2.2832,-2.2899,-2.3165,-2.3766,-2.3814,-2.3506,-2.2805,-2.2445,-2.2425,-2.3223,-2.1734,-2.0309,-2.1989,-2.0617,-1.8488,-1.7044,-1.6982,-1.6854,-1.5304,-1.5786,-1.6683,-1.7172,-1.8709,-2.0001,-2.0479,-2.0566,-2.0566,-2.0566,-2.0566,-2.0401,-1.9923,-1.9362,-1.8798,-1.823,-1.6675,-1.5696,-1.5696,-1.4734,-1.4088,-1.4088,-1.4088,-1.4088,-1.4088,-1.4088,-1.3822,-1.3203,-1.3822,-1.4088,-1.4088,-1.4088,-1.4088,-1.4088,-1.4088,-1.4242,-2.7718,-2.9334,-3.0378,-3.1987,-3.1896,-3.1524,-3.1825,-3.2264,-3.2745,-3.3214,-3.3578,-3.3807,-3.3807,-3.3807,-3.3807,-3.3807,-3.3807,-3.3807,-3.3807,-3.3807,-3.3807,-3.3807,-3.3807,-3.3807,-3.3807,-3.3807,-3.3807,-3.3807,-3.3807,-3.3807,-3.3807,-3.3807,-3.3807,-3.3807,-3.339,-3.2983,-3.2517,-3.2022,-3.1603,-3.119,-3.119,-3.119,-3.119,-3.0699,-3.0393,-3.0293,-2.9892,-2.954,-2.9162,-2.8088,-2.7534,-2.7211,-2.6074,-2.5096,-2.4269,-2.3668,-2.2989,-2.2431,-2.2736,-2.2975,-2.3288,-2.423,-2.4154,-2.3677,-2.3293,-2.276,-2.246,-2.3511,-2.2218,-2.0812,-2.227,-2.043,-1.8062,-1.7013,-1.6951,-1.6527,-1.4496,-1.4977,-1.5944,-1.6846,-1.806,-1.9283,-2.0157,-2.0323,-2.0245,-2.0079,-2.0001,-1.9678,-1.8798,-1.855,-1.806,-1.709,-1.6026,-1.5462,-1.5462,-1.4566,-1.4088,-1.4088,-1.4088,-1.4088,-1.4088,-1.4088,-1.4088,-1.4088,-1.425,-1.425,-1.4088,-1.425,-1.425,-1.4088,-1.4135,-1.4322,-2.1272,-2.4244,-2.8254,-3.1165,-3.2109,-3.235,-3.2384,-3.2777,-3.3225,-3.3652,-3.3762,-3.3807,-3.3807,-3.3807,-3.3807,-3.3807,-3.3807,-3.3807,-3.3807,-3.3807,-3.3807,-3.3807,-3.3807,0.0,0.0,0.0,0.0,0.0,-3.3807,-3.3807,-3.3807,-3.3807,-3.3807,-3.3807,-3.339,-3.2983,-3.2517,-3.2022,-3.1603,-3.119,-3.119,-3.119,-3.119,-3.1112,-3.0797,-3.0335,-3.0781,-3.0081,-2.8591,-2.8357,-2.767,-2.6657,-2.5901,-2.4805,-2.3636,-2.3031,-2.2618,-2.2261,-2.1876,-2.2334,-2.3103,-2.3253,-2.3045,-2.2714,-2.2657,-2.2014,-2.1453,-2.2029,-2.1142,-2.0198,-2.1188,-1.9853,-1.8133,-1.7426,-1.6561,-1.5538,-1.4328,-1.4977,-1.5779,-1.5861,-1.7577,-1.9045,-1.9204,-1.9195,-1.8877,-1.7908,-1.7738,-1.7658,-1.7577,-1.6683,-1.6108,-1.5944,-1.4977,-1.4328,-1.4328,-1.4166,-1.4088,-1.4088,-1.4088,-1.4088,-1.4088,-1.4088,-1.4088,-1.4088,-1.497,-1.5061,-1.4088,-1.5054,-1.4977,-1.4095,-1.4349,-1.4623,-2.2179,-2.5425,-2.8827,-3.1835,-3.2332,-3.223,-3.2777,-3.3045,-3.3302,-3.3707,-3.3807,-3.3807,-3.3807,-3.3807,-3.3807,-3.3807,-3.3807,-3.3807,-3.3807,-3.3807,-3.3807,0.0,0.0,0.0,0.0,0.0,0.0,0.0,-3.3807,-3.3807,-3.3807,-3.3807,-3.3807,-3.3807,-3.3625,-3.3196,-3.2517,-3.2316,-3.1842,-3.119,-3.119,-3.119,-3.119,-3.119,-3.1055,-3.0797,-3.074,-3.0251,-2.9464,-2.8756,-2.8124,-2.7618,-2.6958,-2.5865,-2.4542,-2.3944,-2.311,-2.2284,-2.2033,-2.2272,-2.2723,-2.2977,-2.2774,-2.2384,-2.246,-2.2016,-2.1598,-2.2143,-2.1549,-2.0754,-2.1437,-1.9736,-1.7704,-1.7382,-1.6041,-1.465,-1.4166,-1.4489,-1.4977,-1.5621,-1.7496,-1.8798,-1.8149,-1.8069,-1.7908,-1.7415,-1.7342,-1.709,-1.6519,-1.6026,-1.5462,-1.4901,-1.4412,-1.4088,-1.4088,-1.4088,-1.4088,-1.4088,-1.4088,-1.4088,-1.4088,-1.4088,-1.4088,-1.4088,-1.5137,-1.5462,-1.4977,-1.6034,-1.6125,-1.5234,-1.5376,-1.536,-2.2429,-2.5072,-2.7068,-3.0939,-3.1647,-3.1691,-3.2778,-3.3196,-3.3437,-3.3734,-3.3807,-3.3807,-3.3807,-3.3807,-3.3807,-3.3807,-3.3807,-3.3807,-3.3807,0.0,0.0,0.0,0.0,0.0,0.0,0.0,0.0,0.0,-3.3807,-3.3807,-3.3807,-3.3807,-3.3807,-3.3807,-3.3707,-3.3284,-3.2517,-3.2282,-3.186,-3.119,-3.119,-3.119,-3.119,-3.119,-3.1112,-3.0958,-3.0658,-3.0251,-2.9761,-2.9042,-2.8559,-2.8222,-2.7545,-2.6534,-2.5315,-2.4518,-2.3474,-2.2439,-2.2101,-2.2092,-2.2219,-2.2433,-2.2165,-2.1886,-2.2098,-2.1804,-2.1536,-2.2158,-2.1722,-2.1141,-2.1357,-1.9381,-1.7236,-1.7138,-1.5569,-1.4088,-1.4088,-1.4088,-1.4412,-1.5455,-1.7001,-1.79,-1.7009,-1.6927,-1.6764,-1.6527,-1.6527,-1.6198,-1.5379,-1.5296,-1.4977,-1.4173,-1.4088,-1.425,-1.4489,-1.4496,-1.4657,-1.4908,-1.4901,-1.4817,-1.4489,-1.4496,-1.4412,-1.4088,-1.5137,-1.5696,-1.5696,-1.6764,-1.6857,-1.6097,-1.6186,-1.5927,-1.8556,-1.9451,-2.0246,-2.6827,-2.9383,-3.0691,-3.2197,-3.3196,-3.3762,-3.3807,-3.3807,-3.3807,-3.3807,-3.3807,-3.3807,-3.3807,-3.3807,0.0,0.0,0.0,0.0,0.0,0.0,0.0,0.0,0.0,0.0,0.0,-3.3807,-3.3807,-3.3807,-3.3807,-3.3807,-3.3807,-3.3419,-3.3014,-3.2517,-3.1694,-3.1252,-3.119,-3.119,-3.119,-3.119,-3.119,-3.0878,-3.0393,-3.0918,-3.0166,-2.8654,-2.9134,-2.867,-2.756,-2.6826,-2.6054,-2.526,-2.3928,-2.3295,-2.2892,-2.1548,-2.1463,-2.1779,-2.0962,-2.0696,-2.0775,-2.1151,-2.1011,-2.0776,-2.1125,-2.0943,-2.0517,-2.0124,-1.8659,-1.7171,-1.6809,-1.5398,-1.4088,-1.4088,-1.4088,-1.4412,-1.5455,-1.5779,-1.5861,-1.5779,-1.5779,-1.5462,-1.4412,-1.425,-1.425,-1.4173,-1.4166,-1.4166,-1.4088,-1.4088,-1.4489,-1.5538,-1.5621,-1.6026,-1.7098,-1.7098,-1.6683,-1.5703,-1.5621,-1.5137,-1.4088,-1.5137,-1.5696,-1.5696,-1.6764,-1.6857,-1.6104,-1.6416,-1.6142,-1.7118,-1.936,-2.1578,-2.4813,-2.7752,-3.0041,-3.0849,-3.2465,-3.3807,-3.3807,-3.3807,-3.3807,-3.3807,-3.3807,-3.3807,0.0,0.0,0.0,0.0,0.0,0.0,0.0,0.0,0.0,0.0,0.0,0.0,0.0,0.0,-3.3807,-3.3807,-3.3807,-3.3807,-3.3807,-3.3652,-3.3225,-3.2517,-3.162,-3.119,-3.119,-3.119,-3.119,-3.119,-3.119,-3.0658,-2.9761,-3.0335,-2.9805,-2.8463,-2.8319,-2.7715,-2.6878,-2.6616,-2.5728,-2.4654,-2.4156,-2.3586,-2.299,-2.2132,-2.1631,-2.1234,-2.0542,-1.9932,-1.9592,-2.0124,-2.0165,-2.0172,-2.0707,-2.0738,-2.0469,-2.0029,-1.865,-1.6903,-1.5405,-1.4573,-1.4088,-1.4088,-1.4657,-1.5054,-1.4734,-1.522,-1.5455,-1.481,-1.465,-1.4573,-1.4166,-1.4088,-1.4088,-1.4088,-1.4088,-1.4088,-1.4088,-1.4734,-1.5296,-1.5703,-1.6355,-1.6927,-1.7261,-1.7342,-1.6846,-1.5779,-1.5696,-1.522,-1.4088,-1.4489,-1.5387,-1.6764,-1.8138,-1.8279,-1.7454,-1.7898,-1.7176,-1.5042,-1.7515,-2.046,-2.307,-2.5186,-2.7373,-3.0247,-3.1763,-3.2816,-3.3623,-3.3807,-3.3807,-3.3807,-3.3807,0.0,0.0,0.0,0.0,0.0,0.0,0.0,0.0,0.0,0.0,0.0,0.0,0.0,0.0,0.0,0.0,-3.3807,-3.3807,-3.3807,-3.3807,-3.3504,-3.3087,-3.2517,-3.162,-3.119,-3.119,-3.119,-3.119,-3.119,-3.119,-3.0518,-2.9406,-2.9805,-2.93,-2.8189,-2.7993,-2.7342,-2.6457,-2.6229,-2.5398,-2.4292,-2.4002,-2.3543,-2.2955,-2.2031,-2.1342,-2.0711,-1.9767,-1.904,-1.8723,-1.9445,-1.9493,-1.9555,-2.0171,-2.0244,-1.9954,-1.9219,-1.7707,-1.6002,-1.4448,-1.4088,-1.4088,-1.4088,-1.465,-1.4977,-1.425,-1.465,-1.4977,-1.425,-1.4088,-1.4088,-1.4088,-1.4088,-1.4088,-1.4088,-1.4412,-1.4489,-1.4173,-1.5387,-1.6273,-1.6273,-1.7253,-1.798,-1.8381,-1.8381,-1.79,-1.6838,-1.6437,-1.5703,-1.465,-1.4657,-1.5604,-1.7524,-1.8581,-1.8817,-1.8251,-1.8584,-1.7753,0.0,0.0,0.0,-2.1324,-2.166,-2.2696,-3.0277,-3.0974,-3.0723,-3.3183,-3.3678,-3.3697,0.0,0.0,0.0,0.0,0.0,0.0,0.0,0.0,0.0,0.0,0.0,0.0,0.0,0.0,0.0,0.0,-3.3807,-3.3807,-3.3807,-3.3807,-3.3788,-3.3762,-3.2934,-3.2484,-3.2484,-3.162,-3.119,-3.119,-3.119,-3.119,-3.119,-3.119,-3.0518,-2.9406,-2.9406,-2.8717,-2.761,-2.8222,-2.7665,-2.6404,-2.5673,-2.4894,-2.4176,-2.3365,-2.3078,-2.2884,-2.1227,-2.0655,-2.0333,-1.8664,-1.8008,-1.8164,-1.9014,-1.8975,-1.8737,-1.9584,-1.9525,-1.8962,-1.7533,-1.5847,-1.4503,-1.4192,-1.4088,-1.4088,-1.4173,-1.4173,-1.4173,-1.4088,-1.4088,-1.4088,-1.4173,-1.4173,-1.4173,-1.4173,-1.4173,-1.4173,-1.4088,-1.4977,-1.5213,-1.425,-1.5959,-1.7261,-1.7342,-1.831,-1.9441,-2.0557,-2.0566,-2.0089,-1.9036,-1.7908,-1.6846,-1.5779,-1.5779,-1.6526,-1.8054,-1.8062,-1.8161,-1.8415,-1.8329,-1.7723,-1.344,0.0,0.0,0.0,0.0,0.0,-2.4173,-2.5392,-2.6942,-3.0472,-3.0742,-3.1054,0.0,0.0,0.0,0.0,0.0,0.0,0.0,0.0,0.0,0.0,0.0,0.0,0.0,0.0,0.0,0.0,-3.3807,-3.3807,-3.3807,-3.3807,-3.368,-3.3379,-3.2809,-3.235,-3.2004,-3.1449,-3.119,-3.119,-3.119,-3.119,-3.119,-3.119,-3.0518,-2.9406,-2.9406,-2.8717,-2.7575,-2.7174,-2.6534,-2.5618,-2.4908,-2.4105,-2.3424,-2.3185,-2.3078,-2.3005,-2.2567,-2.1604,-2.0526,-2.0009,-1.9044,-1.8115,-1.8652,-1.873,-1.8608,-1.848,-1.8388,-1.7895,-1.6219,-1.5219,-1.4503,-1.4192,-1.4088,-1.4328,-1.5054,-1.5296,-1.5061,-1.425,-1.4088,-1.4334,-1.5137,-1.5296,-1.5296,-1.5296,-1.5296,-1.4977,-1.4166,-1.4328,-1.4412,-1.4166,-1.5304,-1.6437,-1.7253,-1.7577,-1.855,-2.0479,-1.9844,-1.9283,-1.9036,-1.8718,-1.798,-1.6846,-1.6846,-1.7589,-1.9124,-1.949,-1.9169,-1.8329,-1.6698,-1.6257,-1.4604,-1.6176,-1.8127,-1.7896,0.0,0.0,-2.4169,0.0,0.0,0.0,-3.1329,0.0,0.0,0.0,0.0,0.0,0.0,0.0,0.0,0.0,0.0,0.0,0.0,0.0,0.0,-3.2687,-3.2797,-3.3256,-3.3605,-3.3807,-3.3807,-3.3807,-3.3625,-3.3214,-3.2745,-3.2264,-3.1808,-3.1411,-3.119,-3.119,-3.119,-3.119,-3.119,-3.0935,-3.0293,-2.9406,-2.9134,-2.8496,-2.756,-2.6826,-2.6068,-2.5342,-2.4567,-2.3826,-2.3078,-2.3078,-2.2884,-2.2567,-2.2175,-2.1164,-2.0009,-1.9628,-1.8854,-1.8018,-1.8005,-1.7925,-1.7656,-1.7178,-1.6581,-1.5989,-1.5202,-1.4488,-1.4122,-1.467,-1.4734,-1.5061,-1.6116,-1.6355,-1.6191,-1.5553,-1.547,-1.5628,-1.6273,-1.6355,-1.6191,-1.5779,-1.5696,-1.5296,-1.425,-1.4489,-1.4734,-1.4734,-1.6108,-1.7163,-1.7253,-1.7738,-1.839,-1.9186,-1.863,-1.831,-1.831,-1.831,-1.7989,-1.7334,-1.7747,-1.8493,-1.9616,-1.9851,-1.9375,-1.8192,-1.5763,-1.5273,-1.6009,-1.6746,-1.833,-1.9792,-1.8466,0.0,-2.6629,0.0,0.0,0.0,0.0,0.0,0.0,0.0,0.0,0.0,0.0,0.0,0.0,0.0,0.0,0.0,0.0,0.0,-3.1414,-3.2045,-3.2504,-3.2596,-3.3348,-3.378,-3.3734,-3.3734,-3.3522,-3.3075,-3.2648,-3.2213,-3.1716,-3.1389,-3.119,-3.119,-3.119,-3.1151,-3.1095,-3.0518,-2.9935,-2.9271,-2.8732,-2.814,-2.756,-2.6826,-2.6068,-2.5342,-2.4567,-2.3826,-2.3078,-2.3078,-2.2567,-2.1815,-2.1037,-2.0139,-1.9177,-1.8405,-1.8008,-1.7793,-1.7293,-1.6785,-1.6351,-1.5761,-1.4613,-1.3667,-1.4278,-1.3789,-1.358,-1.5256,-1.5674,-1.6026,-1.7253,-1.7496,-1.7496,-1.7658,-1.7504,-1.7334,-1.7504,-1.7496,-1.7172,-1.6191,-1.6108,-1.5703,-1.4573,-1.5304,-1.5861,-1.5861,-1.7658,-1.847,-1.7585,-1.823,-1.831,-1.7504,-1.7261,-1.7172,-1.7342,-1.7415,-1.7496,-1.7496,-1.847,-1.9208,-1.9553,-1.9343,-1.8702,-1.7787,-1.5295,-1.4566,-1.8786,-1.9033,-1.9715,-1.9338,-1.9854,0.0,-2.0839,-2.05,-2.0951,0.0,-2.3293,0.0,0.0,0.0,0.0,0.0,0.0,0.0,0.0,0.0,0.0,0.0,0.0,0.0,-3.1304,-3.1531,-3.1898,-3.2559,-3.3348,-3.3652,-3.3332,-3.3302,-3.2934,-3.2092,-3.1986,-3.1733,-3.1312,-3.123,-3.119,-3.119,-3.119,-3.0935,-3.0477,-3.0335,-2.9717,-2.8654,-2.8559,-2.814,-2.756,-2.6826,-2.6068,-2.5342,-2.4567,-2.3826,-2.3078,-2.3078,-2.2567,-2.1877,-2.169,-2.059,-1.9299,-1.911,-1.8085,-1.6862,-1.6727,-1.6132,-1.5313,-1.4392,-1.3353,-1.2674,-1.3037,-1.3175,-1.3605,-1.5065,-1.5509,-1.6273,-1.823,-1.8638,-1.8957,-1.9756,-1.855,-1.7577,-1.847,-1.8638,-1.8638,-1.839,-1.839,-1.798,-1.6854,-1.6846,-1.7009,-1.7009,-1.7334,-1.7908,-1.863,-1.7245,-1.7001,-1.855,-1.7009,-1.6437,-1.7261,-1.8149,-1.8638,-1.8638,-1.8877,-1.9073,-1.9074,-1.7631,-1.6853,-1.6592,-1.4874,-1.425,-2.0337,-2.005,-2.034,-2.0302,-2.0308,0.0,0.0,0.0,-2.0952,-2.4512,-2.3512,-2.2893,-2.5816,0.0,0.0,0.0,0.0,0.0,0.0,0.0,0.0,0.0,0.0,0.0,-3.1384,-3.1751,-3.2339,-3.3146,-3.3568,-3.3606,-3.3214,-3.3214,-3.2777,-3.1825,-3.1789,-3.1603,-3.119,-3.119,-3.119,-3.119,-3.119,-3.0878,-3.0293,-2.9995,-2.9361,-2.8463,-2.8189,-2.7695,-2.7034,-2.6669,-2.5837,-2.4794,-2.4452,-2.406,-2.359,-2.2811,-2.2002,-2.1175,-2.0782,-1.9454,-1.793,-1.793,-1.7033,-1.579,-1.5296,-1.4514,-1.3665,-1.3164,-1.2659,-1.252,-1.3264,-1.3613,-1.4234,-1.6274,-1.6929,-1.7502,-1.9395,-1.9766,-1.9923,-2.0489,-1.9668,-1.9116,-1.9678,-1.9766,-1.9599,-1.9116,-1.9036,-1.855,-1.7423,-1.7342,-1.7504,-1.8069,-1.7666,-1.7496,-1.8069,-1.6683,-1.5944,-1.6527,-1.5553,-1.5137,-1.5718,-1.7261,-1.863,-1.9766,-1.9274,-1.8718,-1.8149,-1.6684,-1.6019,-1.5935,-1.4726,-1.4412,-2.1717,-2.1142,-2.1409,-2.1551,-2.1068,-2.1132,0.0,0.0,0.0,0.0,0.0,0.0,0.0,0.0,0.0,0.0,0.0,0.0,0.0,0.0,0.0,0.0,0.0,0.0,0.0,-3.1292,-3.2284,-3.3697,-3.3238,-3.2922,-3.3057,-3.3075,-3.2631,-3.1733,-3.1696,-3.1545,-3.119,-3.119,-3.119,-3.119,-3.1095,-3.0699,-3.0123,-2.9496,-2.8919,-2.8286,-2.781,-2.7203,-2.651,-2.651,-2.5728,-2.4509,-2.435,-2.4234,-2.3872,-2.2433,-2.1365,-2.0462,-1.941,-1.793,-1.6558,-1.6358,-1.572,-1.4736,-1.3745,-1.2879,-1.2305,-1.2305,-1.2445,-1.2795,-1.3851,-1.4268,-1.5127,-1.7617,-1.8231,-1.8702,-2.0236,-2.0566,-2.0566,-2.0566,-2.0566,-2.0566,-2.0566,-2.0566,-2.0323,-1.9441,-1.9116,-1.8638,-1.7747,-1.7423,-1.7658,-1.855,-1.7827,-1.7342,-1.7342,-1.6355,-1.5296,-1.4496,-1.425,-1.4088,-1.4088,-1.6124,-1.831,-2.0566,-1.952,-1.855,-1.7585,-1.6519,-1.5861,-1.5696,-1.481,-1.4977,-2.3905,-2.3823,-2.4384,-2.2156,-2.3741,-2.474,-2.06,0.0,-2.0118,-1.9115,0.0,-1.7509,-1.8431,0.0,0.0,0.0,0.0,0.0,-2.1535,-2.4338,0.0,0.0,0.0,0.0,0.0,-2.8282,-2.9861,-3.3513,-3.1164,-3.0412,-3.2474,-3.2583,-3.2196,-3.1291,-3.1252,-3.1269,-3.119,-3.119,-3.119,-3.119,-3.0658,-3.0081,-2.9496,-2.8873,-2.8271,-2.771,-2.7625,-2.7203,-2.651,-2.651,-2.6014,-2.5231,-2.4567,-2.3884,-2.3125,-2.2261,-2.1365,-2.0386,-1.8639,-1.7434,-1.6498,-1.5658,-1.4665,-1.3673,-1.2732,-1.2372,-1.2305,-1.2305,-1.2879,-1.3535,-1.3717,-1.4595,-1.5873,-1.7582,-1.8109,-1.8702,-2.0236,-2.0566,-2.0566,-2.0566,-2.0566,-2.0566,-2.0566,-2.0566,-2.0566,-2.0401,-1.9599,-1.8957,-1.8798,-1.7908,-1.7342,-1.7504,-1.7415,-1.7342,-1.7342,-1.6355,-1.5621,-1.5538,-1.4657,-1.4088,-1.4088,-1.6124,-1.831,-2.0566,-1.952,-1.8957,-1.8798,-1.7658,-1.6601,-1.5696,-1.5621,-1.6116,-2.406,-2.4368,-2.4981,-2.2364,-2.3154,-2.3586,-1.9909,-1.8551,-1.8157,-1.8395,0.0,0.0,0.0,0.0,0.0,0.0,-1.8589,0.0,0.0,0.0,-2.4376,0.0,0.0,0.0,0.0,0.0,0.0,0.0,-3.043,-2.9627,-3.1969,-3.2092,-3.1806,-3.123,-3.119,-3.119,-3.119,-3.0838,-3.0699,-3.0658,-3.0081,-2.9451,-2.8873,-2.8606,-2.7929,-2.693,-2.693,-2.6322,-2.5231,-2.5231,-2.4781,-2.4047,-2.3708,-2.3386,-2.287,-2.1592,-2.059,-1.9607,-1.7775,-1.6549,-1.5508,-1.4019,-1.3237,-1.2806,-1.2445,-1.2305,-1.2445,-1.2952,-1.3382,-1.3954,-1.5084,-1.5931,-1.6908,-1.8358,-1.8995,-1.9488,-2.0391,-2.0566,-2.0566,-2.0566,-2.0566,-2.0566,-2.0566,-2.0566,-2.0401,-1.9766,-1.9283,-1.8798,-1.8069,-1.7585,-1.7342,-1.7342,-1.6764,-1.6355,-1.6355,-1.5379,-1.4734,-1.4734,-1.4894,-1.5304,-1.5959,-1.7423,-1.9036,-2.0566,-2.0157,-1.9599,-1.9036,-1.8559,-1.806,-1.7577,-1.6927,-1.7253,-2.4941,-2.5293,-2.5605,-2.2287,-2.2051,-2.1827,-1.8736,-1.7587,-1.7465,-1.8434,-1.7734,0.0,0.0,0.0,-1.5868,-1.5174,0.0,-1.79,0.0,-1.8032,0.0,0.0,0.0,0.0,0.0,0.0,0.0,0.0,0.0,-2.839,-3.1653,-3.1789,-3.164,-3.123,-3.1055,-3.0958,-3.0958,-3.0335,-3.0038,-3.0038,-2.9451,-2.881,-2.8192,-2.8222,-2.7515,-2.6229,-2.6404,-2.5673,-2.4292,-2.4292,-2.3826,-2.3078,-2.2884,-2.2592,-2.2213,-2.1014,-2.0074,-1.9023,-1.6895,-1.5438,-1.4163,-1.2732,-1.2305,-1.2305,-1.2305,-1.2305,-1.2519,-1.3455,-1.389,-1.4522,-1.614,-1.7085,-1.7865,-1.9035,-1.9609,-2.0029,-2.0469,-2.0566,-2.0566,-2.0566,-2.0566,-2.0566,-2.0566,-2.0566,-2.0323,-1.952,-1.9204,-1.855,-1.7423,-1.7009,-1.6764,-1.6445,-1.5711,-1.5296,-1.5296,-1.4573,-1.425,-1.4489,-1.5304,-1.6355,-1.7747,-1.8559,-1.952,-2.0566,-2.0566,-2.0245,-1.9441,-1.9441,-1.9441,-1.9441,-1.831,-1.839,-2.7598,-2.7539,-2.6972,-2.1823,-2.1143,-2.061,-1.6314,-1.7189,-1.8708,-1.7907,-1.9638,-2.0831,-1.9246,-1.8907,-1.8061,-1.5593,-1.6574,0.0,0.0,0.0,0.0,0.0,0.0,0.0,0.0,0.0,0.0,0.0,0.0,0.0,-3.1496,-3.1789,-3.164,-3.123,-3.0617,-3.0351,-3.0351,-2.9717,-2.9406,-2.9406,-2.8826,-2.8128,-2.746,-2.7565,-2.6811,-2.5453,-2.6176,-2.5673,-2.4292,-2.4292,-2.3826,-2.3005,-2.2249,-2.1428,-2.0655,-2.0655,-2.0074,-1.889,-1.6201,-1.4019,-1.2372,-1.2298,-1.2305,-1.2305,-1.2305,-1.2305,-1.2519,-1.3455,-1.4378,-1.5376,-1.6358,-1.7586,-1.8669,-1.918,-1.9609,-2.0029,-2.0469,-2.0566,-2.0566,-2.0566,-2.0566,-2.0566,-2.0566,-2.0566,-2.0566,-2.0557,-1.9678,-1.855,-1.7423,-1.6355,-1.5379,-1.4334,-1.4173,-1.4166,-1.4166,-1.4088,-1.4573,-1.5621,-1.5696,-1.6675,-1.8877,-1.8957,-1.952,-2.0566,-2.0566,-2.0566,-2.0566,-2.0566,-2.0566,-2.0489,-1.9441,-1.952,0.0,0.0,-2.8906,-2.4237,0.0,0.0,-1.7128,-1.7161,-1.7734,-1.6349,-1.8523,-2.0177,-1.8465,-1.7696,-1.7061,-1.6195,-1.5918,-1.5115,0.0,-1.2743,0.0,0.0,0.0,0.0,0.0,0.0,0.0,0.0,0.0,0.0,0.0,-3.101,-3.073,-3.0617,-3.0038,-2.9717,-2.9717,-2.9088,-2.8779,-2.8779,-2.8174,-2.778,-2.7515,-2.7071,-2.6336,-2.5398,-2.5119,-2.4452,-2.3484,-2.3484,-2.3365,-2.3005,-2.2187,-2.1365,-2.0526,-1.9944,-1.9177,-1.8182,-1.6636,-1.4871,-1.3237,-1.3237,-1.2806,-1.2305,-1.2305,-1.2732,-1.3455,-1.445,-1.5384,-1.6306,-1.7285,-1.8305,-1.9102,-1.9248,-1.9834,-2.0391,-2.0537,-2.0001,-1.9756,-2.0479,-2.0001,-1.9766,-2.0479,-2.0566,-2.0323,-1.9678,-1.9195,-1.855,-1.7423,-1.6355,-1.5538,-1.522,-1.4489,-1.4088,-1.4088,-1.4734,-1.5628,-1.6683,-1.7496,-1.8221,-1.8957,-1.9678,-2.0245,-2.0566,-2.0566,-2.0566,-2.0566,-2.0566,-2.0566,-2.0566,-2.0245,-2.0245,-2.8848,-2.957,0.0,-2.541,-2.3981,0.0,-1.8456,0.0,-1.9156,-1.7771,-1.9463,-2.1136,-2.0945,-1.9232,-1.785,-1.785,-1.6685,-1.496,0.0,-1.2031,0.0,0.0,0.0,0.0,0.0,0.0,0.0,0.0,0.0,0.0,0.0,0.0,-2.9978,-2.9978,-2.9406,-2.9088,-2.9088,-2.8496,-2.8189,-2.8189,-2.781,-2.7458,-2.7188,-2.6721,-2.596,-2.4951,-2.4509,-2.3826,-2.3078,-2.3078,-2.3078,-2.3005,-2.1865,-2.1101,-2.0462,-1.9628,-1.8566,-1.7432,-1.6793,-1.5587,-1.4171,-1.3818,-1.352,-1.323,-1.2879,-1.3455,-1.445,-1.5438,-1.6158,-1.6802,-1.7725,-1.8643,-1.9287,-1.9287,-1.9941,-2.0566,-2.0566,-2.0079,-1.9756,-2.0489,-2.0001,-1.9766,-2.0479,-2.0566,-2.0401,-1.9678,-1.9599,-1.9195,-1.8069,-1.7334,-1.6756,-1.6273,-1.5628,-1.5228,-1.5228,-1.5869,-1.6764,-1.7827,-1.855,-1.9195,-1.952,-2.0235,-2.0566,-2.0566,-2.0566,-2.0566,-2.0566,-2.0566,-2.0789,-2.1078,-2.0789,-2.0789]},{"header":{"parameterUnit":"m.s-1","parameterCategory":1,"la1":30.6,"la2":29.2853,"lo1":-89.7004,"lo2":-87.6739,"dx":0.0162,"dy":0.0183,"nx":112,"ny":82,"refTime":"2022-12-31T06:00:00:Z","depth":0,"parameterNumber":3,"parameterNumberName":"V-component_of_WINDS"},"data":[0.0,0.0,0.0,0.0,0.0,0.0,0.0,0.0,0.0,0.0,0.0,0.0,0.0,0.0,0.0,0.0,0.0,0.0,0.0,0.0,0.0,0.0,0.0,0.0,0.0,0.0,0.0,0.0,0.0,0.0,0.0,0.0,0.0,0.0,0.0,0.0,0.0,0.0,0.0,0.0,0.0,0.0,0.0,0.0,0.0,0.0,0.0,0.0,0.0,0.0,0.0,0.0,0.0,0.0,0.0,0.0,0.0,0.0,0.0,0.0,0.0,0.0,0.0,0.0,0.0,0.0,0.0,0.0,0.0,0.0,0.0,0.0,0.0,0.0,0.0,0.0,0.0,0.0,0.0,0.0,0.0,0.0,0.0,0.0,0.0,0.0,0.0,0.0,0.0,0.0,-0.3698,-0.3866,-0.4288,-0.4519,-0.4519,-0.566,-0.6003,-0.4969,0.0,0.0,0.0,0.0,0.0,0.0,0.0,0.0,0.0,0.0,0.0,0.0,0.0,0.0,0.0,0.0,0.0,0.0,0.0,0.0,0.0,0.0,0.0,0.0,0.0,0.0,0.0,0.0,0.0,0.0,0.0,0.0,0.0,0.0,0.0,0.0,0.0,0.0,0.0,0.0,0.0,0.0,0.0,0.0,0.0,0.0,0.0,0.0,0.0,0.0,0.0,0.0,0.0,0.0,0.0,0.0,0.0,0.0,0.0,0.0,0.0,0.0,0.0,0.0,0.0,0.0,0.0,0.0,0.0,0.0,0.0,0.0,0.0,0.0,0.0,0.0,0.0,0.0,0.0,0.0,0.0,0.0,0.0,0.0,0.0,0.0,0.0,0.0,0.0,0.0,0.0,0.0,0.0,0.0,0.0,0.0,0.0,0.0,0.0,0.0,0.0,0.0,0.0,0.0,-0.3792,-0.433,-0.4477,-0.4519,-0.4519,-0.5222,-0.543,-0.4921,0.0,0.0,0.0,0.0,0.0,0.0,0.0,0.0,0.0,0.0,0.0,0.0,0.0,0.0,0.0,0.0,0.0,0.0,0.0,0.0,0.0,0.0,0.0,0.0,0.0,0.0,0.0,0.0,0.0,0.0,0.0,0.0,0.0,0.0,0.0,0.0,0.0,0.0,0.0,0.0,0.0,0.0,0.0,0.0,0.0,0.0,0.0,0.0,0.0,0.0,0.0,0.0,0.0,0.0,0.0,0.0,0.0,0.0,0.0,0.0,0.0,0.0,0.0,0.0,0.0,0.0,0.0,0.0,0.0,0.0,0.0,0.0,0.0,0.0,0.0,0.0,0.0,0.0,0.0,0.0,0.0,0.0,0.0,0.0,0.0,0.0,0.0,0.0,0.0,0.0,0.0,0.0,0.0,0.0,0.0,0.0,0.0,0.0,0.0,0.0,0.0,0.0,0.0,-0.3813,-0.4057,-0.4446,-0.4519,-0.4519,-0.4519,-0.5113,-0.5328,-0.4925,-0.5579,0.0,0.0,0.0,0.0,0.0,0.0,0.0,0.0,0.0,0.0,0.0,0.0,0.0,0.0,0.0,0.0,0.0,0.0,0.0,0.0,0.0,0.0,0.0,0.0,0.0,0.0,0.0,0.0,0.0,0.0,0.0,0.0,0.0,0.0,0.0,0.0,0.0,0.0,0.0,0.0,0.0,0.0,0.0,0.0,0.0,0.0,0.0,0.0,0.0,0.0,0.0,0.0,0.0,0.0,0.0,0.0,0.0,0.0,0.0,0.0,0.0,0.0,0.0,0.0,0.0,0.0,0.0,0.0,0.0,0.0,0.0,0.0,0.0,0.0,0.0,0.0,0.0,0.0,0.0,0.0,0.0,0.0,0.0,0.0,0.0,0.0,0.0,0.0,0.0,0.0,0.0,0.0,0.0,0.0,0.0,0.0,0.0,0.0,0.0,0.0,0.0,0.0,-0.4613,-0.4781,-0.4747,-0.4732,-0.468,-0.4519,-0.5113,-0.5328,-0.4925,-0.5269,0.0,0.0,0.0,0.0,0.0,0.0,0.0,0.0,0.0,0.0,0.0,0.0,0.0,0.0,0.0,0.0,0.0,0.0,0.0,0.0,0.0,0.0,0.0,0.0,0.0,0.0,0.0,0.0,0.0,0.0,0.0,0.0,0.0,0.0,0.0,0.0,0.0,0.0,0.0,0.0,0.0,0.0,0.0,0.0,0.0,0.0,0.0,0.0,0.0,0.0,0.0,0.0,0.0,0.0,0.0,0.0,0.0,0.0,0.0,0.0,0.0,0.0,0.0,0.0,0.0,0.0,0.0,0.0,0.0,0.0,0.0,0.0,0.0,0.0,0.0,0.0,0.0,0.0,0.0,0.0,0.0,0.0,0.0,0.0,0.0,0.0,0.0,0.0,0.0,0.0,0.0,0.0,0.0,0.0,0.0,0.0,0.0,0.0,0.0,0.0,0.0,0.0,-0.6018,-0.6157,-0.5483,-0.5433,-0.5164,-0.457,-0.5113,-0.5328,-0.4925,-0.5269,0.0,0.0,0.0,0.0,0.0,0.0,0.0,0.0,0.0,0.0,0.0,0.0,0.0,0.0,0.0,0.0,0.0,0.0,0.0,0.0,0.0,0.0,0.0,0.0,0.0,0.0,0.0,0.0,0.0,0.0,0.0,0.0,0.0,0.0,0.0,0.0,0.0,0.0,0.0,0.0,0.0,0.0,0.0,0.0,0.0,0.0,0.0,0.0,0.0,0.0,0.0,0.0,0.0,0.0,0.0,0.0,0.0,0.0,0.0,0.0,0.0,0.0,0.0,0.0,0.0,0.0,0.0,0.0,0.0,0.0,0.0,0.0,0.0,0.0,0.0,0.0,0.0,0.0,0.0,0.0,0.0,0.0,0.0,0.0,0.0,0.0,0.0,0.0,0.0,0.0,0.0,0.0,0.0,0.0,0.0,0.0,0.0,0.0,0.0,0.0,0.0,0.0,-0.6439,-0.6856,-0.6264,-0.6204,-0.6095,-0.5823,-0.6041,-0.6141,-0.5987,0.0,0.0,0.0,0.0,0.0,0.0,0.0,0.0,0.0,0.0,0.0,0.0,0.0,0.0,0.0,0.0,0.0,0.0,0.0,0.0,0.0,0.0,0.0,0.0,0.0,0.0,0.0,0.0,0.0,0.0,0.0,0.0,0.0,0.0,0.0,0.0,0.0,0.0,0.0,0.0,0.0,0.0,0.0,0.0,0.0,0.0,0.0,0.0,0.0,0.0,0.0,0.0,0.0,0.0,0.0,0.0,0.0,0.0,0.0,0.0,0.0,0.0,0.0,0.0,0.0,0.0,0.0,0.0,0.0,0.0,0.0,0.0,0.0,0.0,0.0,0.0,0.0,0.0,0.0,0.0,0.0,0.0,0.0,0.0,0.0,0.0,0.0,0.0,0.0,0.0,0.0,0.0,0.0,0.0,0.0,0.0,0.0,0.0,0.0,0.0,0.0,0.0,-0.6478,-0.7777,-0.8379,-0.737,-0.7272,-0.7111,-0.6642,-0.7009,-0.7018,-0.642,0.0,0.0,0.0,0.0,0.0,0.0,0.0,0.0,0.0,0.0,0.0,0.0,0.0,0.0,0.0,0.0,0.0,0.0,0.0,0.0,0.0,0.0,0.0,0.0,0.0,0.0,0.0,0.0,0.0,0.0,0.0,0.0,0.0,0.0,0.0,0.0,0.0,0.0,0.0,0.0,0.0,0.0,0.0,0.0,0.0,0.0,0.0,0.0,0.0,0.0,0.0,0.0,0.0,0.0,0.0,0.0,0.0,0.0,0.0,0.0,0.0,0.0,0.0,0.0,0.0,0.0,0.0,0.0,0.0,0.0,0.0,0.0,0.0,0.0,0.0,0.0,0.0,0.0,0.0,0.0,0.0,0.0,0.0,0.0,0.0,0.0,0.0,0.0,0.0,0.0,0.0,0.0,0.0,0.0,0.0,0.0,0.0,0.0,0.0,0.0,0.0,0.0,-0.8412,-1.0351,-1.0948,-0.894,-0.8738,-0.8165,-0.675,-0.7953,-0.7908,0.0,0.0,0.0,0.0,0.0,0.0,0.0,0.0,0.0,0.0,0.0,0.0,0.0,0.0,0.0,0.0,0.0,0.0,0.0,0.0,0.0,0.0,0.0,0.0,0.0,0.0,0.0,0.0,0.0,0.0,0.0,0.0,0.0,0.0,0.0,0.0,0.0,0.0,0.0,0.0,0.0,0.0,0.0,0.0,0.0,0.0,0.0,0.0,0.0,0.0,0.0,0.0,0.0,0.0,0.0,0.0,0.0,0.0,0.0,0.0,0.0,0.0,0.0,0.0,0.0,0.0,0.0,0.0,0.0,0.0,0.0,0.0,0.0,0.0,0.0,0.0,0.0,0.0,0.0,0.0,0.0,0.0,0.0,0.0,0.0,0.0,0.0,0.0,0.0,0.0,0.0,0.0,0.0,0.0,0.0,0.0,0.0,0.0,0.0,0.0,0.0,0.0,0.0,-0.9063,-1.1286,-1.248,-1.1438,-1.095,-1.05,-1.0113,-1.0119,-0.9597,-0.818,0.0,0.0,0.0,0.0,0.0,0.0,0.0,0.0,0.0,0.0,0.0,0.0,0.0,0.0,0.0,0.0,0.0,0.0,0.0,0.0,0.0,0.0,0.0,0.0,0.0,0.0,0.0,0.0,0.0,0.0,0.0,0.0,0.0,0.0,0.0,0.0,0.0,0.0,0.0,0.0,0.0,0.0,0.0,0.0,0.0,0.0,0.0,0.0,0.0,0.0,0.0,0.0,0.0,0.0,0.0,0.0,0.0,0.0,0.0,0.0,0.0,0.0,0.0,0.0,0.0,0.0,0.0,0.0,0.0,0.0,0.0,0.0,0.0,0.0,0.0,0.0,0.0,0.0,0.0,0.0,0.0,0.0,0.0,0.0,0.0,0.0,0.0,0.0,0.0,0.0,0.0,0.0,0.0,0.0,0.0,0.0,0.0,0.0,0.0,0.0,0.0,0.0,-1.0042,-1.2672,-1.4073,-1.2726,-1.225,-1.1799,-1.1247,-1.1192,-1.0766,-0.9759,0.0,0.0,0.0,0.0,0.0,0.0,0.0,0.0,0.0,0.0,0.0,0.0,0.0,0.0,0.0,0.0,0.0,0.0,0.0,0.0,0.0,0.0,0.0,0.0,0.0,0.0,0.0,0.0,0.0,0.0,0.0,0.0,0.0,0.0,0.0,0.0,0.0,0.0,0.0,0.0,0.0,0.0,0.0,0.0,0.0,0.0,0.0,0.0,0.0,0.0,0.0,0.0,0.0,0.0,0.0,0.0,0.0,0.0,0.0,0.0,0.0,0.0,0.0,0.0,0.0,0.0,0.0,0.0,0.0,0.0,0.0,0.0,0.0,0.0,0.0,0.0,0.0,0.0,0.0,0.0,0.0,0.0,0.0,0.0,0.0,0.0,0.0,0.0,0.0,0.0,0.0,0.0,0.0,0.0,0.0,0.0,0.0,0.0,0.0,0.0,0.0,0.0,-1.1245,-1.4324,-1.5703,-1.3488,-1.3212,-1.2704,-1.1463,-1.1846,-1.1865,-1.1214,0.0,0.0,0.0,0.0,0.0,0.0,0.0,0.0,0.0,0.0,0.0,0.0,0.0,0.0,0.0,0.0,0.0,0.0,0.0,0.0,0.0,0.0,0.0,0.0,0.0,0.0,0.0,0.0,0.0,0.0,0.0,0.0,0.0,0.0,0.0,0.0,0.0,0.0,0.0,0.0,0.0,0.0,0.0,0.0,0.0,0.0,0.0,0.0,0.0,0.0,0.0,0.0,0.0,0.0,0.0,0.0,0.0,0.0,0.0,0.0,-0.9548,0.0,0.0,0.0,0.0,0.0,0.0,0.0,0.0,0.0,0.0,0.0,0.0,0.0,0.0,0.0,0.0,0.0,0.0,0.0,0.0,0.0,0.0,0.0,0.0,0.0,0.0,0.0,0.0,0.0,0.0,0.0,0.0,0.0,0.0,0.0,0.0,0.0,0.0,0.0,0.0,0.0,-1.2499,-1.5427,-1.739,-1.6848,-1.6416,-1.6,-1.5678,-1.5103,-1.4506,-1.3978,-1.2708,0.0,0.0,0.0,0.0,0.0,0.0,0.0,0.0,0.0,0.0,0.0,0.0,0.0,0.0,0.0,0.0,0.0,0.0,0.0,0.0,0.0,0.0,0.0,0.0,0.0,0.0,0.0,0.0,0.0,0.0,0.0,0.0,0.0,0.0,0.0,0.0,0.0,0.0,0.0,0.0,0.0,0.0,0.0,0.0,0.0,0.0,0.0,0.0,0.0,0.0,0.0,0.0,0.0,0.0,0.0,0.0,0.0,0.0,0.0,0.0,-1.0704,0.0,0.0,0.0,0.0,0.0,0.0,0.0,0.0,0.0,0.0,0.0,0.0,0.0,0.0,0.0,0.0,0.0,0.0,0.0,0.0,0.0,0.0,0.0,0.0,0.0,0.0,0.0,0.0,0.0,0.0,0.0,0.0,0.0,0.0,0.0,0.0,0.0,0.0,0.0,0.0,-1.3884,-1.7036,-1.9033,-1.816,-1.7751,-1.7337,-1.6775,-1.65,-1.6383,-1.6451,-1.5404,0.0,0.0,0.0,0.0,0.0,0.0,0.0,0.0,0.0,0.0,0.0,0.0,0.0,0.0,0.0,0.0,0.0,0.0,0.0,0.0,0.0,0.0,0.0,0.0,0.0,0.0,0.0,0.0,0.0,0.0,0.0,0.0,0.0,0.0,0.0,0.0,0.0,0.0,0.0,0.0,0.0,0.0,0.0,0.0,0.0,0.0,0.0,0.0,0.0,0.0,0.0,0.0,0.0,-1.2803,-1.3734,-1.4985,-1.5208,-1.6081,-1.7368,-1.5665,-1.4793,-1.4417,-1.258,0.0,0.0,0.0,0.0,0.0,0.0,0.0,0.0,0.0,0.0,0.0,0.0,0.0,0.0,0.0,0.0,0.0,0.0,0.0,0.0,0.0,0.0,-1.3323,-1.3659,-1.5125,-1.5861,-1.3578,0.0,0.0,0.0,0.0,0.0,0.0,0.0,0.0,0.0,0.0,0.0,-1.5695,-1.8861,-2.0471,-1.8983,-1.8797,-1.839,-1.7419,-1.7702,-1.8235,-1.8911,-1.804,-1.8154,0.0,0.0,0.0,0.0,0.0,0.0,0.0,0.0,0.0,0.0,0.0,0.0,0.0,0.0,0.0,0.0,0.0,0.0,0.0,0.0,0.0,0.0,0.0,0.0,0.0,0.0,0.0,0.0,0.0,0.0,0.0,0.0,-0.5663,-0.6296,0.0,0.0,0.0,0.0,0.0,0.0,0.0,0.0,0.0,0.0,0.0,0.0,0.0,-1.0676,-1.0749,-1.2429,-1.3408,-1.3719,-1.5632,-1.7216,-1.8483,-1.9611,-2.024,-2.0452,-2.0712,0.0,-1.6332,-1.6033,0.0,0.0,0.0,0.0,0.0,0.0,0.0,0.0,0.0,0.0,0.0,0.0,0.0,0.0,0.0,0.0,0.0,0.0,0.0,0.0,0.0,0.0,-1.8322,-1.8933,-1.9293,-1.9419,-1.9059,-1.6229,-1.3726,-1.3515,-1.3541,-1.3087,0.0,0.0,0.0,0.0,0.0,0.0,-1.8563,-2.0478,-2.1498,-2.1251,-2.125,-2.1165,-2.1009,-2.0656,-2.084,-2.1882,-2.1367,-2.0813,-2.0397,-1.928,0.0,0.0,0.0,0.0,0.0,0.0,0.0,0.0,0.0,0.0,0.0,0.0,0.0,0.0,0.0,0.0,0.0,0.0,0.0,0.0,0.0,0.0,0.0,0.0,0.0,0.0,0.0,0.0,0.0,-0.5739,-0.6334,-0.6364,-0.6819,-0.678,0.0,0.0,0.0,0.0,0.0,0.0,0.0,0.0,0.0,-1.1777,-1.2194,-1.2866,-1.38,-1.4763,-1.5386,-1.5508,-1.69,-1.8077,-1.9112,-2.0111,-2.0816,-2.1329,-2.1881,-2.1247,-1.9745,-1.8353,-1.7032,-1.5737,0.0,0.0,0.0,0.0,-1.3123,-1.3007,-1.3587,-1.341,-1.2851,-1.194,0.0,0.0,0.0,0.0,0.0,0.0,0.0,-1.5272,0.0,-1.8968,-1.8934,-1.9863,-2.0344,-2.0557,-2.0557,-1.9373,-1.8007,-1.6894,-1.6622,-1.571,-1.2969,-1.3798,0.0,0.0,0.0,-1.8994,-2.0452,-2.2117,-2.2988,-2.2336,-2.2235,-2.21,-2.1744,-2.2093,-2.2556,-2.3014,-2.3894,-2.4061,-2.329,-2.219,-2.0442,0.0,0.0,0.0,0.0,0.0,0.0,0.0,0.0,0.0,0.0,0.0,0.0,0.0,0.0,0.0,0.0,0.0,0.0,0.0,0.0,0.0,0.0,0.0,0.0,0.0,0.0,0.0,0.0,-0.6722,-0.7114,-0.681,-0.7407,-0.7457,0.0,0.0,0.0,0.0,0.0,0.0,-1.047,-1.1168,-1.2227,-1.3799,-1.4074,-1.4744,-1.5889,-1.6513,-1.6753,-1.6634,-1.7567,-1.8379,-1.9021,-1.9908,-2.0685,-2.1305,-2.1857,-2.2184,-2.2163,-2.0482,-1.9516,-1.8999,-1.7726,-1.695,-1.6516,-1.625,-1.5968,-1.5787,-1.6362,-1.6244,-1.5742,-1.4846,-1.4836,-1.4964,-1.3862,0.0,0.0,0.0,0.0,-1.7784,-1.9281,-1.9826,-2.0245,-2.1282,-2.1831,-2.206,-2.1885,-2.2031,-2.1738,-2.0131,-1.9762,-1.8712,-1.569,-1.6903,0.0,-1.6225,-1.9001,-2.1553,-2.2366,-2.3577,-2.4127,-2.3405,-2.3201,-2.301,-2.2624,-2.3417,-2.3983,-2.4148,-2.5835,-2.6622,-2.6194,-2.5367,-2.4334,-2.3073,0.0,0.0,0.0,0.0,0.0,0.0,0.0,0.0,0.0,0.0,0.0,0.0,0.0,0.0,0.0,0.0,0.0,0.0,0.0,0.0,0.0,0.0,0.0,0.0,0.0,0.0,0.0,0.0,0.0,-0.8399,-0.8695,0.0,0.0,0.0,0.0,-0.9506,-1.0403,-1.1271,-1.2153,-1.3715,-1.4648,-1.4717,-1.5527,-1.5801,-1.5449,-1.6583,-1.6936,-1.6509,-1.7975,-1.8691,-1.8756,-2.0064,-2.0702,-2.0794,-2.1292,-2.1832,-2.2347,-2.2727,-2.1976,-2.0614,-2.0501,-1.9497,-1.8131,-1.8657,-1.8783,-1.8771,-1.8821,-1.8449,-1.7953,-1.7939,-1.7661,-1.7451,-1.7987,-1.8082,0.0,0.0,-2.1627,-2.199,-2.4565,-2.4772,-2.4563,-2.5188,-2.5359,-2.5194,-2.4567,-2.391,-2.3379,-2.2964,-2.2892,-2.2442,-2.1042,0.0,-2.1032,-2.1124,-2.133,-2.2346,-2.4708,-2.4634,-2.4576,-2.5012,-2.4617,-2.4496,-2.4957,-2.5089,-2.5335,-2.5852,-2.6972,-2.7861,-2.8308,-2.8831,-2.7804,-2.5104,-2.3594,0.0,0.0,0.0,0.0,0.0,0.0,0.0,0.0,0.0,0.0,0.0,0.0,0.0,0.0,0.0,0.0,0.0,0.0,0.0,0.0,0.0,0.0,0.0,0.0,0.0,0.0,0.0,0.0,-0.8215,-0.8771,0.0,-0.8152,-0.8604,-0.963,-1.1238,-1.2023,-1.3077,-1.4676,-1.5303,-1.5664,-1.5664,-1.6095,-1.6257,-1.6093,-1.7038,-1.7366,-1.7202,-1.8232,-1.8623,-1.844,-1.9125,-1.9582,-1.9867,-2.0183,-2.0668,-2.133,-2.2234,-2.2472,-2.2304,-2.2807,-2.2656,-2.2109,-2.1914,-2.1878,-2.183,-2.0989,-2.0584,-2.0422,-2.0448,-2.0,-1.9779,-2.1377,-2.1813,-2.212,-2.3881,-2.4311,-2.4428,-2.5373,-2.5458,-2.5349,-2.5553,-2.5615,-2.5435,-2.4731,-2.4388,-2.4187,-2.3966,-2.3591,-2.2765,-2.1181,-2.2492,-2.3242,-2.1722,-2.3161,-2.4722,-2.5595,-2.554,-2.5373,-2.5221,-2.5028,-2.4989,-2.5182,-2.554,-2.6125,-2.7041,-2.804,-2.9044,-3.0,-3.0622,-3.0216,-2.8693,-2.8334,-2.5542,0.0,0.0,0.0,0.0,0.0,0.0,0.0,0.0,0.0,0.0,0.0,0.0,0.0,0.0,0.0,0.0,0.0,0.0,0.0,0.0,0.0,0.0,0.0,0.0,0.0,-0.9455,-1.005,-0.8848,-0.934,-0.9578,-0.8926,-0.9694,-1.1005,-1.2804,-1.3716,-1.48,-1.6218,-1.6289,-1.6343,-1.6487,-1.6502,-1.6492,-1.6492,-1.7468,-1.7743,-1.7246,-1.8221,-1.846,-1.8058,-1.8274,-1.8635,-1.9183,-1.925,-1.9806,-2.0781,-2.1455,-2.2184,-2.2934,-2.3923,-2.4452,-2.4557,-2.3718,-2.3447,-2.3427,-2.2086,-2.1814,-2.2053,-2.2053,-2.1843,-2.1913,-2.3522,-2.418,-2.4534,-2.5655,-2.6093,-2.6273,-2.6273,-2.6273,-2.6273,-2.6273,-2.6273,-2.6093,-2.5435,-2.5121,-2.4837,-2.4521,-2.4066,-2.3406,-2.2394,-2.3877,-2.4553,-2.2653,-2.4439,-2.5914,-2.5631,-2.5812,-2.5924,-2.5709,-2.5561,-2.5621,-2.6052,-2.5504,-2.6051,-2.8203,-2.847,-2.9386,-3.1347,-3.1002,-3.0509,-2.9983,-2.9683,-2.6553,-2.0479,0.0,0.0,0.0,0.0,0.0,0.0,0.0,0.0,0.0,0.0,0.0,0.0,0.0,0.0,0.0,0.0,0.0,0.0,0.0,0.0,0.0,0.0,0.0,-0.9073,-1.0428,-1.1216,-1.0412,-1.0527,-1.0547,-1.0361,-1.1352,-1.2597,-1.4079,-1.5387,-1.629,-1.6724,-1.6758,-1.6854,-1.7165,-1.6754,-1.6503,-1.6492,-1.795,-1.7961,-1.6539,-1.795,-1.8286,-1.76,-1.7589,-1.7961,-1.8632,-1.8661,-1.94,-2.0639,-2.0652,-2.1348,-2.2425,-2.3799,-2.4768,-2.5273,-2.3955,-2.3528,-2.3474,-2.2214,-2.2207,-2.274,-2.274,-2.3098,-2.3729,-2.4373,-2.5076,-2.5719,-2.6393,-2.7051,-2.7595,-2.756,-2.7625,-2.7625,-2.7625,-2.7625,-2.7445,-2.6737,-2.6093,-2.5435,-2.4716,-2.4493,-2.4567,-2.5067,-2.5182,-2.4958,-2.4249,-2.5175,0.0,-2.4937,-2.5551,-2.6175,-2.6624,-2.6264,-2.6493,-2.7671,-2.5184,-2.5282,-2.9447,-2.8353,-2.9057,-3.244,-3.017,-2.8836,-2.8812,-2.739,-2.5861,-2.4201,0.0,0.0,0.0,0.0,0.0,0.0,0.0,0.0,0.0,0.0,0.0,0.0,0.0,0.0,0.0,0.0,0.0,0.0,0.0,0.0,0.0,-1.0131,-1.0918,-1.0024,-1.1064,-1.1575,-1.0885,-1.1039,-1.1075,-1.0863,-1.13,-1.238,-1.4412,-1.4916,-1.5851,-1.758,-1.7373,-1.7066,-1.6874,-1.6948,-1.6827,-1.6492,-1.7413,-1.7688,-1.7302,-1.7688,-1.7712,-1.7323,-1.697,-1.7116,-1.7589,-1.7845,-1.8422,-1.9352,-2.0316,-2.1192,-2.2074,-2.3771,-2.4833,-2.5439,-2.5586,-2.5067,-2.4219,-2.3909,-2.3599,-2.3363,-2.3363,-2.3465,-2.3729,-2.4373,-2.4701,-2.5136,-2.6273,-2.6722,-2.6976,-2.744,-2.7625,-2.7625,-2.7625,-2.7625,-2.7445,-2.6737,-2.6452,-2.5989,-2.4806,-2.4552,-2.4427,-2.4082,-2.4348,-2.4673,-2.4888,-2.5538,-2.6038,-2.6151,-2.637,-2.6337,-2.5964,-2.5798,-2.6217,-2.7405,-2.6761,-2.7853,-3.1483,-3.1313,-3.1996,-3.4011,-3.2994,-3.1947,-3.0963,-2.7525,-2.5269,0.0,0.0,0.0,0.0,0.0,0.0,0.0,0.0,0.0,0.0,0.0,0.0,0.0,0.0,0.0,0.0,0.0,0.0,0.0,0.0,0.0,0.0,-1.098,-1.1676,-1.1045,-1.1804,-1.2215,-1.1424,-1.151,-1.1543,-1.1376,-1.1854,-1.2706,-1.3992,-1.4965,-1.6049,-1.7345,-1.7224,-1.7111,-1.7159,-1.7007,-1.6764,-1.6492,-1.7246,-1.7401,-1.6984,-1.727,-1.7307,-1.6992,-1.6524,-1.6639,-1.7221,-1.7137,-1.7578,-1.8298,-1.9395,-2.0241,0.0,0.0,0.0,0.0,0.0,-2.5836,-2.4889,-2.465,-2.4313,-2.3984,-2.3684,-2.3595,-2.367,-2.4073,-2.4403,-2.4746,-2.5555,-2.6168,-2.6677,-2.7066,-2.7415,-2.7625,-2.7625,-2.7625,-2.7505,-2.7081,-2.6782,-2.6288,-2.5241,-2.4972,0.0,-2.4028,-2.4184,-2.4523,-2.497,-2.5566,-2.6191,-2.6657,-2.6962,-2.7131,-2.7029,-2.7012,-2.7487,-2.867,-2.7639,0.0,0.0,0.0,-3.1592,-3.2357,-3.1737,0.0,0.0,0.0,0.0,0.0,0.0,0.0,0.0,-2.3631,-2.2906,0.0,0.0,0.0,0.0,0.0,0.0,0.0,0.0,0.0,0.0,0.0,0.0,0.0,0.0,0.0,0.0,-1.1658,-1.2409,-1.2148,-1.2622,-1.2763,-1.206,-1.1917,-1.1917,-1.1917,-1.2685,-1.3242,-1.3319,-1.5253,-1.6498,-1.6558,0.0,0.0,0.0,0.0,-1.6555,-1.6452,-1.7164,-1.7037,-1.6125,-1.6828,-1.7012,-1.6719,-1.6318,-1.6528,-1.7044,-1.6743,-1.692,-1.7523,-1.834,-1.909,-1.9963,-2.2535,-2.4419,-2.5778,-2.6466,-2.6223,-2.5575,-2.5008,0.0,0.0,-2.3939,-2.3759,-2.3804,-2.3655,-2.4088,-2.4597,-2.4672,-2.5585,-2.6512,-2.6662,-2.7126,-2.7625,-2.7625,-2.7625,-2.7625,-2.7625,-2.7111,-2.6482,-2.5749,-2.5559,-2.5319,-2.4611,-2.4552,-2.465,-2.4895,-2.5584,-2.626,-2.6776,-2.7402,-2.8078,-2.888,-2.8948,0.0,-3.0611,-2.8347,-2.8826,-3.3427,-3.1385,-2.9867,-2.9514,-2.8805,-2.8047,-2.7257,-2.7307,-2.8434,-3.0694,-3.0789,-3.1226,-3.1832,-2.5695,-2.4538,0.0,0.0,0.0,0.0,0.0,0.0,0.0,0.0,0.0,0.0,0.0,0.0,0.0,0.0,0.0,-1.1764,-1.2284,-1.2694,-1.3279,-1.2868,-1.2364,-1.2218,-1.2218,-1.2218,-1.2218,-1.2364,-1.2795,-1.3576,-1.4767,-1.579,-1.6567,-1.7349,-1.7674,-1.7451,-1.7273,-1.6901,-1.6178,-1.6647,-1.6636,-1.6135,0.0,0.0,-1.6728,-1.6641,-1.6458,-1.6357,-1.6853,-1.6953,-1.6821,-1.8167,-1.9424,-2.0752,-2.3286,-2.4829,-2.5742,-2.6956,-2.6986,-2.6381,-2.624,-2.5869,-2.5315,-2.4642,-2.4792,-2.5016,-2.3924,-2.4088,0.0,-2.527,-2.56,-2.6033,-2.7111,-2.752,-2.7625,-2.7625,-2.7625,-2.7625,-2.7625,-2.752,-2.7036,-2.5839,-2.594,-2.5948,-2.5156,-2.5411,-2.5713,-2.5779,-2.6232,-2.6809,-2.7485,-2.7688,-2.7998,-2.8541,-2.8591,-2.9208,-3.0729,-3.0602,-3.1573,-3.4317,-3.372,-3.2691,-3.1359,-3.1148,-3.0698,-2.9952,-2.9965,-3.0214,-3.0703,-3.1411,-3.1814,-3.1892,-3.054,-3.0608,0.0,0.0,0.0,0.0,0.0,0.0,0.0,0.0,0.0,0.0,0.0,-0.6866,-0.8886,0.0,-1.1008,-1.2002,-1.2283,-1.2522,-1.2903,-1.2592,-1.2305,-1.2305,-1.2305,-1.2305,-1.2305,-1.2305,-1.2519,-1.2952,-1.4378,-1.5376,-1.586,-1.703,-1.7598,-1.7393,-1.7168,-1.6846,-1.6406,-1.6621,-1.6728,-1.6728,-1.6953,-1.7168,-1.7363,-1.7158,-1.6934,-1.6762,-1.6678,-1.6526,-1.641,-1.7612,-1.8762,-1.9904,-2.226,-2.392,-2.5237,-2.6568,-2.7081,-2.7036,-2.6707,-2.6378,-2.5989,-2.533,-2.5345,-2.548,-2.4807,-2.4837,-2.5196,-2.551,-2.5839,-2.6243,-2.6916,-2.732,-2.7625,-2.7625,-2.781,-2.8042,-2.8042,-2.8271,-2.8186,-2.7208,-2.7434,-2.757,-2.6828,-2.7139,-2.7236,-2.6484,-2.6556,-2.7029,-2.7964,-2.8459,-2.9023,-2.9817,-3.0267,-3.0924,-3.1957,-3.2275,-3.2929,-3.4168,-3.3455,-3.2648,-3.1885,-3.1455,-3.1119,-3.0814,-3.0728,-3.0915,-3.1348,-3.1712,-3.2321,-3.3102,-3.3079,-3.328,0.0,0.0,0.0,0.0,0.0,0.0,0.0,-0.4133,-0.4315,-0.6059,-0.675,-0.7654,-0.9669,-1.0648,-1.1336,-1.187,-1.2151,-1.2305,-1.2305,-1.2305,-1.2305,-1.2305,-1.2305,-1.2305,-1.2305,-1.2305,-1.2378,-1.2592,-1.4235,-1.5305,-1.5446,-1.6773,-1.75,-1.75,-1.7168,-1.6943,-1.6865,-1.6943,-1.7109,-1.7383,-1.7471,-1.7686,-1.7998,-1.7656,-1.7461,-1.7344,-1.6533,-1.6325,-1.6627,-1.7538,-1.8412,-1.9437,-2.1212,-2.2869,-2.4445,-2.5885,-2.6892,-2.755,-2.6961,-2.6782,-2.6677,-2.6019,-2.5884,-2.5944,-2.5689,-2.5689,-2.5794,-2.5794,-2.6183,-2.6666,-2.6883,-2.727,-2.7625,-2.776,-2.814,-2.8511,-2.8511,-2.8966,-2.9198,-2.8538,-2.8818,-2.8975,-2.8329,-2.8686,-2.8713,-2.747,-2.7283,-2.7673,-2.8841,-2.941,-3.0234,-3.1537,-3.1977,-3.2406,-3.2966,-3.3146,-3.3259,-3.3379,-3.2396,-3.1749,-3.1642,-3.103,-3.0831,-3.1152,-3.106,-3.1405,-3.2223,-3.2295,-3.3,-3.4274,-3.4397,-3.4474,-0.6624,-0.7218,-0.7536,-0.6548,-0.618,-0.6091,0.0,-0.5311,-0.5204,-0.736,-0.7901,-0.8715,-1.0849,-1.153,-1.1877,-1.2204,-1.2278,-1.2305,-1.2305,-1.2305,-1.2305,-1.2305,-1.2305,-1.2305,-1.2305,-1.2305,-1.2666,-1.3455,-1.4593,-1.5587,-1.6419,-1.7385,-1.7939,-1.7939,-1.7891,-1.7686,-1.7314,-1.7686,-1.7705,-1.7393,-1.7764,-1.7969,-1.8008,-1.7959,-1.7734,-1.7353,-1.6875,-1.7266,-1.8245,-1.8739,-1.9819,-2.1237,-2.2029,-2.2814,-2.37,-2.5142,-2.6512,-2.761,-2.7535,-2.7505,-2.74,-2.6692,-2.6871,-2.7126,-2.5959,-2.6019,-2.6482,-2.6482,-2.6527,-2.6868,-2.801,-2.7947,-2.771,-2.8271,-2.8463,-2.8511,-2.8511,-2.8966,-2.9182,-2.8549,-2.8844,-2.8975,-2.8329,-2.8929,-2.947,-2.9297,-2.928,-2.9706,-3.0914,-3.0508,-3.0858,-3.2787,-3.1797,-3.1336,-3.2233,-3.2483,-3.2409,-3.1969,-3.1847,-3.1474,-3.0782,-3.0714,-3.113,-3.2031,-3.2048,-3.2377,-3.3083,-3.3826,-3.4191,-3.4237,-3.5007,-3.5359,-0.8214,-0.8828,-0.8954,-0.7919,-0.7367,-0.709,-0.7125,-0.6424,-0.6252,-0.8334,-0.9291,-1.023,-1.1626,-1.2294,-1.2615,-1.2742,-1.2476,-1.2305,-1.2305,-1.2305,-1.2305,-1.2305,-1.2305,-1.2305,-1.2305,-1.2806,-1.331,-1.3673,-1.5155,-1.5939,-1.579,-1.6645,-1.6932,-1.6376,-1.6376,-1.6296,-1.6136,-1.6849,-1.7123,-1.6964,-1.7639,-1.8008,-1.8008,-1.8008,-1.7637,-1.6992,-1.7292,-1.7819,-1.8408,-1.9446,-2.0606,-2.1856,-2.2173,-2.3166,-2.4474,-2.5122,-2.6308,-2.7598,-2.791,-2.8089,-2.8128,-2.7859,-2.7679,-2.752,-2.6916,-2.6946,-2.7156,-2.7156,-2.7156,-2.7364,-2.8258,-2.8319,-2.8271,-2.8873,-2.9271,-2.954,-2.954,-3.0021,-3.0377,-3.0063,-3.0232,-3.0269,-3.0007,-3.0458,-3.0977,-3.1249,-3.0173,-2.9395,-2.9622,-2.9786,-3.0495,-3.2192,-3.1874,-3.1787,-3.2329,-3.2012,-3.1962,-3.2378,-3.2057,-3.2164,-3.283,-3.2488,-3.2716,-3.3633,-3.3125,-3.3214,-3.3954,-3.4248,-3.457,-3.4968,-3.5334,-3.5795,-0.8633,-0.935,-0.9774,-0.8718,-0.8346,-0.8154,-0.7928,-0.7361,-0.7347,-0.9009,-1.0211,-1.1183,-1.2049,-1.2796,-1.3293,-1.3112,-1.2756,-1.2497,-1.2291,-1.2519,-1.2592,-1.2305,-1.2519,-1.2659,-1.2659,-1.331,-1.3673,-1.3673,-1.5226,-1.593,-1.5234,-1.586,-1.593,-1.5234,-1.5234,-1.5234,-1.5234,-1.586,-1.621,-1.6219,-1.7148,-1.7579,-1.7638,-1.7746,-1.7432,-1.6738,-1.776,-1.8275,-1.8654,-2.0193,-2.1524,-2.2566,-2.2685,-2.3713,-2.5058,-2.5236,-2.6167,-2.747,-2.8111,-2.8146,-2.8018,-2.8487,-2.8025,-2.7357,-2.7524,-2.7625,-2.761,-2.781,-2.786,-2.8042,-2.8779,-2.8873,-2.8919,-2.9496,-2.9978,-3.0293,-3.0293,-3.0781,-3.119,-3.119,-3.1291,-3.1389,-3.1389,-3.1806,-3.2228,-3.2332,-3.1041,-2.9934,-2.959,-2.9937,-3.0467,-3.115,-3.1807,-3.2217,-3.2175,-3.1913,-3.2187,-3.325,-3.289,-3.3293,-3.4824,-3.4159,-3.418,-3.5039,-3.4142,-3.4053,-3.4821,-3.4704,-3.5084,-3.5892,-3.5892,-3.6386,-0.6875,-0.8055,-0.9453,-0.8481,-0.8857,-0.9271,-0.8523,-0.8284,-0.8415,-0.9287,-1.0271,-1.1183,-1.2049,-1.3126,-1.3688,-1.3215,-1.3064,-1.2899,-1.2405,-1.3091,-1.331,-1.2445,-1.3098,-1.3673,-1.3673,-1.3673,-1.3673,-1.3673,-1.4665,-1.5234,-1.5234,-1.5234,-1.5234,-1.5234,-1.5234,-1.5234,-1.5234,-1.5234,-1.5234,-1.5234,-1.6219,-1.6636,-1.6688,-1.7169,-1.7158,-1.6758,-1.8027,-1.8822,-1.938,-2.1158,-2.2676,-2.3966,-2.3954,-2.4293,-2.4845,-2.5401,-2.6164,-2.7124,-2.8011,-2.7385,-2.6524,-2.8086,-2.7645,-2.6669,-2.7357,-2.7625,-2.771,-2.8334,-2.8463,-2.8732,-2.9935,-2.9805,-2.954,-3.0123,-3.0293,-3.0293,-3.0293,-3.0781,-3.119,-3.119,-3.1507,-3.1789,-3.1789,-3.2533,-3.2883,-3.2126,-3.2293,-3.2496,-3.2478,-3.2033,-3.1227,-2.9906,-3.1396,-3.2191,-3.1386,-3.2267,-3.3288,-3.4289,-3.4404,-3.4853,-3.5813,-3.5084,-3.5078,-3.5937,-3.5047,-3.4917,-3.5664,-3.5593,-3.6021,-3.6862,-3.6862,-3.7357,-0.7431,-0.8604,-0.9771,-0.9437,-0.969,-1.0078,-1.0097,-0.9562,-0.9446,-1.0759,-1.1895,-1.2941,-1.3844,-1.4478,-1.4858,-1.4959,-1.3939,-1.3097,-1.3194,-1.3528,-1.3382,-1.2445,-1.3738,-1.4163,-1.2879,-1.331,-1.3954,-1.4665,-1.5021,-1.4879,-1.4243,-1.4171,-1.3954,-1.3302,-1.3302,-1.3302,-1.3302,-1.3882,-1.4522,-1.5234,-1.6793,-1.7501,-1.755,-1.7135,-1.6865,-1.6738,-1.7791,-1.8837,-1.9943,-2.1334,-2.3113,-2.5021,-2.4682,-2.5109,-2.5937,-2.6101,-2.6362,-2.6765,-2.7578,-2.8055,-2.8267,-2.8392,-2.8169,-2.7846,-2.7658,-2.7625,-2.771,-2.8334,-2.8511,-2.8779,-2.9995,-3.0166,-3.0166,-3.074,-3.0878,-3.0878,-3.0878,-3.1055,-3.1291,-3.1545,-3.1696,-3.188,-3.2196,-3.2777,-3.302,-3.2466,-3.2226,-3.2071,-3.2071,-3.2219,-3.2139,-3.1673,-3.2316,-3.2664,-3.239,-3.3231,-3.4173,-3.5136,-3.5805,-3.6842,-3.8357,-3.7693,-3.7695,-3.8574,-3.7708,-3.7299,-3.7429,-3.745,-3.7569,-3.7747,-3.781,-3.8311,-0.7388,-0.8562,-0.9649,-0.9835,-1.0287,-1.0679,-1.0943,-1.0443,-1.0238,-1.156,-1.2624,-1.3659,-1.4469,-1.5166,-1.5679,-1.5882,-1.5001,-1.4246,-1.4018,-1.4202,-1.4011,-1.2966,-1.4235,-1.4871,-1.3939,-1.4091,-1.4235,-1.4163,-1.445,-1.4235,-1.3237,-1.3164,-1.2952,-1.2298,-1.2305,-1.2305,-1.2305,-1.3237,-1.4378,-1.572,-1.6932,-1.7647,-1.7978,-1.7119,-1.6665,-1.6719,-1.7451,-1.8412,-1.9482,-2.1,-2.2793,-2.4567,-2.4528,-2.5084,-2.5942,-2.6171,-2.6291,-2.6449,-2.7483,-2.7898,-2.8141,-2.8309,-2.814,-2.7832,-2.7643,-2.7625,-2.776,-2.8591,-2.8826,-2.9088,-3.0293,-3.0617,-3.0699,-3.1112,-3.119,-3.119,-3.119,-3.1329,-3.1507,-3.1752,-3.2057,-3.24,-3.2713,-3.3105,-3.3368,-3.3202,-3.2985,-3.2604,-3.2004,-3.233,-3.2615,-3.2709,-3.3094,-3.3372,-3.3391,-3.4199,-3.5232,-3.6523,-3.717,-3.8324,-4.0168,-3.9484,-3.9336,-3.9883,-3.9004,-3.845,-3.8336,-3.8344,-3.8488,-3.8753,-3.8765,-3.9238,-0.6698,-0.7797,-0.9177,-0.9708,-1.0479,-1.1035,-1.1015,-1.0802,-1.0841,-1.1655,-1.2466,-1.326,-1.404,-1.5245,-1.6061,-1.5915,-1.626,-1.6034,-1.4602,-1.516,-1.5178,-1.3848,-1.4665,-1.5587,-1.6428,-1.5799,-1.445,-1.2519,0.0,-1.3317,-1.2378,-1.2305,-1.2305,-1.2305,-1.2305,-1.2305,-1.2305,-1.331,-1.472,-1.6531,-1.66,-1.7092,-1.792,-1.7109,-1.6665,-1.6709,-1.7183,-1.7666,-1.8182,-2.0292,-2.1796,-2.2791,-2.3716,-2.4394,-2.4936,-2.5683,-2.5968,-2.6171,-2.751,-2.7087,-2.629,-2.7992,-2.7645,-2.6654,-2.7378,-2.755,-2.7754,-2.8979,-2.9313,-2.9625,-3.0821,-3.119,-3.119,-3.119,-3.119,-3.119,-3.119,-3.1507,-3.1825,-3.186,-3.2687,-3.337,-3.337,-3.3642,-3.3957,-3.4227,-3.4505,-3.4128,-3.2543,-3.2585,-3.2847,-3.3071,-3.3795,-3.4314,-3.4424,-3.5193,-3.6433,-3.8232,-3.8425,-3.9258,-4.1054,-4.0371,-3.9961,-3.9961,-3.9023,-3.8535,-3.8535,-3.8471,-3.8896,-3.9747,-3.9702,-4.0137,-0.5911,-0.7526,-0.9228,-0.9088,-1.0396,-1.159,-1.1363,-1.1263,-1.1466,-1.2375,-1.2967,-1.3464,-1.4007,-1.5216,-1.6072,-1.6028,-1.5477,-1.5022,-1.4968,-1.4584,-1.4126,-1.3753,-1.5226,-1.607,-1.5587,-1.6,-1.5438,-1.3528,-1.3528,-1.3317,-1.2378,-1.2305,-1.2305,-1.2305,-1.2305,-1.2305,-1.2305,-1.3947,-1.5233,-1.6116,-1.6835,-1.7156,-1.7051,-1.6826,-1.6665,-1.6748,-1.7199,-1.7785,-1.8596,-2.0135,-2.1539,-2.2855,-2.4238,-2.514,-2.5733,-2.6445,-2.6734,-2.6813,-2.7284,-2.7569,-2.7681,-2.7619,-2.7495,-2.7268,-2.6942,-2.6497,-2.6389,-2.7627,-2.8313,-2.8952,-3.0203,-3.0878,-3.119,-3.119,-3.119,-3.119,-3.119,-3.1507,-3.2089,-3.3037,-3.4474,-3.5499,-3.5499,-3.5072,-3.4797,-3.512,-3.4899,-3.4623,-3.4391,-3.4588,-3.5009,-3.5647,-3.5449,-3.5507,-3.6166,-3.6491,-3.6881,-3.7481,-3.8691,-3.9635,-4.0214,-4.0644,-4.0879,-4.0879,-4.0625,-4.0449,-4.0332,-4.0413,-4.0473,-4.0519,-4.0597,-4.0559,-0.5689,-0.7488,-0.9266,-0.9055,-1.0489,-1.1757,-1.1336,-1.1136,-1.1224,-1.1716,-1.2276,-1.2831,-1.3131,-1.4762,-1.6125,-1.6125,-1.6225,-1.6079,-1.5513,-1.533,-1.4985,-1.4402,-1.572,-1.6567,-1.6437,-1.6932,-1.6576,-1.5084,-1.4171,-1.3317,-1.2378,-1.2305,-1.2305,-1.2305,-1.2305,-1.2732,-1.3593,-1.4434,-1.5446,-1.6599,-1.71,-1.7256,-1.7021,-1.7021,-1.7021,-1.7021,0.0,-1.8181,-1.9125,-2.0606,-2.1794,-2.2855,-2.4471,-2.5129,-2.5349,-2.6378,-2.6778,-2.6849,-2.7277,-2.7691,-2.7939,-2.7559,-2.7328,-2.7066,-2.6692,-2.6138,-2.5846,-2.7079,-2.81,-2.9157,-3.0377,-3.1446,-3.2087,-3.1749,-3.1664,-3.1579,-3.1258,-3.1972,-3.3054,-3.4559,-3.5624,-3.6303,-3.6303,-3.5984,-3.5847,-3.6157,-3.6073,-3.6064,-3.6329,-3.6166,-3.6353,-3.718,-3.6622,-3.6369,-3.6914,-3.6686,-3.6712,-3.7178,-3.8411,-3.9331,-3.9785,-4.0644,-4.1133,-4.1191,-4.1139,-4.11,-4.1094,-4.1094,-4.1021,-4.0889,-4.0894,-4.0647,-0.5769,-0.7417,-0.9145,-0.9296,-1.0557,-1.1629,-1.1182,-1.0828,-1.0595,-1.0524,-1.1138,-1.1747,-1.1832,-1.4003,-1.582,-1.5939,-1.7203,-1.7685,-1.6127,-1.6506,-1.6536,-1.548,-1.607,-1.6991,-1.794,-1.8008,-1.7579,-1.6636,-1.4942,-1.3455,-1.2519,-1.2372,-1.2305,-1.2305,-1.2305,-1.3208,-1.5089,-1.4706,-1.5416,-1.7295,-1.7295,-1.7295,-1.7305,-1.7363,-1.7383,-1.7429,-1.7956,-1.8691,-1.9573,-2.129,-2.2202,-2.2735,-2.4464,-2.4845,-2.4624,-2.6122,-2.6669,-2.6721,-2.7357,-2.7625,-2.7625,-2.7625,-2.7066,-2.6452,-2.6452,-2.5976,-2.5652,-2.6756,-2.8201,-2.9718,-3.0804,-3.2249,-3.322,-3.2459,-3.2354,-3.219,-3.1443,-3.2701,-3.4429,-3.6131,-3.6541,-3.6615,-3.6615,-3.6766,-3.6951,-3.7216,-3.7451,-3.7747,-3.8112,-3.7411,-3.7219,-3.8084,-3.7493,-3.7141,-3.7296,-3.6646,-3.653,-3.7308,-3.8118,-3.8891,-3.9652,-4.0523,-4.1033,-4.115,-4.1044,-4.1033,-4.1142,-4.103,-4.0961,-4.0947,-4.08,-4.0498,-0.5793,-0.6904,-0.8237,-0.9074,-1.0162,-1.1028,-1.127,-1.1129,-1.0848,-1.0409,-1.0606,-1.0881,-1.1012,-1.289,-1.458,-1.4951,-1.5792,-1.6356,-1.6482,-1.5964,-1.5726,-1.6289,-1.6498,-1.6991,-1.794,-1.8008,-1.7579,-1.6636,-1.5579,-1.4522,-1.3528,-1.2732,-1.2305,-1.2305,-1.2305,-1.3035,-1.4579,-1.4506,-1.5286,-1.6846,-1.6846,-1.6846,-1.6855,-1.7217,-1.7383,-1.7458,-1.8561,0.0,-1.9497,-2.1164,-2.1999,-2.2258,-2.45,-2.5271,-2.5398,-2.6864,-2.7408,-2.7408,-2.7575,-2.7625,-2.7625,-2.7625,-2.6752,-2.5779,-2.5779,-2.5213,-2.4744,-2.5501,-2.748,-2.9494,-3.027,-3.1926,-3.322,-3.2459,-3.2615,-3.2645,-3.1869,-3.358,-3.5679,-3.7033,-3.7826,-3.8285,-3.8285,-3.7942,-3.7792,-3.806,-3.7812,-3.7957,-3.8954,-3.8315,-3.8104,-3.8969,-3.8373,-3.8202,-3.8927,-3.8306,-3.7946,-3.8101,-3.8916,-3.9466,-3.9599,-4.041,-4.0851,-4.087,-4.0843,-4.0858,-4.0875,-4.0846,-4.082,-4.0754,-4.0424,-4.0093,-0.5783,-0.6695,-0.7882,-0.9039,-1.0045,-1.0803,-1.0968,-1.0748,-1.0275,-0.9239,-0.9608,-1.0095,-1.0048,-1.2098,-1.3945,-1.4375,-1.5518,-1.629,-1.6265,-1.651,-1.6655,-1.6636,-1.7001,-1.7285,-1.7285,-1.7285,-1.707,-1.6636,-1.547,-1.4473,-1.373,-1.2806,-1.2305,-1.2305,-1.2151,-1.2842,-1.4481,-1.4361,-1.5125,-1.6665,-1.6963,-1.707,-1.709,-1.7519,-1.7962,-1.8426,-1.9532,-2.0412,-2.1167,-2.2483,-2.3009,-2.3121,-2.4656,-2.5064,-2.5007,-2.6481,-2.7034,-2.7086,-2.7473,-2.7625,-2.7625,-2.7625,-2.6916,-2.6123,-2.6123,-2.5804,-2.5606,-2.6204,-2.8333,-3.0593,-3.1166,-3.2908,-3.444,-3.3949,-3.3928,-3.3952,-3.3826,-3.5086,-3.6594,-3.7894,-3.8432,-3.8732,-3.8865,-3.8854,-3.8879,-3.9191,-3.9146,-3.9317,-3.9854,-3.9623,-3.9527,-3.9892,-3.9242,-3.8941,-3.9361,-3.8716,-3.8276,-3.8191,-3.9012,-3.9503,-3.9488,-4.0308,-4.075,-4.0788,-4.0769,-4.0771,-4.0793,-4.0752,-4.0733,-4.0681,-4.0349,-3.9989,-0.5762,-0.6488,-0.7467,-0.8713,-0.9739,-1.0446,-1.0288,-1.0157,-0.9626,-0.8167,-0.873,-0.9423,-0.9256,-1.1433,-1.3406,-1.3936,-1.5458,-1.6504,-1.625,-1.7235,-1.7725,-1.6991,-1.7354,-1.7432,-1.6636,-1.6419,-1.6253,-1.6165,-1.4915,-1.3978,-1.3626,-1.279,-1.2362,-1.2211,-1.2138,-1.28,-1.4367,-1.4355,-1.518,-1.6875,-1.7217,-1.7432,-1.7529,-1.8054,-1.8654,-1.9365,-2.0275,-2.1285,-2.2369,-2.3183,-2.3527,-2.3689,-2.4437,-2.4582,-2.4452,-2.596,-2.651,-2.6616,-2.7357,-2.7715,-2.7784,-2.7784,-2.7245,-2.6587,-2.6587,-2.6642,-2.6785,-2.7169,-2.9417,-3.1783,-3.2191,-3.3931,-3.5579,-3.5486,-3.524,-3.5218,-3.586,-3.6517,-3.7321,-3.8462,-3.8707,-3.8792,-3.9044,-3.9364,-3.9712,-4.0061,-4.0339,-4.0508,-4.0543,-4.0639,-4.0654,-4.0559,-4.0019,-3.9665,-3.9646,-3.9112,-3.8696,-3.8546,-3.9231,-3.9611,-3.9557,-4.0261,-4.0677,-4.0735,-4.0677,-4.0677,-4.0735,-4.0677,-4.0658,-4.0642,-4.0253,-3.9908,-0.5762,-0.5985,-0.6435,-0.766,-0.8694,-0.9353,-0.9222,-0.9438,-0.9385,-0.8127,-0.8371,-0.8838,-0.8913,-1.0789,-1.2666,-1.3673,-1.5145,-1.6416,-1.7191,-1.7677,-1.794,-1.7862,-1.7207,-1.6706,-1.6636,-1.5799,-1.5233,-1.4898,-1.3739,-1.3104,-1.3149,-1.2829,-1.2462,-1.1975,-1.2379,-1.3088,-1.414,-1.482,-1.591,-1.7324,-1.7363,-1.7578,-1.7949,-1.8834,-1.9233,-1.9344,-2.0472,-2.1043,0.0,-2.1564,-2.2008,-2.2518,-2.3271,-2.3857,-2.4452,-2.596,-2.651,-2.6616,-2.7357,-2.7979,-2.8502,-2.8502,-2.7634,-2.6587,-2.6587,-2.6902,-2.7253,-2.7294,-2.9683,-3.2232,-3.2273,-3.3931,-3.565,-3.5826,-3.5667,-3.5842,-3.7064,-3.7393,-3.7686,-3.8542,-3.8707,-3.8792,-3.9044,-3.9364,-3.9712,-4.0061,-4.0339,-4.0543,-4.0677,-4.0696,-4.0709,-4.0688,-4.0615,-4.0543,-4.0412,-4.0335,-4.0197,-3.9929,-4.0221,-4.0293,-4.0043,-4.0353,-4.0508,-4.0543,-4.0508,-4.0508,-4.0543,-4.0508,-4.0508,-4.0508,-3.9924,-3.9641,-0.5762,-0.5915,-0.6435,-0.8263,-0.889,-0.9176,-0.9788,-0.9661,-0.9132,-0.8088,-0.807,-0.8361,-0.8807,-1.0007,-1.1473,-1.3141,-1.4222,-1.5205,-1.6074,-1.6807,-1.7031,-1.6412,-1.6273,-1.5808,-1.4917,-1.4522,-1.4089,-1.3543,-1.3383,-1.3204,-1.2892,-1.2422,-1.2522,-1.3114,-1.3097,-1.3913,-1.5573,-1.573,-1.6299,-1.7393,-1.7637,-1.7852,-1.8008,-1.8921,-1.9562,-2.0106,-2.0734,-2.1488,0.0,-2.1731,-2.182,-2.2367,-2.3115,-2.3527,-2.4003,-2.5805,-2.651,-2.6674,-2.7832,-2.8646,-2.9261,-2.9659,-2.9716,-2.9529,-2.9119,-2.939,-2.9897,-3.0315,-3.1981,-3.3609,-3.3609,-3.5108,-3.6474,-3.6015,-3.6694,-3.746,-3.7484,-3.7863,-3.8322,-3.8634,-3.8707,-3.8862,-3.9333,-3.951,-3.9757,-4.0267,-4.0422,-4.0562,-4.0677,-4.0712,-4.0711,-4.0701,-4.0706,-4.0658,-4.0508,-4.0356,-4.0213,-4.0101,-4.0023,-3.9984,-4.0101,-4.0195,-4.0339,-4.0489,-4.0489,-4.0489,-4.0489,-4.0339,-4.025,-4.0232,-3.9603,-3.9289,-0.5806,-0.5945,-0.6435,-0.841,-0.8817,-0.9051,-0.9894,-0.963,-0.8937,-0.8061,-0.8026,-0.8234,-0.8538,-0.9667,-1.1031,-1.2565,-1.3633,-1.4668,-1.5664,-1.6143,-1.6166,-1.5613,-1.523,-1.467,-1.3637,-1.3228,-1.2846,-1.2344,-1.2656,-1.276,-1.2624,-1.2422,-1.2778,-1.3875,-1.405,-1.4988,-1.6845,-1.6711,-1.7054,-1.7754,-1.793,-1.8144,-1.8395,-1.9086,-1.9997,-2.0991,-2.0914,-2.1575,0.0,-2.1443,-2.1428,-2.2133,-2.2662,-2.3082,-2.3622,-2.553,-2.6208,-2.6414,-2.7847,-2.8879,-2.9704,-3.0355,-3.1196,-3.1879,-3.1813,-3.1806,-3.1913,-3.236,-3.3489,-3.4583,-3.4959,-3.6122,-3.7069,-3.6594,-3.7615,-3.8542,-3.7973,-3.8303,-3.8707,-3.8707,-3.8707,-3.8873,-3.9505,-3.9599,-3.98,-4.0406,-4.0489,-4.0562,-4.0677,-4.0713,-4.0649,-4.0565,-4.0546,-4.0509,-4.0392,-4.0195,-4.0022,-3.9819,-3.9668,-3.9668,-3.9797,-3.9901,-4.0043,-4.023,-4.0319,-4.0319,-4.0229,-4.0139,-4.0061,-3.9943,-3.9383,-3.9101,-0.5908,-0.6027,-0.6286,-0.7507,-0.83,-0.8837,-0.8963,-0.9141,-0.8937,-0.8061,-0.8326,-0.853,-0.8003,-0.9922,-1.1695,-1.2069,-1.3589,-1.5234,-1.6533,-1.5991,-1.566,-1.6051,-1.4238,-1.3044,-1.3307,-1.2151,-1.143,-1.143,-1.1156,0.0,-1.2352,-1.2969,-1.3479,-1.3875,-1.5274,-1.6497,-1.7387,-1.7789,-1.8213,-1.8553,-1.8213,-1.8462,-1.9288,-1.9561,-2.0483,-2.1856,-2.1045,-2.0991,0.0,-2.0288,-2.0501,-2.1628,-2.1628,-2.2335,-2.3578,-2.4981,-2.5531,-2.572,-2.7134,-2.8509,-2.9711,-3.0371,-3.1492,-3.2826,-3.4153,-3.3571,-3.2496,-3.2496,-3.3489,-3.4788,-3.6042,-3.6803,-3.7323,-3.779,-3.83,-3.8707,-3.8689,-3.8689,-3.8707,-3.8707,-3.8707,-3.8873,-3.9505,-3.9599,-3.98,-4.0406,-4.0489,-4.0562,-4.0677,-4.0713,-4.0578,-4.0252,-4.0209,-4.0193,-4.012,-4.0101,-3.9819,-3.9133,-3.9414,-3.9438,-3.9107,-3.9414,-3.9599,-3.9622,-3.9922,-3.9943,-3.9622,-3.9943,-3.9922,-3.9599,-3.9264,-3.9091,-0.6924,-0.7129,-0.7581,-0.8396,-0.861,-0.879,-0.9382,-0.9049,-0.851,-0.7981,-0.7709,-0.7588,-0.7863,-0.9056,-1.058,-1.2321,-1.3543,-1.4795,-1.6094,-1.5741,-1.5171,-1.4637,-1.3354,-1.249,-1.2587,-1.2111,-1.173,-1.173,-1.1456,-1.1777,-1.2938,-1.3821,-1.4792,-1.5877,-1.6243,-1.6987,-1.8199,-1.8075,-1.8076,-1.8213,-1.8359,-1.8262,-1.8041,-1.9901,-2.0621,-2.0549,-2.1406,-2.1895,-2.1958,-2.1298,-2.1223,-2.1684,-2.3169,-2.3886,-2.4396,-2.6258,-2.6648,-2.6485,-2.8345,-2.9521,-3.0574,-3.2146,-3.3581,-3.4704,-3.5161,-3.4672,-3.4011,-3.4476,-3.4931,-3.5433,-3.6197,-3.6803,-3.7323,-3.779,-3.83,-3.8707,-3.8707,-3.8707,-3.8707,-3.8707,-3.8707,-3.8833,-3.9178,-3.9457,-3.9735,-4.0157,-4.0213,-4.0342,-4.0662,-4.0248,-4.0005,-4.0171,-3.9949,-3.9788,-3.9754,-3.9552,-3.9314,-3.9107,-3.9017,-3.9017,-3.9099,-3.9186,-3.9383,-3.9599,-3.969,-3.9709,-3.9599,-3.9481,-3.9275,-3.897,-3.8873,-3.9118,-0.7335,-0.7505,-0.7996,-0.8835,-0.8805,-0.8774,-0.9369,-0.8925,-0.8257,-0.7842,-0.7544,-0.7475,-0.7944,-0.8876,-1.0237,-1.2094,-1.2977,-1.3902,-1.5359,-1.4746,-1.3852,-1.3078,-1.2466,-1.2184,-1.2291,-1.2138,-1.2078,-1.2264,-1.2456,-1.3055,-1.4174,-1.5101,-1.6201,-1.7451,-1.7372,-1.7858,-1.8877,-1.8457,-1.8252,-1.8252,-1.835,-1.8252,-1.8203,-1.9868,-2.0662,-2.073,-2.1902,-2.2552,0.0,-2.2194,-2.2123,-2.2444,-2.3815,-2.4416,-2.4762,-2.6544,-2.6946,-2.6846,-2.8601,-2.9608,-3.0497,-3.2531,-3.4259,-3.5622,-3.5622,-3.5316,-3.5052,-3.547,-3.5622,-3.5739,-3.6266,-3.6803,-3.7323,-3.779,-3.83,-3.8707,-3.8707,-3.8707,-3.8707,-3.8707,-3.8707,-3.8792,-3.9044,-3.9264,-3.9529,-3.9859,-3.9901,-4.0002,-4.0234,-3.988,-3.9637,-3.9773,-3.9561,-3.9358,-3.9268,-3.9152,-3.9063,-3.8961,-3.8803,-3.8773,-3.8933,-3.9063,-3.9205,-3.9408,-3.9552,-3.9552,-3.9414,-3.909,-3.8855,-3.8707,-3.8707,-3.9129,0.0,-0.7356,-0.7792,-0.8736,-0.8747,-0.8693,-0.9075,-0.8783,0.0,-0.7627,-0.7709,-0.799,-0.8386,-0.9321,-1.048,-1.1765,-1.2286,-1.3012,-1.4479,-1.3308,-1.2101,-1.1579,-1.1777,-1.2058,-1.2365,-1.2378,-1.2553,-1.2905,-1.3899,-1.486,-1.588,-1.6773,-1.7648,-1.8562,-1.8592,-1.8848,-1.9189,-1.8789,-1.8594,-1.8584,-1.8291,-1.8539,-1.9236,-1.9731,-2.0618,0.0,-2.2403,-2.2976,-2.3402,-2.2971,-2.316,-2.3702,-2.3811,-2.4183,-2.482,-2.6183,-2.6632,-2.6789,-2.8054,-2.8912,-2.9859,-3.1965,-3.3974,-3.5554,-3.5605,-3.5622,-3.5622,-3.5622,-3.5622,-3.5739,-3.6266,-3.6764,-3.7285,-3.779,-3.8267,-3.8658,-3.8707,-3.8707,-3.8707,-3.8707,-3.8707,-3.8773,-3.9036,-3.9099,-3.9212,-3.9552,-3.9599,-3.9622,-3.9668,-3.9622,-3.9481,-3.9178,-3.9107,-3.8999,-3.8719,-3.8952,-3.8961,-3.8738,-3.8719,-3.8719,-3.8719,-3.8971,-3.9152,-3.9152,-3.9414,-3.9389,-3.9072,-3.8815,-3.8707,-3.8719,-3.8719,-3.9173,-0.7467,0.0,-0.8484,-0.8555,-0.8506,-0.8475,0.0,-0.8449,-0.8189,-0.763,-0.7709,-0.8286,-0.9512,-0.9847,-1.0663,-1.2947,-1.4099,-1.4666,-1.4726,-1.3915,-1.3187,-1.2802,-1.2645,-1.2746,-1.328,-1.3126,-1.3324,-1.4296,-1.4528,-1.5515,-1.7335,-1.764,-1.8016,-1.8572,-1.8965,-1.8867,-1.832,-1.8213,-1.8154,-1.8164,-1.9039,-1.9189,-1.8838,-2.0477,-2.1319,-2.1517,-2.2691,-2.3339,-2.3573,-2.392,-2.3922,-2.3736,-2.4765,-2.5217,-2.5436,-2.6872,-2.7021,-2.6816,-2.8137,-2.9005,-3.0009,-3.304,-3.4368,-3.4861,-3.5453,-3.5622,-3.5622,-3.5622,-3.5622,-3.5739,-3.6266,-3.6498,-3.6786,-3.7685,-3.798,-3.8183,-3.8627,-3.8707,-3.8707,-3.8707,-3.8707,-3.8719,-3.8773,-3.8943,-3.9212,-3.9552,-3.9599,-3.9778,-4.023,-3.9884,-3.9576,-3.9486,-3.9238,-3.8999,-3.8719,-3.8762,-3.8762,-3.8707,-3.8894,-3.9027,-3.9027,-3.9308,-3.9462,-3.9462,-3.9314,-3.9082,-3.8803,-3.8719,-3.8803,-3.9027,-3.9027,-3.9564,-0.7261,-0.8016,-0.8771,-0.8611,-0.8571,-0.8537,-0.8404,-0.8139,-0.7828,-0.7375,-0.7397,-0.7946,-0.9486,-1.0029,-1.0844,-1.2732,-1.3694,-1.4115,-1.3861,-1.3746,-1.3578,-1.3373,-1.326,-1.3287,0.0,-1.3971,-1.4475,-1.5158,-1.6111,-1.7217,-1.8317,-1.8685,-1.8936,-1.9156,-1.9268,-1.8965,-1.8301,-1.8301,-1.8498,-1.8889,-1.9385,-1.9603,-1.9564,-2.11,-2.1886,-2.2153,-2.3662,-2.438,-2.4493,-2.4858,-2.4791,-2.4609,-2.5316,-2.5749,-2.6123,-2.722,-2.735,-2.719,-2.8213,-2.9328,-3.074,-3.2862,-3.3984,-3.4641,-3.5402,-3.5622,-3.5622,-3.5622,-3.5622,-3.5667,-3.5985,-3.6224,-3.6539,-3.7079,-3.756,-3.7911,-3.8016,-3.835,-3.8627,-3.8382,-3.8546,-3.8707,-3.8707,-3.8815,-3.8999,-3.9314,-3.9364,-3.9557,-4.0024,-3.9671,-3.9364,-3.9364,-3.9109,-3.8855,-3.8719,-3.8707,-3.8707,-3.8707,-3.8961,-3.9099,-3.9099,-3.9576,-3.9819,-3.9819,-3.9645,-3.9408,-3.91,-3.91,-3.9189,-3.9314,-3.9314,-3.9865,-0.7188,-0.8036,-0.8838,-0.8711,-0.8744,-0.8731,-0.8437,-0.8031,-0.7596,-0.7208,-0.7283,-0.7896,-0.9547,-1.0347,-1.1132,-1.2353,-1.2677,-1.2763,-1.294,-1.3192,-1.3413,-1.3546,-1.3519,0.0,-1.3919,-1.4844,-1.5567,-1.6167,-1.798,-1.9036,-1.9283,-1.9736,-1.998,-1.9912,-1.9629,-1.9238,-1.874,-1.8672,-1.9034,-1.9902,-1.9653,-1.9944,-2.0846,-2.1596,-2.2396,-2.3275,0.0,0.0,-2.5691,-2.5734,-2.5749,-2.5749,-2.5749,-2.6093,-2.6662,-2.732,-2.7625,-2.766,-2.8286,-2.9482,-3.0959,-3.1785,-3.2802,-3.39,-3.4863,-3.52,-3.5318,-3.5543,-3.5622,-3.5622,-3.5622,-3.5941,-3.6308,-3.6374,-3.7041,-3.7578,-3.7248,-3.7861,-3.835,-3.7877,-3.8234,-3.8578,-3.8578,-3.8658,-3.8803,-3.9125,-3.9178,-3.9314,-3.969,-3.9462,-3.9238,-3.9186,-3.8923,-3.8732,-3.8707,-3.875,-3.8762,-3.8762,-3.9027,-3.9212,-3.9296,-3.9861,-4.0139,-4.0101,-4.0101,-3.9941,-3.9599,-3.9599,-3.9622,-3.9668,-3.9705,-4.0182,-0.7956,-0.8657,-0.8944,-0.82,-0.8437,-0.8731,-0.8437,-0.8483,-0.8382,-0.7889,-0.8594,-0.992,-1.2052,-1.1763,-1.1944,-1.4347,-1.3404,-1.2676,-1.3419,-1.2959,-1.2792,-1.3473,-1.3427,-1.3878,-1.5544,-1.5702,-1.6456,-1.8381,-1.8798,-1.9362,-2.0323,-2.042,-2.0303,-1.9922,-2.0215,-1.999,-1.9189,-1.8818,-1.9034,-1.9891,-2.0227,-2.0846,-2.1729,-2.2102,-2.2961,-2.4191,0.0,-2.5346,-2.6426,-2.6434,-2.6437,-2.6437,-2.6437,-2.6497,-2.6662,-2.732,-2.7625,-2.766,-2.8286,-2.8311,-2.832,-2.956,-3.0089,-3.0607,-3.2486,-3.3483,-3.4143,-3.5284,-3.5622,-3.5622,-3.5622,-3.565,-3.5827,-3.6308,-3.6539,-3.6706,-3.7114,-3.734,-3.7414,-3.7323,-3.7685,-3.8013,-3.8013,-3.8382,-3.8873,-3.9432,-3.951,-3.9735,-4.0283,-4.012,-3.9859,-3.9552,-3.9231,-3.8933,-3.8719,-3.8923,-3.9036,-3.9036,-3.9358,-3.9738,-4.0247,-4.037,-4.0339,-4.0101,-4.0101,-3.9941,-3.9599,-3.9599,-3.9754,-4.0022,-4.0074,-4.073,-0.7528,-0.8196,-0.8711,-0.847,-0.9085,-0.9719,-0.9643,-0.9419,-0.9334,-0.959,-1.0096,-1.091,-1.2512,-1.268,-1.3055,-1.4183,-1.3381,-1.275,-1.3369,-1.3158,-1.324,-1.3814,0.0,-1.4871,-1.5799,-1.6852,-1.79,-1.8957,-1.952,-2.0079,-2.0566,-2.0566,-2.0469,-2.0273,-2.0459,-2.0264,-1.9629,-1.9199,-1.9273,-1.9902,-2.0369,-2.1037,-2.1939,-2.2503,-2.3309,-2.4363,0.0,-2.4992,-2.6,-2.6,-2.6214,-2.6587,-2.6587,-2.6811,-2.7111,-2.7066,-2.7036,-2.7085,-2.7364,-2.7716,-2.8233,-2.9218,-2.9766,-3.028,-3.1635,-3.279,-3.3727,-3.4368,-3.5059,-3.5622,-3.5622,-3.5622,-3.565,-3.5898,-3.6182,-3.6374,-3.6316,-3.6786,-3.7097,-3.6843,-3.7173,-3.7614,-3.7859,-3.8099,-3.8499,-3.9212,-3.9314,-3.9486,-3.9945,-3.9757,-3.9505,-3.9339,-3.9054,-3.8894,-3.8923,-3.9036,-3.9238,-3.9622,-3.9775,-4.0062,-4.0489,-4.0489,-4.0441,-4.0321,-4.0321,-4.023,-4.0082,-4.0082,-4.0195,-4.0436,-4.0936,-4.1732,-0.7381,-0.7943,-0.8564,-0.8925,-0.9633,-1.0301,-1.0577,-1.0107,-0.9945,-1.0821,-1.1133,-1.1495,-1.247,-1.3322,-1.3751,-1.3417,-1.307,-1.2806,-1.2973,-1.3344,-1.3702,-1.3841,-1.4996,-1.5851,-1.6093,-1.7819,-1.9116,-1.9362,-2.0157,-2.0566,-2.0566,-2.0566,-2.0566,-2.0566,-2.0469,-2.0205,-1.9775,-1.9346,-1.9373,-1.9902,-2.0369,-2.1037,-2.1939,-2.2763,-2.3543,-2.4292,-2.4292,-2.4735,-2.5474,-2.5644,-2.6083,-2.6614,-2.6762,-2.7036,-2.726,-2.6602,-2.6452,-2.6587,-2.6587,-2.7243,-2.8165,-2.8722,-2.92,-2.9753,-3.064,-3.1709,-3.2749,-3.3208,-3.4056,-3.4987,-3.5476,-3.5487,-3.5402,-3.5571,-3.5898,-3.6097,-3.5694,-3.6249,-3.6706,-3.6291,-3.6643,-3.7173,-3.7649,-3.7825,-3.8158,-3.8971,-3.9099,-3.9212,-3.9552,-3.9289,-3.9099,-3.9099,-3.8855,-3.8844,-3.9178,-3.9289,-3.958,-4.0158,-4.0195,-4.0286,-4.0489,-4.0489,-4.0489,-4.0489,-4.0489,-4.0489,-4.0489,-4.0543,-4.06,-4.0716,-4.1405,-4.2215,-0.845,-0.8724,-0.8911,-0.9479,-0.9479,-0.9552,-1.0374,-1.0107,-0.9892,-1.0505,-1.11,-1.1836,-1.2747,-1.3595,-1.38,-1.2627,-1.2627,-1.2735,-1.2405,0.0,-1.3582,-1.3279,-1.5017,-1.6419,-1.7106,-1.831,-1.9441,-2.0401,-2.0566,-2.0566,-2.0566,-2.0566,-2.0566,-2.0566,-2.0176,-1.9756,-1.9336,-1.8896,-1.9064,-1.9902,-2.0369,-2.1037,-2.1939,-2.2763,-2.3543,-2.4292,-2.4292,-2.4711,-2.5439,-2.6158,-2.6438,-2.6596,-2.7282,-2.7156,-2.6572,-2.5929,-2.6063,-2.6587,-2.6587,-2.6666,-2.6759,-2.6804,-2.6868,-2.7119,-2.8434,-2.9342,-3.0242,-3.2047,-3.2656,-3.3155,-3.5116,-3.5098,-3.4742,-3.5453,-3.5622,-3.5667,-3.5622,-3.565,-3.5694,-3.5667,-3.6097,-3.662,-3.7135,-3.7614,-3.8158,-3.8971,-3.9099,-3.9212,-3.9552,-3.9289,-3.9099,-3.9099,-3.8855,-3.8913,-3.9529,-3.9859,-4.0139,-4.0457,-4.0473,-4.0473,-4.0489,-4.0489,-4.0489,-4.0489,-4.0489,-4.0489,-4.0489,-4.062,-4.0696,-4.0696,-4.0831,-4.1362,-0.7655,-0.8237,-0.8905,-0.9305,-0.9733,-1.0194,-1.0708,-1.0942,-1.141,-1.2557,-1.287,-1.3011,-1.3334,-1.3179,-1.2871,-1.2392,-1.2398,-1.2648,-1.3112,-1.3455,-1.3983,-1.4585,-1.5567,-1.6426,-1.6858,-1.7523,-1.839,-1.952,-1.9599,-1.9923,-2.0566,-2.0312,-2.0156,-2.0156,-1.9746,-1.9316,-1.8887,-1.8721,-1.8636,-1.8702,-1.9449,-2.0268,-2.1101,-2.2002,-2.2811,-2.3531,-2.3531,-2.4002,-2.4738,-2.5007,-2.5163,-2.5258,-2.5189,-2.4748,-2.4169,-2.4291,-2.4803,-2.5458,-2.5804,-2.648,-2.72,-2.72,-2.72,-2.7345,-2.7819,-2.9304,-3.1007,-3.1754,-3.2496,-3.3352,-3.4597,-3.4709,-3.4692,-3.5436,-3.5622,-3.5622,-3.5622,-3.5622,-3.5622,-3.5622,-3.5783,-3.6054,-3.6603,-3.7135,-3.7667,-3.8237,-3.864,-3.8884,-3.9008,-3.8633,-3.8462,-3.8826,-3.8923,-3.9054,-3.9264,-3.9797,-4.0139,-4.0232,-4.0406,-4.0543,-4.062,-4.0543,-4.0543,-4.062,-4.0543,-4.0489,-4.0489,-4.0562,-4.0617,-4.0706,-4.1267,-4.1667,-0.7544,-0.7996,-0.8626,-0.9194,-0.9907,-1.0647,-1.1293,-1.1574,-1.2104,-1.3364,-1.3395,-1.3237,-1.3237,-1.2732,-1.2305,-1.2305,-1.2305,-1.2519,-1.3171,-1.3528,-1.4076,-1.507,-1.569,-1.6244,-1.6645,-1.7004,-1.7532,-1.8381,-1.8682,-1.9091,-1.9801,-1.98,-1.9717,-1.9717,-1.9307,-1.8936,-1.8562,-1.8506,-1.8291,-1.8008,-1.8586,-1.9365,-2.0204,-2.1365,-2.2187,-2.2763,-2.3005,-2.3424,-2.393,-2.3966,-2.4134,-2.4205,-2.3608,-2.3294,-2.3294,-2.3747,-2.4489,-2.5293,-2.593,-2.6804,-2.7625,-2.7625,-2.7625,-2.767,-2.7829,-2.9323,-3.1007,-3.1166,-3.197,-3.2925,-3.3617,-3.3964,-3.4404,-3.5385,-3.5622,-3.5667,-3.5827,-3.5739,-3.5667,-3.581,-3.5694,-3.5783,-3.6291,-3.6825,-3.736,-3.7825,-3.835,-3.8627,-3.8465,-3.815,-3.8032,-3.8415,-3.8722,-3.8952,-3.9099,-3.9622,-3.9943,-3.9943,-4.012,-4.0339,-4.0623,-4.0562,-4.0543,-4.0639,-4.0562,-4.0489,-4.0489,-4.0543,-4.0612,-4.0718,-4.1196,-4.1366,-0.8521,-0.8233,-0.8051,-0.9369,-0.9913,-1.0527,-1.2082,-1.1885,-1.1603,-1.2184,-1.2305,-1.2305,-1.2305,-1.2305,-1.2305,-1.2305,-1.2305,-1.2305,-1.2298,-1.3091,-1.3865,-1.4201,-1.511,-1.6047,-1.6612,-1.6764,-1.7,-1.722,-1.7865,-1.8276,-1.8276,-1.89,-1.9277,-1.9277,-1.8857,-1.8562,-1.8562,-1.8213,-1.8008,-1.8008,-1.8008,-1.8462,-1.9365,-2.1101,-2.1877,-2.1939,-2.2763,-2.3078,-2.3088,-2.3293,-2.3514,-2.358,-2.292,-2.3381,-2.4429,-2.4597,-2.5373,-2.6414,-2.7291,-2.7575,-2.7625,-2.7625,-2.7625,-2.7709,-2.8397,-2.9114,-2.9764,-3.0291,-3.092,-3.1553,-3.2167,-3.2848,-3.3778,-3.5267,-3.5622,-3.5739,-3.6308,-3.5968,-3.5783,-3.6308,-3.5985,-3.5783,-3.6308,-3.6843,-3.736,-3.7825,-3.835,-3.8496,-3.7946,-3.7893,-3.7893,-3.7911,-3.82,-3.8582,-3.9053,-3.9389,-3.9599,-3.9599,-3.9599,-3.9863,-4.0473,-4.0489,-4.0489,-4.0489,-4.0489,-4.0489,-4.0489,-4.0623,-4.0681,-4.0681,-4.0349,-4.0188,-0.6398,-0.7373,-0.8519,-0.8758,-1.069,-1.2669,-1.2983,-1.253,-1.2151,-1.2538,-1.2612,-1.2552,-1.2338,-1.2305,-1.2305,-1.2305,-1.2305,-1.2519,-1.3171,-1.3528,-1.3992,-1.4808,-1.4746,-1.4757,-1.4957,-1.4584,-1.4604,-1.5474,-1.5693,-1.6486,-1.7947,-1.7871,-1.8093,-1.8757,-1.8418,-1.8193,-1.8193,-1.8076,-1.8008,-1.8008,-1.8008,-1.8462,-1.9299,-1.9824,-2.0719,-2.1877,-2.2125,-2.2567,-2.3062,-2.2325,-2.1876,-2.151,-2.0914,-2.1341,-2.2447,-2.299,-2.4281,-2.5769,-2.6549,-2.7152,-2.7625,-2.7625,-2.7904,-2.8426,-2.9088,-3.042,-3.1722,-3.1918,-3.2364,-3.2856,-3.3095,-3.3292,-3.3643,-3.4607,-3.5505,-3.6224,-3.6392,-3.6266,-3.6224,-3.6374,-3.5985,-3.5667,-3.5827,-3.6291,-3.6684,-3.6825,-3.7285,-3.7451,-3.6904,-3.7173,-3.7248,-3.6904,-3.756,-3.8092,-3.8255,-3.8869,-3.9238,-3.9238,-3.9462,-3.9806,-4.0261,-4.0024,-4.0001,-4.0272,-4.0001,-3.9863,-3.9863,-3.9901,-3.992,-3.992,-3.9832,-3.9651,-0.6828,-0.778,-0.8966,-1.022,-1.199,-1.355,-1.4095,-1.3476,-1.2935,-1.3124,-1.2866,-1.2518,-1.2338,-1.2305,-1.2305,-1.2305,-1.2305,-1.2519,-1.3098,-1.3171,-1.3528,-1.4522,-1.3917,-1.365,-1.4156,-1.3523,-1.3379,-1.4109,-1.4381,-1.5132,-1.6338,-1.643,-1.6652,-1.722,-1.7348,-1.7432,-1.7432,-1.7794,-1.8008,-1.8008,-1.8008,-1.8269,-1.8787,-1.911,-2.0074,-2.1428,-2.2063,-2.2506,-2.2736,-2.1845,-2.1154,-2.0655,-2.0024,-2.0489,-2.1673,-2.2937,-2.4272,-2.5605,-2.6905,-2.7425,-2.7625,-2.7625,-2.7859,-2.8432,-2.9651,-3.1016,-3.2239,-3.2462,-3.2965,-3.3296,-3.2784,-3.3,-3.3618,-3.4584,-3.5631,-3.6498,-3.6904,-3.6684,-3.6457,-3.6684,-3.6097,-3.5622,-3.5622,-3.6054,-3.6374,-3.6374,-3.6701,-3.6764,-3.6457,-3.6481,-3.6522,-3.6416,-3.7117,-3.7685,-3.7859,-3.8542,-3.8933,-3.8933,-3.9136,-3.94,-3.9754,-3.9659,-3.9724,-3.9949,-3.9724,-3.9599,-3.9599,-3.9599,-3.9599,-3.9599,-3.9462,-3.9289,-0.8544,-0.8883,-0.9373,-1.2656,-1.3369,-1.3637,-1.5347,-1.4743,-1.3825,-1.3783,-1.2973,-1.2305,-1.2305,-1.2305,-1.2305,-1.2305,-1.2305,-1.2305,-1.2305,-1.2305,-1.2592,-1.3455,-1.2806,-1.2769,-1.3947,-1.323,-1.2826,-1.3106,-1.3696,-1.4044,-1.4119,-1.4696,-1.5092,-1.5234,-1.6009,-1.6489,-1.6636,-1.7432,-1.794,-1.8008,-1.8008,-1.8008,-1.8008,-1.8854,-1.9683,-2.0655,-2.2175,-2.2633,-2.2272,-2.1663,-2.1099,-2.0655,-2.0024,-2.0542,-2.1797,-2.3796,-2.4924,-2.5743,-2.7718,-2.8053,-2.7625,-2.7625,-2.77,-2.8218,-3.0138,-3.1241,-3.1951,-3.2398,-3.2919,-3.3068,-3.1687,-3.234,-3.3743,-3.5042,-3.5925,-3.6706,-3.7685,-3.7173,-3.662,-3.7114,-3.6316,-3.5622,-3.5622,-3.6011,-3.635,-3.635,-3.635,-3.635,-3.635,-3.5941,-3.5854,-3.6333,-3.6921,-3.7433,-3.7859,-3.8382,-3.8707,-3.8707,-3.8707,-3.8803,-3.9044,-3.9358,-3.9529,-3.9552,-3.9529,-3.9505,-3.9505,-3.9505,-3.9505,-3.9505,-3.9205,-3.9082,-0.6561,-0.8138,-1.0135,-1.1657,-1.3914,-1.5895,-1.6281,-1.5568,-1.4745,-1.423,-1.3121,-1.2305,-1.2305,-1.2305,-1.2305,-1.2305,-1.2305,-1.2305,-1.2305,-1.2305,-1.2372,-1.2592,-1.2445,-1.2399,-1.2681,-1.2547,-1.2425,-1.2492,-1.2655,-1.3051,-1.3777,-1.3928,-1.4378,-1.5163,-1.5376,-1.586,-1.6558,-1.6775,-1.7285,-1.8008,-1.8008,-1.8008,-1.8008,-1.8202,-1.911,-2.059,-2.0974,-2.1568,-2.2201,-2.0986,-2.0575,-2.0655,-2.0024,-2.0794,-2.2283,-2.2906,-2.4381,-2.6197,-2.6825,-2.726,-2.7625,-2.7625,-2.8642,-3.0123,-3.1116,-3.2595,-3.3745,-3.2852,-3.2965,-3.3084,-3.1827,-3.2425,-3.3809,-3.5457,-3.6438,-3.7173,-3.779,-3.7433,-3.7058,-3.719,-3.6316,-3.5622,-3.5622,-3.5694,-3.5783,-3.5783,-3.5783,-3.5783,-3.5783,-3.6054,-3.6266,-3.6374,-3.7193,-3.779,-3.7893,-3.8382,-3.8707,-3.8707,-3.8707,-3.8719,-3.8773,-3.8862,-3.9008,-3.9186,-3.9008,-3.8873,-3.8873,-3.8873,-3.8873,-3.8873,-3.8833,-3.9105,-0.7295,-0.864,-1.0384,-1.2758,-1.5343,-1.7139,-1.6706,-1.586,-1.4927,-1.4109,-1.3065,-1.2305,-1.2305,-1.2305,-1.2305,-1.2305,-1.2305,-1.2305,-1.2305,-1.2305,-1.2305,-1.2305,-1.2305,-1.2305,-1.2305,-1.2305,-1.2305,-1.2305,-1.2305,-1.2519,-1.3025,-1.3025,-1.3237,-1.3803,-1.4243,-1.495,-1.593,-1.6349,-1.707,-1.8008,-1.8008,-1.8008,-1.8008,-1.8462,-1.911,-2.0009,-2.0398,-2.0951,-2.1414,-2.0819,-2.0684,-2.0851,-2.0652,-2.1373,-2.2538,-2.2961,-2.416,-2.5705,-2.6733,-2.729,-2.773,-2.8323,-2.9018,-2.9817,-3.082,-3.1612,-3.2175,-3.2111,-3.2528,-3.2818,-3.2144,-3.3155,-3.4588,-3.5733,-3.6626,-3.7414,-3.8117,-3.7877,-3.747,-3.7248,-3.6522,-3.5898,-3.565,-3.5622,-3.5622,-3.5622,-3.5622,-3.5694,-3.5941,-3.6224,-3.6498,-3.6764,-3.7452,-3.7893,-3.7893,-3.8382,-3.8707,-3.8707,-3.8707,-3.8707,-3.8707,-3.8707,-3.8762,-3.8894,-3.8762,-3.8707,-3.8707,-3.8707,-3.8707,-3.8707,-3.8707,-3.9129,-0.8408,-0.939,-1.0757,-1.4493,-1.6515,-1.7295,-1.6567,-1.5649,-1.4665,-1.3673,-1.2806,-1.2305,-1.2305,-1.2305,-1.2305,-1.2305,-1.2305,-1.2305,-1.2305,-1.2305,-1.2305,-1.2305,-1.2305,-1.2305,-1.2305,-1.2305,-1.2305,-1.2305,-1.2305,-1.2305,-1.2305,-1.2305,-1.2305,-1.2305,-1.3237,-1.4171,-1.5163,-1.614,-1.707,-1.8008,-1.8008,-1.8008,-1.8008,-1.8721,-1.9177,-1.9299,-1.9879,-2.0398,-2.0801,-2.0784,-2.0937,-2.126,-2.1398,-2.2008,-2.283,-2.3259,-2.412,-2.5243,-2.6738,-2.738,-2.7754,-2.8876,-2.9042,-2.8979,-3.0083,-3.0342,-3.0492,-3.1342,-3.2176,-3.2826,-3.2708,-3.4002,-3.5449,-3.6072,-3.6769,-3.756,-3.8515,-3.8267,-3.779,-3.7396,-3.6825,-3.6266,-3.581,-3.5739,-3.5783,-3.5854,-3.5898,-3.6054,-3.6498,-3.6603,-3.6825,-3.7285,-3.7755,-3.8032,-3.8032,-3.8446,-3.8707,-3.8707,-3.8707,-3.8707,-3.8707,-3.8707,-3.8707,-3.8707,-3.8627,-3.8627,-3.8707,-3.8627,-3.8627,-3.8707,-3.8836,-3.935,-0.6707,-0.8884,-1.2066,-1.5538,-1.6009,-1.5517,-1.5446,-1.4593,-1.3593,-1.2666,-1.2372,-1.2305,-1.2305,-1.2305,-1.2305,-1.2305,-1.2305,-1.2305,-1.2305,-1.2305,-1.2305,-1.2305,-1.2305,0.0,0.0,0.0,0.0,0.0,-1.2305,-1.2305,-1.2305,-1.2305,-1.2305,-1.2305,-1.3237,-1.4171,-1.5163,-1.614,-1.707,-1.8008,-1.8008,-1.8008,-1.8008,-1.8144,-1.8596,-1.9233,-1.8586,-1.9628,-2.1643,-2.0414,-2.0756,-2.2072,-2.1638,-2.2335,-2.343,-2.2931,-2.4255,-2.6296,-2.5956,-2.6617,-2.7655,-2.7835,-2.8586,-2.9469,-2.9661,-3.1294,-3.2878,-3.1903,-3.2869,-3.4118,-3.3581,-3.4387,-3.5588,-3.6741,-3.7417,-3.798,-3.8578,-3.8267,-3.7859,-3.7825,-3.7058,-3.6392,-3.6308,-3.6291,-3.6457,-3.6921,-3.6981,-3.702,-3.7058,-3.747,-3.772,-3.779,-3.8267,-3.8578,-3.8578,-3.8658,-3.8707,-3.8707,-3.8707,-3.8707,-3.8707,-3.8707,-3.8707,-3.8707,-3.8249,-3.8234,-3.8707,-3.8216,-3.8267,-3.8726,-3.9423,-4.0175,-0.7637,-1.0272,-1.3137,-1.4592,-1.5508,-1.572,-1.4593,-1.4027,-1.3455,-1.2519,-1.2305,-1.2305,-1.2305,-1.2305,-1.2305,-1.2305,-1.2305,-1.2305,-1.2305,-1.2305,-1.2305,0.0,0.0,0.0,0.0,0.0,0.0,0.0,-1.2305,-1.2305,-1.2305,-1.2305,-1.2305,-1.2305,-1.2739,-1.3665,-1.5163,-1.5587,-1.6576,-1.8008,-1.8008,-1.8008,-1.8008,-1.8008,-1.8202,-1.8596,-1.8654,-1.9365,-2.044,-2.0797,-2.1386,-2.2067,-2.2322,-2.3289,-2.4542,-2.384,-2.4891,-2.6557,-2.6258,-2.6542,-2.7081,-2.7505,-2.775,-2.814,-2.927,-3.0164,-3.0989,-3.1919,-3.3025,-3.4034,-3.414,-3.5241,-3.6499,-3.7064,-3.7791,-3.8415,-3.8658,-3.8496,-3.8267,-3.7946,-3.7097,-3.6498,-3.6803,-3.6843,-3.6921,-3.7135,-3.719,-3.7285,-3.7542,-3.7755,-3.8032,-3.8318,-3.8546,-3.8707,-3.8707,-3.8707,-3.8707,-3.8707,-3.8707,-3.8707,-3.8707,-3.8707,-3.8707,-3.8707,-3.8183,-3.8032,-3.8267,-3.7773,-3.7989,-3.8922,-3.9286,-4.0276,-0.8497,-1.0514,-1.2335,-1.3775,-1.4673,-1.4947,-1.4252,-1.3665,-1.3171,-1.2445,-1.2305,-1.2305,-1.2305,-1.2305,-1.2305,-1.2305,-1.2305,-1.2305,-1.2305,0.0,0.0,0.0,0.0,0.0,0.0,0.0,0.0,0.0,-1.2305,-1.2305,-1.2305,-1.2305,-1.2305,-1.2305,-1.2519,-1.3448,-1.5163,-1.5658,-1.6585,-1.8008,-1.8008,-1.8008,-1.8008,-1.8008,-1.8144,-1.8327,-1.8787,-1.9365,-2.0074,-2.1101,-2.1815,-2.2249,-2.3113,-2.4208,-2.5315,-2.4841,-2.5617,-2.6861,-2.6811,-2.6919,-2.7194,-2.7826,-2.774,-2.7638,-2.9325,-2.9738,-3.0053,-3.2241,-3.3448,-3.4163,-3.4512,-3.5882,-3.7175,-3.6962,-3.7819,-3.8707,-3.8707,-3.8707,-3.8546,-3.8013,-3.7305,-3.6904,-3.7323,-3.736,-3.7433,-3.756,-3.756,-3.7703,-3.8065,-3.8099,-3.8267,-3.8676,-3.8707,-3.8627,-3.8496,-3.8515,-3.8433,-3.8336,-3.8318,-3.835,-3.8496,-3.8515,-3.8546,-3.8707,-3.8183,-3.7893,-3.7893,-3.7433,-3.7862,-3.9102,-3.9318,-4.0433,-0.802,-0.7958,-0.8283,-1.3817,-1.3236,-1.1935,-1.4503,-1.3665,-1.2372,-1.2305,-1.2305,-1.2305,-1.2305,-1.2305,-1.2305,-1.2305,-1.2305,0.0,0.0,0.0,0.0,0.0,0.0,0.0,0.0,0.0,0.0,0.0,-1.2305,-1.2305,-1.2305,-1.2305,-1.2305,-1.2305,-1.3164,-1.4099,-1.5163,-1.6941,-1.7862,-1.8008,-1.8008,-1.8008,-1.8008,-1.8008,-1.8462,-1.9177,-1.8395,-1.9497,-2.169,-2.0974,-2.1604,-2.3125,-2.3943,-2.4724,-2.537,-2.5436,-2.633,-2.7525,-2.7456,-2.7845,-2.8512,-2.9118,-2.9284,-2.9396,-3.0206,-3.1297,-3.2455,-3.3321,-3.4514,-3.5357,-3.4682,-3.5844,-3.7033,-3.6254,-3.7404,-3.8707,-3.8707,-3.8707,-3.8546,-3.8013,-3.7859,-3.7825,-3.7859,-3.7859,-3.8032,-3.8546,-3.8627,-3.8627,-3.8676,-3.8658,-3.8658,-3.8707,-3.8707,-3.8496,-3.798,-3.7946,-3.7755,-3.7303,-3.7303,-3.747,-3.7911,-3.7946,-3.8183,-3.8707,-3.8183,-3.7893,-3.7893,-3.7433,-3.7862,-3.912,-3.9878,-4.0978,-0.6743,-0.7871,-0.9048,-1.0725,-1.1495,-1.1985,-1.2385,-1.2381,-1.2305,-1.2305,-1.2305,-1.2305,-1.2305,-1.2305,-1.2305,0.0,0.0,0.0,0.0,0.0,0.0,0.0,0.0,0.0,0.0,0.0,0.0,0.0,0.0,-1.2305,-1.2305,-1.2305,-1.2305,-1.2305,-1.2666,-1.3593,-1.5163,-1.7079,-1.8008,-1.8008,-1.8008,-1.8008,-1.8008,-1.8008,-1.8787,-2.0074,-1.9233,-2.0009,-2.1939,-2.2125,-2.2847,-2.3884,-2.4176,-2.5063,-2.6094,-2.6131,-2.6777,-2.752,-2.7089,-2.7316,-2.7798,-2.7635,-2.7815,-2.8506,-3.0549,-3.1501,-3.2282,-3.4292,-3.5206,-3.5453,-3.4692,-3.5827,-3.7306,-3.7654,-3.8214,-3.8707,-3.8707,-3.8433,-3.8216,-3.8382,-3.815,-3.8013,-3.8332,-3.8415,-3.8465,-3.8658,-3.8707,-3.8707,-3.8707,-3.8707,-3.8707,-3.8707,-3.8382,-3.8099,-3.7911,-3.7614,-3.736,-3.7228,-3.719,-3.7396,-3.7859,-3.7893,-3.815,-3.8707,-3.8496,-3.8083,-3.7433,-3.7396,-3.8108,-3.9435,-4.0199,-4.1466,-0.5327,-0.6636,-0.7957,-0.8397,-0.9542,-1.0713,-1.1234,-1.1639,-1.1944,-1.2238,-1.2305,-1.2305,-1.2305,-1.2305,0.0,0.0,0.0,0.0,0.0,0.0,0.0,0.0,0.0,0.0,0.0,0.0,0.0,0.0,0.0,0.0,-1.2305,-1.2305,-1.2305,-1.2305,-1.2945,-1.3875,-1.5163,-1.7079,-1.8008,-1.8008,-1.8008,-1.8008,-1.8008,-1.8008,-1.8977,-2.059,-2.0009,-2.0707,-2.2322,-2.2567,-2.3352,-2.435,-2.4567,-2.5398,-2.651,-2.6774,-2.7203,-2.76,-2.7573,-2.7814,-2.8117,-2.8099,-2.8362,-2.9108,-3.1423,-3.1967,-3.2226,-3.4587,-3.5064,-3.4735,-3.4142,-3.5322,-3.7022,-3.8387,-3.8707,-3.8707,-3.8707,-3.8415,-3.8267,-3.8627,-3.8415,-3.8267,-3.8627,-3.8707,-3.8707,-3.8707,-3.8707,-3.8707,-3.8707,-3.8546,-3.8496,-3.8676,-3.8083,-3.7649,-3.7649,-3.721,-3.6865,-3.6666,-3.6666,-3.6904,-3.7379,-3.7578,-3.7911,-3.8415,-3.8433,-3.8142,-3.758,-3.7679,-3.8368,-3.9589,-4.0081,-4.1074,0.0,0.0,0.0,-0.7239,-0.7405,-0.7815,-1.1095,-1.135,-1.1182,-1.2078,-1.2258,-1.2265,0.0,0.0,0.0,0.0,0.0,0.0,0.0,0.0,0.0,0.0,0.0,0.0,0.0,0.0,0.0,0.0,-1.2305,-1.2305,-1.2305,-1.2305,-1.2298,-1.2372,-1.4235,-1.5234,-1.5234,-1.7079,-1.8008,-1.8008,-1.8008,-1.8008,-1.8008,-1.8008,-1.8977,-2.059,-2.059,-2.1542,-2.3065,-2.2249,-2.2907,-2.4408,-2.5119,-2.5892,-2.6616,-2.7357,-2.7625,-2.776,-2.895,-2.9361,-2.9585,-3.0757,-3.119,-3.1461,-3.2933,-3.2865,-3.2618,-3.4092,-3.399,-3.3345,-3.3149,-3.4375,-3.6123,-3.8211,-3.8707,-3.8707,-3.8676,-3.8676,-3.8676,-3.8707,-3.8707,-3.8707,-3.8676,-3.8676,-3.8676,-3.8676,-3.8676,-3.8676,-3.8707,-3.8267,-3.8132,-3.8627,-3.7826,-3.7228,-3.719,-3.6724,-3.6182,-3.5605,-3.5622,-3.5871,-3.6374,-3.6921,-3.7396,-3.7859,-3.7859,-3.8008,-3.828,-3.8298,-3.8726,-3.9492,-3.9532,-3.9807,-0.357,0.0,0.0,0.0,0.0,0.0,-0.8265,-0.8743,-0.9343,-1.1016,-1.1189,-1.1303,0.0,0.0,0.0,0.0,0.0,0.0,0.0,0.0,0.0,0.0,0.0,0.0,0.0,0.0,0.0,0.0,-1.2305,-1.2305,-1.2305,-1.2305,-1.2592,-1.3317,-1.4522,-1.5517,-1.6219,-1.7432,-1.8008,-1.8008,-1.8008,-1.8008,-1.8008,-1.8008,-1.8977,-2.059,-2.059,-2.1542,-2.3138,-2.3518,-2.4208,-2.5175,-2.5906,-2.6654,-2.7306,-2.7509,-2.7625,-2.766,-2.7993,-2.867,-2.9451,-2.9805,-3.0477,-3.1376,-3.2307,-3.2442,-3.2557,-3.3859,-3.4043,-3.4194,-3.5386,-3.5636,-3.6123,-3.8211,-3.8707,-3.8578,-3.8216,-3.8099,-3.8234,-3.8627,-3.8707,-3.8596,-3.8183,-3.8099,-3.8099,-3.8099,-3.8099,-3.8267,-3.8658,-3.8578,-3.8546,-3.8658,-3.8117,-3.7578,-3.721,-3.7058,-3.6603,-3.565,-3.5985,-3.6266,-3.6374,-3.6539,-3.6865,-3.7396,-3.7396,-3.7506,-3.7735,-3.8251,-3.887,-3.9532,-4.0311,-4.0491,-0.3338,-0.3735,-0.4227,-0.4009,0.0,0.0,-0.7389,0.0,0.0,0.0,-1.1403,0.0,0.0,0.0,0.0,0.0,0.0,0.0,0.0,0.0,0.0,0.0,0.0,0.0,0.0,-1.1897,-1.1937,-1.2104,-1.2231,-1.2305,-1.2305,-1.2305,-1.2739,-1.3673,-1.4665,-1.5649,-1.6558,-1.7501,-1.8008,-1.8008,-1.8008,-1.8008,-1.8008,-1.8405,-1.9299,-2.059,-2.0974,-2.1865,-2.3125,-2.3943,-2.4738,-2.5453,-2.6229,-2.693,-2.7625,-2.7625,-2.776,-2.7993,-2.8255,-2.8996,-2.9805,-3.0081,-3.0617,-3.1365,-3.2315,-3.2337,-3.2351,-3.3532,-3.3809,-3.4093,-3.5813,-3.6087,-3.6315,-3.7968,-3.8382,-3.8234,-3.7738,-3.7614,-3.7685,-3.8016,-3.805,-3.7964,-3.7649,-3.7614,-3.7685,-3.7859,-3.7893,-3.8099,-3.8627,-3.8496,-3.8382,-3.8382,-3.772,-3.723,-3.721,-3.6981,-3.6684,-3.6274,-3.6563,-3.6724,-3.6724,-3.6724,-3.6882,-3.7173,-3.6999,-3.7091,-3.7482,-3.7932,-3.844,-3.9014,-3.9763,-3.9786,-0.3112,-0.3104,-0.3232,-0.349,-0.3673,0.0,-0.7322,0.0,0.0,0.0,0.0,0.0,0.0,0.0,0.0,0.0,0.0,0.0,0.0,0.0,0.0,0.0,0.0,0.0,-1.1512,-1.1663,-1.183,-1.1864,-1.2138,-1.2378,-1.2445,-1.2445,-1.2952,-1.3954,-1.4879,-1.5799,-1.6775,-1.7579,-1.8008,-1.8008,-1.8008,-1.8076,-1.8134,-1.8977,-1.9814,-2.0782,-2.1553,-2.2384,-2.3125,-2.3943,-2.4738,-2.5453,-2.6229,-2.693,-2.7625,-2.7625,-2.7993,-2.8559,-2.9088,-2.9717,-3.0393,-3.0935,-3.119,-3.1448,-3.2524,-3.2416,-3.209,-3.3229,-3.3409,-3.3617,-3.5119,-3.5921,-3.6564,-3.7525,-3.7839,-3.7755,-3.721,-3.7097,-3.7097,-3.702,-3.7114,-3.7173,-3.7114,-3.7097,-3.7248,-3.7685,-3.772,-3.7911,-3.8465,-3.8117,-3.7825,-3.7825,-3.702,-3.6643,-3.7076,-3.6764,-3.6724,-3.7114,-3.7228,-3.7248,-3.719,-3.7135,-3.7097,-3.7097,-3.6643,-3.6703,-3.7361,-3.7557,-3.7924,-3.8362,-3.8583,-3.8446,-0.2598,-0.3057,-0.3476,-0.3366,-0.359,0.0,-0.4811,-0.4969,-0.5418,0.0,-0.7568,0.0,0.0,0.0,0.0,0.0,0.0,0.0,0.0,0.0,0.0,0.0,0.0,0.0,-1.1471,-1.1476,-1.161,-1.185,-1.2138,-1.2666,-1.3382,-1.3455,-1.4235,-1.6,-1.621,-1.6784,-1.7716,-1.794,-1.8008,-1.8008,-1.8008,-1.8405,-1.9044,-1.9233,-2.0139,-2.169,-2.1815,-2.2384,-2.3125,-2.3943,-2.4738,-2.5453,-2.6229,-2.693,-2.7625,-2.7625,-2.7993,-2.8511,-2.8654,-2.9406,-3.0293,-3.0435,-3.101,-3.1714,-3.1962,-3.2179,-3.2468,-3.31,-3.347,-3.3899,-3.4869,-3.5713,-3.6387,-3.6823,-3.7442,-3.7649,-3.6764,-3.658,-3.6416,-3.6011,-3.6603,-3.7058,-3.6643,-3.658,-3.658,-3.6684,-3.6684,-3.6865,-3.7414,-3.7396,-3.7323,-3.7323,-3.7173,-3.6921,-3.6563,-3.7193,-3.7305,-3.6603,-3.7323,-3.7578,-3.7228,-3.6803,-3.658,-3.658,-3.6457,-3.6444,-3.6641,-3.8026,-3.876,-3.8852,-3.8747,-3.8627,-0.2138,-0.2417,-0.2768,-0.3034,-0.3126,0.0,0.0,0.0,-0.5175,-0.6913,-0.7132,-0.7218,-0.8078,0.0,0.0,0.0,0.0,0.0,0.0,0.0,0.0,0.0,0.0,0.0,-1.1423,-1.1557,-1.177,-1.2064,-1.2218,-1.2732,-1.3673,-1.3673,-1.4593,-1.6567,-1.6636,-1.707,-1.8008,-1.8008,-1.8008,-1.8008,-1.8008,-1.8462,-1.9299,-1.9759,-2.0655,-2.1939,-2.2322,-2.2932,-2.3708,-2.4118,-2.4951,-2.6014,-2.6336,-2.6721,-2.7137,-2.7795,-2.8415,-2.9012,-2.9271,-3.01,-3.1055,-3.1055,-3.1534,-3.2196,-3.2433,-3.2791,-3.3196,-3.3419,-3.3634,-3.3936,-3.4553,-3.5005,-3.5452,-3.5919,-3.6305,-3.6488,-3.6096,-3.6028,-3.5941,-3.5667,-3.6037,-3.6333,-3.6054,-3.6028,-3.6097,-3.6333,-3.6374,-3.6603,-3.7152,-3.719,-3.7114,-3.6843,-3.7038,-3.7097,-3.6843,-3.747,-3.779,-3.756,-3.8016,-3.8183,-3.7948,-3.7228,-3.6563,-3.6028,-3.6249,-3.6539,-3.6803,-3.7917,-3.8436,-3.8471,-3.8615,-3.8546,-0.1614,-0.171,-0.2014,-0.2694,-0.2774,-0.3158,0.0,0.0,0.0,0.0,0.0,0.0,0.0,0.0,0.0,0.0,0.0,0.0,0.0,0.0,0.0,0.0,0.0,0.0,0.0,-1.139,-1.175,-1.2265,-1.2098,-1.2555,-1.3947,-1.3954,-1.4871,-1.6784,-1.6853,-1.7217,-1.8008,-1.8008,-1.8008,-1.8008,-1.8134,-1.8721,-1.9562,-2.0462,-2.1302,-2.2199,-2.2823,-2.3543,-2.4292,-2.4292,-2.5063,-2.6283,-2.6457,-2.6563,-2.6864,-2.8076,-2.8873,-2.9496,-3.0175,-3.1055,-3.1808,-3.1933,-3.223,-3.2713,-3.3184,-3.355,-3.3807,-3.3807,-3.3734,-3.3771,-3.4069,-3.4235,-3.4378,-3.4952,-3.5208,-3.5359,-3.5586,-3.5622,-3.5622,-3.5622,-3.5622,-3.5622,-3.5622,-3.5622,-3.5739,-3.6182,-3.6333,-3.658,-3.6999,-3.7152,-3.702,-3.6603,-3.696,-3.719,-3.719,-3.7614,-3.8099,-3.8515,-3.8627,-3.8707,-3.8707,-3.7756,-3.6724,-3.5622,-3.6139,-3.6603,-3.7076,-3.7542,-3.7825,-3.7893,-3.8332,-3.8267,-0.0991,-0.1457,-0.208,-0.2573,-0.2968,-0.3312,-0.3632,0.0,-0.3774,-0.3716,0.0,-0.4123,-0.4382,0.0,0.0,0.0,0.0,0.0,-0.7101,-0.8143,0.0,0.0,0.0,0.0,0.0,-1.0294,-1.0868,-1.2198,-1.1343,-1.2056,-1.4885,-1.5021,-1.5877,-1.7794,-1.7862,-1.7872,-1.8008,-1.8008,-1.8008,-1.8008,-1.8787,-1.9628,-2.0462,-2.1365,-2.2187,-2.2944,-2.3078,-2.3543,-2.4292,-2.4292,-2.4794,-2.5563,-2.6229,-2.6878,-2.756,-2.8238,-2.8873,-2.9524,-3.0566,-3.1291,-3.1861,-3.2282,-3.2745,-3.3214,-3.3606,-3.3762,-3.3807,-3.3807,-3.355,-3.3291,-3.3322,-3.3566,-3.3846,-3.4137,-3.4787,-3.5359,-3.5586,-3.5622,-3.5622,-3.5622,-3.5622,-3.5622,-3.5622,-3.5622,-3.5622,-3.5694,-3.6097,-3.6416,-3.6498,-3.6921,-3.719,-3.7114,-3.7135,-3.719,-3.719,-3.7614,-3.7946,-3.798,-3.8433,-3.8707,-3.8707,-3.7756,-3.6724,-3.5622,-3.6139,-3.6416,-3.6498,-3.702,-3.7506,-3.7893,-3.7946,-3.7738,-0.0367,-0.0585,-0.0981,-0.1613,-0.2026,-0.2427,-0.2887,-0.3104,-0.3202,-0.3202,0.0,0.0,0.0,0.0,0.0,0.0,-0.5462,0.0,0.0,0.0,-0.8692,0.0,0.0,0.0,0.0,0.0,0.0,0.0,-1.2064,-1.2729,-1.5852,-1.6,-1.6645,-1.794,-1.8008,-1.8008,-1.8008,-1.8529,-1.8721,-1.8787,-1.9628,-2.0526,-2.1365,-2.1753,-2.2616,-2.3826,-2.3826,-2.4439,-2.5563,-2.5563,-2.6,-2.6707,-2.7034,-2.7261,-2.762,-2.8654,-2.9406,-3.0048,-3.1099,-3.179,-3.2332,-3.3027,-3.339,-3.3578,-3.3734,-3.3807,-3.3734,-3.3522,-3.3332,-3.3075,-3.2533,-3.2844,-3.3363,-3.3636,-3.4267,-3.4976,-3.5497,-3.5622,-3.5622,-3.5622,-3.5622,-3.5622,-3.5622,-3.5622,-3.5694,-3.6028,-3.6266,-3.6498,-3.6843,-3.7076,-3.719,-3.719,-3.7433,-3.7614,-3.7614,-3.8065,-3.8382,-3.8382,-3.83,-3.8117,-3.7826,-3.7152,-3.6374,-3.5622,-3.581,-3.6097,-3.6374,-3.662,-3.6825,-3.7058,-3.736,-3.721,0.0,0.0,-0.0168,-0.0876,-0.13,-0.1718,-0.2383,-0.2825,-0.308,-0.3209,-0.3127,0.0,0.0,0.0,-0.3409,-0.3295,0.0,-0.5515,0.0,-0.6121,0.0,0.0,0.0,0.0,0.0,0.0,0.0,0.0,0.0,-1.3013,-1.639,-1.6636,-1.7001,-1.794,-1.8202,-1.8327,-1.8327,-1.9233,-1.9694,-1.9694,-2.0526,-2.1416,-2.2224,-2.2249,-2.3088,-2.4567,-2.4408,-2.5119,-2.651,-2.651,-2.693,-2.7625,-2.776,-2.7898,-2.8051,-2.9057,-2.9761,-3.0444,-3.1608,-3.2366,-3.2965,-3.3606,-3.3807,-3.3807,-3.3807,-3.3807,-3.3707,-3.3302,-3.3124,-3.2809,-3.2022,-3.2303,-3.2904,-3.3303,-3.3964,-3.4692,-3.5453,-3.5622,-3.5622,-3.5622,-3.5622,-3.5622,-3.5622,-3.5622,-3.5739,-3.6139,-3.6308,-3.6603,-3.7152,-3.7323,-3.7433,-3.7596,-3.7929,-3.8099,-3.8099,-3.8465,-3.8627,-3.8496,-3.8117,-3.7614,-3.6999,-3.662,-3.6139,-3.5622,-3.5622,-3.5783,-3.6182,-3.6182,-3.6182,-3.6182,-3.6724,-3.6684,0.0,0.0,-0.0118,-0.0762,-0.1108,-0.1486,-0.2075,-0.2838,-0.3341,-0.3158,-0.3463,-0.3673,-0.3437,-0.3334,-0.3185,-0.2785,-0.3372,0.0,0.0,0.0,0.0,0.0,0.0,0.0,0.0,0.0,0.0,0.0,0.0,0.0,-1.6396,-1.6636,-1.7001,-1.794,-1.8854,-1.9243,-1.9243,-2.0139,-2.059,-2.059,-2.1428,-2.2274,-2.294,-2.3027,-2.393,-2.5342,-2.4624,-2.5119,-2.651,-2.651,-2.693,-2.766,-2.8222,-2.8826,-2.9361,-2.9361,-2.9761,-3.0526,-3.1969,-3.3027,-3.3762,-3.3788,-3.3807,-3.3807,-3.3807,-3.3807,-3.3707,-3.3302,-3.2872,-3.2417,-3.1933,-3.2055,-3.25,-3.322,-3.3964,-3.4692,-3.5453,-3.5622,-3.5622,-3.5622,-3.5622,-3.5622,-3.5622,-3.5622,-3.5622,-3.5605,-3.6054,-3.6603,-3.7152,-3.7614,-3.8065,-3.8596,-3.8676,-3.8658,-3.8658,-3.8707,-3.8465,-3.7946,-3.7893,-3.7452,-3.6457,-3.6416,-3.6139,-3.5622,-3.5622,-3.5622,-3.5622,-3.5622,-3.5622,-3.5667,-3.6182,-3.6139,0.0,0.0,-0.0063,-0.0264,0.0,0.0,-0.1423,-0.2374,-0.3127,-0.2883,-0.3266,-0.3558,-0.3256,-0.312,-0.3008,-0.2856,-0.3456,-0.3804,0.0,-0.4264,0.0,0.0,0.0,0.0,0.0,0.0,0.0,0.0,0.0,0.0,0.0,-1.8085,-1.8556,-1.8854,-1.9694,-2.0139,-2.0139,-2.1037,-2.1491,-2.1491,-2.231,-2.2798,-2.3088,-2.3636,-2.4452,-2.5398,-2.5673,-2.6336,-2.7255,-2.7255,-2.7357,-2.766,-2.8271,-2.8873,-2.9451,-2.9848,-3.0393,-3.1021,-3.1789,-3.2631,-3.339,-3.339,-3.3578,-3.3807,-3.3807,-3.3606,-3.3302,-3.284,-3.2435,-3.2003,-3.1507,-3.219,-3.3085,-3.3339,-3.4353,-3.5318,-3.5571,-3.5898,-3.6011,-3.565,-3.5898,-3.6028,-3.565,-3.5622,-3.5739,-3.6054,-3.6291,-3.6603,-3.7152,-3.7614,-3.798,-3.815,-3.8496,-3.8707,-3.8707,-3.8382,-3.7964,-3.747,-3.7097,-3.6746,-3.6416,-3.6054,-3.5783,-3.5622,-3.5622,-3.5622,-3.5622,-3.5622,-3.5622,-3.5622,-3.5783,-3.5783,0.0,0.0,0.0,0.0,-0.0419,0.0,-0.121,0.0,-0.2906,-0.2656,-0.3213,-0.3632,-0.3224,-0.3175,-0.3147,-0.3147,-0.3699,-0.4009,0.0,-0.4349,0.0,0.0,0.0,0.0,0.0,0.0,0.0,0.0,0.0,0.0,0.0,0.0,-1.9748,-1.9748,-2.059,-2.1037,-2.1037,-2.1865,-2.2322,-2.2322,-2.2823,-2.3245,-2.3531,-2.406,-2.4851,-2.5837,-2.6283,-2.693,-2.7625,-2.7625,-2.7625,-2.766,-2.8496,-2.9042,-2.9496,-3.0081,-3.0747,-3.1449,-3.175,-3.2316,-3.2983,-3.3154,-3.3255,-3.3372,-3.355,-3.3302,-3.284,-3.2366,-3.2056,-3.1768,-3.1329,-3.229,-3.3406,-3.3406,-3.4539,-3.5622,-3.5622,-3.5854,-3.6011,-3.5667,-3.5898,-3.6028,-3.565,-3.5622,-3.5694,-3.6054,-3.6097,-3.6291,-3.6843,-3.7173,-3.7415,-3.7649,-3.7964,-3.8168,-3.8168,-3.7843,-3.7433,-3.696,-3.6603,-3.6291,-3.6139,-3.5766,-3.5622,-3.5622,-3.5622,-3.5622,-3.5622,-3.5622,-3.547,-3.5253,-3.547,-3.547]}]]